[[{"header":{"parameterUnit":"m.s-1","parameterCategory":1,"la1":30.6,"la2":28.766,"lo1":-90.7593,"lo2":-88.6598,"dy":0.0162,"dx":0.0183,"nx":116,"ny":114,"refTime":"2023-04-10T12:00:00:Z","depth":0,"parameterNumber":2,"parameterNumberName":"U-component_of_WINDS"},"data":[0.0,0.0,0.0,0.0,0.0,0.0,0.0,0.0,0.0,0.0,0.0,0.0,0.0,0.0,0.0,0.0,0.0,0.0,0.0,0.0,0.0,0.0,0.0,0.0,0.0,0.0,0.0,0.0,0.0,0.0,0.0,0.0,0.0,0.0,0.0,0.0,0.0,0.0,0.0,0.0,0.0,0.0,0.0,0.0,0.0,0.0,0.0,0.0,0.0,0.0,0.0,0.0,0.0,0.0,0.0,0.0,0.0,0.0,0.0,0.0,0.0,0.0,0.0,0.0,0.0,0.0,0.0,0.0,0.0,0.0,0.0,0.0,0.0,0.0,0.0,0.0,0.0,0.0,0.0,0.0,0.0,0.0,0.0,0.0,0.0,0.0,0.0,0.0,0.0,0.0,0.0,0.0,0.0,0.0,0.0,0.0,0.0,0.0,0.0,0.0,0.0,0.0,0.0,0.0,0.0,0.0,0.0,0.0,0.0,0.0,0.0,0.0,0.0,0.0,0.0,0.0,0.0,0.0,0.0,0.0,0.0,0.0,0.0,0.0,0.0,0.0,0.0,0.0,0.0,0.0,0.0,0.0,0.0,0.0,0.0,0.0,0.0,0.0,0.0,0.0,0.0,0.0,0.0,0.0,0.0,0.0,0.0,0.0,0.0,0.0,0.0,0.0,0.0,0.0,0.0,0.0,0.0,0.0,0.0,0.0,0.0,0.0,0.0,0.0,0.0,0.0,0.0,0.0,0.0,0.0,0.0,0.0,0.0,0.0,0.0,0.0,0.0,0.0,0.0,0.0,0.0,0.0,0.0,0.0,0.0,0.0,0.0,0.0,0.0,0.0,0.0,0.0,0.0,0.0,0.0,0.0,0.0,0.0,0.0,0.0,0.0,0.0,0.0,0.0,0.0,0.0,0.0,0.0,0.0,0.0,0.0,0.0,0.0,0.0,0.0,0.0,0.0,0.0,0.0,0.0,0.0,0.0,0.0,0.0,0.0,0.0,0.0,0.0,0.0,0.0,0.0,0.0,0.0,0.0,0.0,0.0,0.0,0.0,0.0,0.0,0.0,0.0,0.0,0.0,0.0,0.0,0.0,0.0,0.0,0.0,0.0,0.0,0.0,0.0,0.0,0.0,0.0,0.0,0.0,0.0,0.0,0.0,0.0,0.0,0.0,0.0,0.0,0.0,0.0,0.0,0.0,0.0,0.0,0.0,0.0,0.0,0.0,0.0,0.0,0.0,0.0,0.0,0.0,0.0,0.0,0.0,0.0,0.0,0.0,0.0,0.0,0.0,0.0,0.0,0.0,0.0,0.0,0.0,0.0,0.0,0.0,0.0,0.0,0.0,0.0,0.0,0.0,0.0,0.0,0.0,0.0,0.0,0.0,0.0,0.0,0.0,0.0,0.0,0.0,0.0,0.0,0.0,0.0,0.0,0.0,0.0,0.0,0.0,0.0,0.0,0.0,0.0,0.0,0.0,0.0,0.0,0.0,0.0,0.0,0.0,0.0,0.0,0.0,0.0,0.0,0.0,0.0,0.0,0.0,0.0,0.0,0.0,0.0,0.0,0.0,0.0,0.0,0.0,0.0,0.0,0.0,0.0,0.0,0.0,0.0,0.0,0.0,0.0,0.0,0.0,0.0,0.0,0.0,0.0,0.0,0.0,0.0,0.0,0.0,0.0,0.0,0.0,0.0,0.0,0.0,0.0,0.0,0.0,0.0,0.0,0.0,0.0,0.0,0.0,0.0,0.0,0.0,0.0,0.0,0.0,0.0,0.0,0.0,0.0,0.0,0.0,0.0,0.0,0.0,0.0,0.0,0.0,0.0,0.0,0.0,0.0,0.0,0.0,0.0,0.0,0.0,0.0,0.0,0.0,0.0,0.0,0.0,0.0,0.0,0.0,0.0,0.0,0.0,0.0,0.0,0.0,0.0,0.0,0.0,0.0,0.0,0.0,0.0,0.0,0.0,0.0,0.0,0.0,0.0,0.0,0.0,0.0,0.0,0.0,0.0,0.0,0.0,0.0,0.0,0.0,0.0,0.0,0.0,0.0,0.0,0.0,0.0,0.0,0.0,0.0,0.0,0.0,0.0,0.0,0.0,0.0,0.0,0.0,0.0,0.0,0.0,0.0,0.0,0.0,0.0,0.0,0.0,0.0,0.0,0.0,0.0,0.0,0.0,0.0,0.0,0.0,0.0,0.0,0.0,0.0,0.0,0.0,0.0,0.0,0.0,0.0,0.0,0.0,0.0,0.0,0.0,0.0,0.0,0.0,0.0,0.0,0.0,0.0,0.0,0.0,0.0,0.0,0.0,0.0,0.0,0.0,0.0,0.0,0.0,0.0,0.0,0.0,0.0,0.0,0.0,0.0,0.0,0.0,0.0,0.0,0.0,0.0,0.0,0.0,0.0,0.0,0.0,0.0,0.0,0.0,0.0,0.0,0.0,0.0,0.0,0.0,0.0,0.0,0.0,0.0,0.0,0.0,0.0,0.0,0.0,0.0,0.0,0.0,0.0,0.0,0.0,0.0,0.0,0.0,0.0,0.0,0.0,0.0,0.0,0.0,0.0,0.0,0.0,0.0,0.0,0.0,0.0,0.0,0.0,0.0,0.0,0.0,0.0,0.0,0.0,0.0,0.0,0.0,0.0,0.0,0.0,0.0,0.0,0.0,0.0,0.0,0.0,0.0,0.0,0.0,0.0,0.0,0.0,0.0,0.0,0.0,0.0,0.0,0.0,0.0,0.0,0.0,0.0,0.0,0.0,0.0,0.0,0.0,0.0,0.0,0.0,0.0,0.0,0.0,0.0,0.0,0.0,0.0,0.0,0.0,0.0,0.0,0.0,0.0,0.0,0.0,0.0,0.0,0.0,0.0,0.0,0.0,0.0,0.0,0.0,0.0,0.0,0.0,0.0,0.0,0.0,0.0,0.0,0.0,0.0,0.0,0.0,0.0,0.0,0.0,0.0,0.0,0.0,0.0,0.0,0.0,0.0,0.0,0.0,0.0,0.0,0.0,0.0,0.0,0.0,0.0,0.0,0.0,0.0,0.0,0.0,0.0,0.0,0.0,0.0,0.0,0.0,0.0,0.0,0.0,0.0,0.0,0.0,0.0,0.0,0.0,0.0,0.0,0.0,0.0,0.0,0.0,0.0,0.0,0.0,0.0,0.0,0.0,0.0,0.0,0.0,0.0,0.0,0.0,0.0,0.0,0.0,0.0,0.0,0.0,0.0,0.0,0.0,0.0,0.0,0.0,0.0,0.0,0.0,0.0,0.0,0.0,0.0,0.0,0.0,0.0,0.0,0.0,0.0,0.0,0.0,0.0,0.0,0.0,0.0,0.0,0.0,0.0,0.0,0.0,0.0,0.0,0.0,0.0,0.0,0.0,0.0,0.0,0.0,0.0,0.0,0.0,0.0,0.0,0.0,0.0,0.0,0.0,0.0,0.0,0.0,0.0,0.0,0.0,0.0,0.0,0.0,0.0,0.0,0.0,0.0,0.0,0.0,0.0,0.0,0.0,0.0,0.0,0.0,0.0,0.0,0.0,0.0,0.0,0.0,0.0,0.0,0.0,0.0,0.0,0.0,0.0,0.0,0.0,0.0,0.0,0.0,0.0,0.0,0.0,0.0,0.0,0.0,0.0,0.0,0.0,0.0,0.0,0.0,0.0,0.0,0.0,0.0,0.0,0.0,0.0,0.0,0.0,0.0,0.0,0.0,0.0,0.0,0.0,0.0,0.0,0.0,0.0,0.0,0.0,0.0,0.0,0.0,0.0,0.0,0.0,0.0,0.0,0.0,0.0,0.0,0.0,0.0,0.0,0.0,0.0,0.0,0.0,0.0,0.0,0.0,0.0,0.0,0.0,0.0,0.0,0.0,0.0,0.0,0.0,0.0,0.0,0.0,0.0,0.0,0.0,0.0,0.0,0.0,0.0,0.0,0.0,0.0,0.0,0.0,0.0,0.0,0.0,0.0,0.0,0.0,0.0,0.0,0.0,0.0,0.0,0.0,0.0,0.0,0.0,0.0,0.0,0.0,0.0,0.0,0.0,0.0,0.0,0.0,0.0,0.0,0.0,0.0,0.0,0.0,0.0,0.0,0.0,0.0,0.0,0.0,0.0,0.0,0.0,0.0,0.0,0.0,0.0,0.0,0.0,0.0,0.0,0.0,0.0,0.0,0.0,0.0,0.0,0.0,0.0,0.0,0.0,0.0,0.0,0.0,0.0,0.0,0.0,0.0,0.0,0.0,0.0,0.0,0.0,0.0,0.0,0.0,0.0,0.0,0.0,0.0,0.0,0.0,0.0,0.0,0.0,0.0,0.0,0.0,0.0,0.0,0.0,0.0,0.0,0.0,0.0,0.0,0.0,0.0,0.0,0.0,0.0,0.0,0.0,0.0,0.0,0.0,0.0,0.0,0.0,0.0,0.0,0.0,0.0,0.0,0.0,0.0,0.0,0.0,0.0,0.0,0.0,0.0,0.0,0.0,0.0,0.0,0.0,0.0,0.0,0.0,0.0,0.0,0.0,0.0,0.0,0.0,0.0,0.0,0.0,0.0,0.0,0.0,0.0,0.0,0.0,0.0,0.0,0.0,0.0,0.0,0.0,0.0,0.0,0.0,0.0,0.0,0.0,0.0,0.0,0.0,0.0,0.0,0.0,0.0,0.0,0.0,0.0,0.0,0.0,0.0,0.0,0.0,0.0,0.0,0.0,0.0,0.0,0.0,0.0,0.0,0.0,0.0,0.0,0.0,0.0,0.0,0.0,0.0,0.0,0.0,0.0,0.0,0.0,0.0,0.0,0.0,0.0,0.0,0.0,0.0,0.0,0.0,0.0,0.0,0.0,0.0,0.0,0.0,0.0,0.0,0.0,0.0,0.0,0.0,0.0,0.0,0.0,0.0,0.0,0.0,0.0,0.0,0.0,0.0,0.0,0.0,0.0,0.0,0.0,0.0,0.0,0.0,0.0,0.0,0.0,0.0,0.0,0.0,0.0,0.0,0.0,0.0,0.0,0.0,0.0,0.0,0.0,0.0,0.0,0.0,0.0,0.0,0.0,0.0,0.0,0.0,0.0,0.0,0.0,0.0,0.0,0.0,0.0,0.0,0.0,0.0,0.0,0.0,0.0,0.0,0.0,0.0,0.0,0.0,0.0,0.0,0.0,0.0,0.0,0.0,0.0,0.0,0.0,0.0,0.0,0.0,0.0,0.0,0.0,0.0,0.0,0.0,0.0,0.0,0.0,0.0,0.0,0.0,0.0,0.0,0.0,0.0,0.0,0.0,0.0,0.0,0.0,0.0,0.0,0.0,0.0,0.0,0.0,0.0,0.0,0.0,0.0,0.0,0.0,0.0,0.0,0.0,0.0,0.0,0.0,0.0,0.0,0.0,0.0,0.0,0.0,0.0,0.0,0.0,0.0,0.0,0.0,0.0,0.0,0.0,0.0,0.0,0.0,0.0,0.0,0.0,0.0,0.0,0.0,0.0,0.0,0.0,0.0,0.0,0.0,0.0,0.0,0.0,0.0,0.0,0.0,0.0,0.0,0.0,0.0,0.0,0.0,0.0,0.0,0.0,0.0,0.0,0.0,0.0,0.0,0.0,0.0,0.0,0.0,0.0,0.0,0.0,0.0,0.0,0.0,0.0,0.0,0.0,0.0,0.0,0.0,0.0,0.0,0.0,0.0,0.0,0.0,0.0,0.0,0.0,0.0,0.0,0.0,0.0,0.0,0.0,0.0,0.0,0.0,0.0,0.0,0.0,0.0,0.0,0.0,0.0,0.0,0.0,0.0,0.0,0.0,0.0,0.0,0.0,0.0,0.0,0.0,0.0,0.0,0.0,0.0,0.0,0.0,0.0,0.0,0.0,0.0,0.0,0.0,0.0,0.0,0.0,0.0,0.0,0.0,0.0,0.0,0.0,0.0,0.0,0.0,0.0,0.0,0.0,0.0,0.0,0.0,0.0,0.0,0.0,0.0,0.0,0.0,0.0,0.0,0.0,0.0,0.0,0.0,0.0,0.0,0.0,0.0,0.0,0.0,0.0,0.0,0.0,0.0,0.0,0.0,0.0,0.0,0.0,0.0,0.0,0.0,0.0,0.0,1.9013,1.7689,0.0,0.0,0.0,0.0,0.0,0.0,0.0,0.0,0.0,0.0,0.0,0.0,0.0,0.0,0.0,0.0,0.0,0.0,0.0,0.0,0.0,0.0,0.0,0.0,0.0,0.0,0.0,0.0,0.0,0.0,0.0,0.0,0.0,0.0,0.0,0.0,0.0,0.0,2.0778,2.28,2.5053,2.5271,2.4377,2.2608,0.0,0.0,0.0,0.0,0.0,0.0,0.0,0.0,0.0,0.0,0.0,0.0,0.0,0.0,0.0,0.0,0.0,0.0,0.0,0.0,0.0,0.0,0.0,0.0,0.0,0.0,0.0,0.0,0.0,0.0,0.0,0.0,0.0,0.0,0.0,0.0,0.0,0.0,0.0,0.0,0.0,0.0,0.0,0.0,0.0,0.0,0.0,0.0,0.0,0.0,0.0,0.0,0.0,0.0,0.0,0.0,0.0,0.0,0.0,0.0,0.0,0.0,0.0,0.0,0.0,0.0,0.0,0.0,0.0,0.0,2.0258,1.9522,0.0,0.0,0.0,0.0,0.0,0.0,0.0,0.0,0.0,0.0,0.0,0.0,0.0,0.0,0.0,0.0,0.0,0.0,0.0,0.0,0.0,0.0,0.0,1.8181,1.9169,1.9986,1.9306,1.9169,0.0,0.0,0.0,0.0,0.0,0.0,0.0,1.7595,1.7847,1.8452,2.173,2.5011,2.8312,2.9367,2.7797,2.407,2.4207,0.0,0.0,0.0,0.0,0.0,0.0,0.0,0.0,0.0,0.0,0.0,0.0,0.0,0.0,0.0,0.0,0.0,0.0,0.0,0.0,0.0,0.0,0.0,0.0,0.0,0.0,0.0,0.0,0.0,0.0,0.0,0.0,0.0,0.0,0.0,0.0,0.0,0.0,0.0,0.0,0.0,0.0,0.0,0.0,0.0,0.0,0.0,0.0,0.0,0.0,0.0,0.0,0.0,0.0,0.0,0.0,0.0,0.0,0.0,0.0,0.0,0.0,0.0,2.1496,2.2224,2.1964,2.2238,2.2251,2.2031,2.2158,2.205,2.1756,2.0989,0.0,0.0,0.0,0.0,0.0,0.0,0.0,0.0,0.0,0.0,0.0,0.0,0.0,0.0,0.0,0.0,0.0,0.0,0.0,0.0,0.0,1.7463,1.8582,1.974,1.8798,1.8619,1.9757,0.0,0.0,0.0,0.0,0.0,1.863,1.8373,1.9049,2.0679,2.4906,2.6718,2.624,2.7881,2.7515,2.5614,2.815,2.8526,2.7304,0.0,0.0,0.0,0.0,0.0,0.0,0.0,0.0,0.0,0.0,0.0,0.0,0.0,0.0,0.0,0.0,0.0,0.0,0.0,0.0,0.0,0.0,0.0,0.0,0.0,0.0,0.0,0.0,0.0,0.0,0.0,0.0,0.0,0.0,0.0,0.0,0.0,0.0,0.0,0.0,0.0,1.724,1.8272,0.0,0.0,0.0,0.0,0.0,0.0,0.0,0.0,0.0,0.0,0.0,0.0,0.0,1.688,1.8731,2.0276,2.1628,2.2751,2.4572,2.5396,2.5355,2.5396,2.5529,2.5651,2.4967,0.0,2.2719,2.2599,0.0,0.0,0.0,0.0,0.0,0.0,0.0,0.0,0.0,0.0,0.0,0.0,0.0,0.0,0.0,0.0,0.0,0.0,0.0,0.0,0.0,1.8657,2.0403,2.1273,2.167,2.1828,2.1714,2.0508,0.0,0.0,0.0,1.6358,1.5717,1.6176,1.8472,2.2631,2.5798,2.793,2.9069,3.0102,3.0188,2.9512,3.0985,2.9684,2.6349,2.6133,0.0,0.0,0.0,0.0,0.0,0.0,0.0,0.0,0.0,0.0,0.0,0.0,0.0,0.0,0.0,0.0,0.0,0.0,0.0,0.0,0.0,0.0,0.0,0.0,0.0,0.0,0.0,0.0,0.0,0.0,0.0,0.0,0.0,0.0,0.0,0.0,0.0,0.0,0.0,1.5462,1.6704,1.7089,1.7157,1.668,0.0,0.0,0.0,0.0,0.0,0.0,0.0,0.0,0.0,1.6187,1.6494,1.7653,1.9692,2.1433,2.2979,2.4265,2.5924,2.6734,2.6734,2.6907,2.6382,2.5306,2.5132,2.3803,2.195,2.3301,2.3768,2.3487,0.0,0.0,0.0,0.0,2.0307,2.0628,0.0,0.0,0.0,0.0,0.0,0.0,0.0,0.0,0.0,0.0,0.0,0.0,1.7352,1.995,2.202,2.285,2.367,2.3764,2.2831,2.1366,1.9267,1.6459,1.5697,1.4835,1.3674,1.5425,1.8871,2.4002,2.6545,2.8694,3.0497,3.1285,3.1414,3.1015,3.1349,2.9604,2.638,2.6473,2.5829,2.4707,0.0,0.0,0.0,0.0,0.0,0.0,0.0,0.0,0.0,0.0,0.0,0.0,0.0,0.0,0.0,0.0,0.0,0.0,0.0,0.0,0.0,0.0,0.0,0.0,0.0,0.0,0.0,0.0,0.0,0.0,0.0,0.0,0.0,0.0,0.0,0.0,0.0,1.4281,1.5763,1.5876,1.6605,1.6573,0.0,0.0,0.0,0.0,0.0,0.0,1.5889,1.5964,1.6594,1.7812,1.8202,1.9447,2.1661,2.3114,2.4511,2.5915,2.7083,2.7684,2.7722,2.7433,2.6415,2.4885,2.4515,2.3546,2.2411,2.3866,2.4298,2.4002,2.3809,2.3313,2.2632,2.2358,2.2352,2.2539,0.0,0.0,0.0,0.0,0.0,0.0,0.0,0.0,0.0,0.0,0.0,1.9286,1.8587,2.0577,2.2442,2.3638,2.2747,2.1976,2.1602,2.0448,1.8679,1.6222,1.6249,1.579,1.4657,1.836,2.1714,2.457,2.7916,2.8818,2.7468,2.9149,2.9035,2.7467,2.7802,2.8646,2.98,2.9249,2.8002,2.6244,2.4718,0.0,0.0,0.0,0.0,0.0,0.0,0.0,0.0,0.0,0.0,0.0,0.0,0.0,0.0,0.0,0.0,0.0,0.0,0.0,0.0,0.0,0.0,0.0,0.0,0.0,0.0,0.0,0.0,0.0,0.0,0.0,0.0,0.0,0.0,0.0,0.0,0.0,0.0,1.4412,1.6369,0.0,0.0,0.0,0.0,1.5788,1.6006,1.6632,1.7803,1.8087,1.9259,2.1463,2.1735,2.3156,2.587,2.5992,2.6847,2.8425,2.8494,2.8684,2.8865,2.7009,2.6109,2.5878,2.3533,2.3798,2.5727,2.4607,2.3839,2.3546,2.461,2.4796,2.4332,2.3233,2.3388,2.4048,0.0,0.0,0.0,0.0,0.0,0.0,0.0,0.0,1.4777,1.45,1.6654,1.8209,1.8221,2.2296,2.5277,2.5924,2.6921,2.6955,2.564,2.292,2.02,1.756,1.5648,1.5251,1.6486,2.0303,2.3152,2.4913,2.7035,2.7302,2.5797,2.6404,2.637,2.5813,2.6405,2.7377,2.8554,2.8841,2.8184,2.6988,2.7502,2.6199,0.0,0.0,0.0,0.0,0.0,0.0,0.0,0.0,0.0,0.0,0.0,0.0,0.0,0.0,0.0,0.0,0.0,0.0,0.0,0.0,0.0,0.0,0.0,0.0,0.0,0.0,0.0,0.0,0.0,0.0,0.0,0.0,0.0,0.0,0.0,0.0,0.0,1.5257,1.6957,0.0,1.7237,1.7265,1.7407,1.7502,1.8163,1.89,1.9575,2.0789,2.1957,2.307,2.4005,2.5357,2.7144,2.7046,2.7723,2.9165,2.8978,2.9095,2.9548,2.8686,2.7612,2.6447,2.5535,2.4731,2.4052,2.5114,2.5912,2.6485,2.6506,2.6426,2.6279,2.5891,2.5944,2.6198,0.0,0.0,0.0,0.0,0.0,0.0,0.0,0.0,1.396,1.4127,1.6712,1.881,1.9526,2.4291,2.7499,2.7721,2.8663,2.832,2.6091,2.3086,2.001,1.6909,1.5046,1.5612,1.8909,2.101,2.3045,2.5073,2.5492,2.521,2.4249,2.4249,2.4249,2.4278,2.4972,2.5702,2.6403,2.7099,2.7448,2.7597,2.8505,2.7037,2.435,0.0,0.0,0.0,0.0,0.0,0.0,0.0,0.0,0.0,0.0,0.0,0.0,0.0,0.0,0.0,0.0,0.0,0.0,0.0,0.0,0.0,0.0,0.0,0.0,0.0,0.0,0.0,0.0,0.0,0.0,0.0,0.0,0.0,0.0,1.4675,1.6467,1.6043,1.7896,1.9032,1.8607,1.8783,1.908,1.933,2.0015,2.0592,2.0896,2.2591,2.3857,2.4631,2.6018,2.7393,2.8742,2.8596,2.9002,2.9927,2.9726,2.9833,3.0162,2.9318,2.8117,2.6592,2.609,2.5127,2.4052,2.5621,2.7216,2.8593,2.8056,2.7802,2.7764,2.7764,2.7697,2.7575,0.0,0.0,0.0,0.0,0.0,0.0,0.0,1.3954,1.3924,1.5134,1.8496,2.1242,2.2544,2.6288,2.8721,2.8656,2.7377,2.5357,2.251,2.0601,1.7942,1.4213,1.4629,1.7129,2.177,2.0611,2.158,2.4955,2.3515,2.2785,2.2716,2.273,2.273,2.2756,2.3377,2.3679,2.3741,2.4365,2.5948,2.8037,2.7484,2.6418,2.507,0.0,0.0,0.0,0.0,0.0,0.0,0.0,0.0,0.0,0.0,0.0,0.0,0.0,0.0,0.0,0.0,0.0,0.0,0.0,0.0,0.0,0.0,0.0,0.0,0.0,0.0,0.0,0.0,0.0,0.0,0.0,0.0,0.0,1.2059,1.4808,1.6942,1.6788,1.9177,2.0669,2.0308,2.0594,2.096,2.1214,2.1423,2.1631,2.1887,2.3321,2.4801,2.6268,2.7822,2.9309,3.0755,3.0782,3.0808,3.0808,3.0795,3.0808,3.0776,2.8858,2.7478,2.6575,2.5045,2.51,2.6266,2.6324,2.7623,2.9486,2.9121,2.8828,2.8617,2.8617,2.843,2.8161,0.0,0.0,0.0,0.0,0.0,0.0,0.0,1.3626,1.3355,1.2923,1.7037,1.9984,1.9968,2.43,2.6903,2.6098,2.568,2.4675,2.2912,2.0657,1.809,1.5208,1.7281,1.9373,2.1274,2.2371,2.3309,2.4142,2.3452,2.2432,2.1217,2.1416,2.1503,2.1527,2.2145,2.2962,2.395,2.4409,2.4989,2.5761,2.773,2.7899,2.6939,0.0,0.0,0.0,0.0,0.0,0.0,0.0,0.0,0.0,0.0,0.0,0.0,0.0,0.0,0.0,0.0,0.0,0.0,0.0,0.0,0.0,0.0,0.0,0.0,0.0,0.0,0.0,0.0,0.0,0.0,0.0,1.6852,1.767,1.7036,1.8183,1.9349,2.0076,2.0964,2.148,2.1367,2.1461,2.1556,2.1612,2.1811,2.2471,2.3622,2.4502,2.565,2.7174,2.8736,2.9641,2.9847,3.0688,3.1102,3.1102,3.0889,3.1022,3.141,3.0458,2.997,2.9852,2.9263,2.919,2.9528,2.9546,2.9893,3.0341,2.9362,2.8948,2.8881,2.8881,2.8642,2.822,0.0,0.0,0.0,0.0,0.0,0.0,0.0,1.3304,1.3212,1.3353,1.6769,1.9495,2.0245,2.3673,2.5671,2.5061,2.4338,2.3227,2.155,1.9094,1.754,1.7198,1.8943,2.0547,2.1927,2.2409,2.2778,2.299,2.1911,2.0898,1.9955,2.0025,2.0141,2.0221,2.0696,2.1336,2.2129,2.2558,2.3167,2.3925,2.5704,2.6108,2.5642,2.5497,2.4828,2.3766,2.205,2.2372,2.3307,2.1351,0.0,0.0,0.0,0.0,0.0,0.0,0.0,0.0,0.0,0.0,0.0,0.0,0.0,0.0,0.0,0.0,0.0,0.0,0.0,0.0,0.0,0.0,0.0,0.0,1.8532,1.9826,2.0223,2.0526,2.096,2.165,2.1915,2.2047,2.2047,2.2047,2.2327,2.2952,2.3109,2.3845,2.5425,2.6452,2.7219,2.7604,2.9606,3.0327,2.9673,3.0822,3.141,3.141,3.137,3.1517,3.1837,3.1671,3.141,3.1189,3.1436,3.1249,3.0808,3.1062,3.1089,3.0889,0.0,0.0,0.0,0.0,2.9454,2.891,0.0,0.0,0.0,0.0,0.0,0.0,0.0,1.3243,1.3507,1.5253,1.7371,1.9612,2.1933,2.3862,2.494,2.4771,2.3077,2.1214,1.9262,1.6984,1.6839,1.9479,1.989,2.0978,2.2985,2.1581,2.113,2.1762,1.9861,1.8997,1.9107,1.895,1.8982,1.9161,1.9435,1.9553,1.9607,2.0037,2.1054,2.2377,2.2588,2.2843,2.3055,2.2795,2.2168,2.1365,2.0901,2.1061,2.1412,2.092,0.0,0.0,0.0,0.0,0.0,0.0,0.0,0.0,0.0,0.0,0.0,0.0,0.0,0.0,0.0,0.0,0.0,0.0,0.0,0.0,0.0,0.0,0.0,0.0,2.0666,2.1722,2.2885,2.2654,2.2308,2.2152,2.2264,2.2476,2.271,2.2719,2.3356,2.4928,2.5074,2.5707,2.7306,2.8596,0.0,0.0,0.0,3.1049,2.998,3.1169,3.1805,3.1764,3.2011,3.2158,3.2158,3.2474,3.2166,3.1423,3.226,3.2005,3.1036,3.1604,3.161,3.133,3.0942,3.0808,3.0822,3.0682,3.0314,2.9857,0.0,0.0,0.0,0.0,0.0,0.0,0.0,1.4425,1.4502,1.571,1.8385,2.0502,2.1307,2.3567,2.452,2.3331,2.1101,1.9285,1.8228,1.7301,1.7781,2.0059,2.0616,2.1375,2.2411,2.1815,2.13,2.0922,2.0179,1.9577,1.9118,1.9295,1.9391,1.9445,1.9709,1.9925,2.0081,2.0177,2.0511,2.1007,2.121,2.2695,2.4661,2.3367,2.3631,2.4501,2.3227,2.4046,2.5491,2.3482,2.3402,2.3888,2.2723,2.1618,0.0,0.0,0.0,0.0,0.0,0.0,0.0,0.0,0.0,0.0,0.0,0.0,0.0,0.0,0.0,0.0,0.0,0.0,0.0,2.6031,2.7509,2.8364,2.869,2.7207,2.5149,2.2662,2.2227,2.2809,2.4517,2.4647,2.5409,2.7172,2.7282,2.7972,2.9506,2.9022,2.9119,3.0162,3.071,3.0742,3.0319,3.1724,3.23,3.2024,3.2367,0.0,3.2514,3.2567,3.25,3.2353,3.2527,3.246,3.226,3.238,3.2393,3.2233,3.1183,3.0942,3.1016,2.9827,2.941,2.9284,0.0,0.0,0.0,0.0,0.0,0.0,0.0,1.5351,1.5523,1.6352,1.8066,1.9546,2.0261,2.1224,2.1469,2.0612,1.9174,1.8367,1.85,1.8633,1.9491,2.1232,2.1559,2.1885,2.2284,2.1922,2.1527,2.12,2.0444,2.0036,1.9944,1.9784,1.9838,2.0076,2.0194,2.0313,2.0393,2.0511,2.063,2.0748,2.0996,2.2031,2.3373,2.2578,2.297,2.3836,2.3073,2.3685,2.4663,2.3288,2.3666,2.4516,2.3663,2.3042,2.2337,0.0,0.0,0.0,0.0,0.0,0.0,0.0,0.0,0.0,0.0,0.0,0.0,0.0,0.0,2.0288,2.343,0.0,2.6136,2.8943,2.9809,3.027,3.0738,2.9797,2.8282,2.6207,2.49,2.4973,2.7009,2.6907,2.7505,2.9369,2.9216,2.9873,3.1696,3.1279,3.106,3.1249,3.181,3.169,3.0795,3.2152,3.2661,3.2332,3.2674,3.2808,3.2808,3.2969,3.2973,3.2973,3.2973,3.2973,3.2973,3.2875,3.2808,3.2692,3.167,3.1328,3.1346,3.0676,3.0135,2.9685,0.0,0.0,0.0,0.0,0.0,0.0,0.0,1.6209,1.6578,1.7276,1.8009,1.8786,1.9716,1.9374,1.874,1.79,1.7689,1.8088,1.9329,2.0273,2.1575,2.3228,2.3328,2.3354,2.3404,2.2767,2.2404,2.2328,2.1066,2.0578,2.0891,2.031,2.0419,2.1062,2.0761,2.0821,2.1139,2.0982,2.0931,2.0996,2.1243,2.148,2.1696,2.1697,2.1955,2.2288,2.2288,2.2482,2.2665,2.2482,2.3389,2.4569,2.4345,2.443,2.412,2.1846,2.0959,0.0,0.0,0.0,0.0,0.0,0.0,0.0,0.0,1.7969,1.9345,2.1843,2.2917,2.4446,2.7951,2.8636,2.9442,3.1838,3.1988,3.2076,3.2644,3.2205,3.1613,3.1161,2.8573,2.7613,2.9637,2.923,2.965,3.1605,3.134,3.1852,3.359,3.3668,3.324,3.2353,3.3146,3.2963,3.1757,3.2746,3.3116,3.2768,3.3013,3.312,3.3066,3.3307,3.3414,3.3414,3.3414,3.3414,3.3387,3.316,3.3066,3.299,3.2209,3.1822,3.1711,3.1509,3.0882,3.0206,0.0,0.0,0.0,0.0,0.0,0.0,0.0,0.0,1.7613,1.8862,1.9824,2.0504,2.088,2.0858,1.9569,1.6441,1.7218,1.8606,2.0315,2.1857,2.3973,2.6811,2.6906,2.7072,2.7369,2.5875,2.4901,2.4545,2.2552,2.1428,2.1146,2.0723,2.1357,2.2749,2.1257,2.1525,2.3004,2.1512,2.1028,2.1254,2.1491,2.1728,2.1976,2.2138,2.2245,2.2288,2.2288,2.2482,2.2708,2.2858,2.3194,2.3577,2.3555,2.311,2.2241,2.0302,1.9088,1.7826,1.5371,1.4677,1.4907,1.5898,1.8155,2.0466,0.0,2.4286,2.6601,2.7388,2.8198,2.9788,3.3311,3.4063,3.52,3.823,3.8565,3.8284,3.7919,3.6039,3.5138,3.6536,3.1939,2.9497,3.182,3.1277,3.1655,3.3765,3.4144,3.4381,3.4603,3.4603,3.4549,3.4467,3.4295,3.4015,3.3587,3.3975,3.3881,3.332,3.3641,3.3641,3.336,3.34,3.3414,3.3414,3.3414,3.3414,3.3414,3.3374,3.336,3.331,3.2733,3.2219,3.1667,3.0726,3.0304,3.0107,0.0,0.0,0.0,0.0,0.0,0.0,0.0,0.0,0.0,1.8786,1.9432,1.9605,1.9001,1.8151,1.6769,1.4667,1.6006,1.7943,2.0207,2.2011,2.433,2.7371,2.7482,2.7666,2.7997,2.7296,2.6881,2.6691,2.559,2.4918,2.4701,2.4275,2.4389,2.4945,2.4454,2.4711,2.5329,2.3624,2.3523,2.4408,2.2386,2.2976,2.4955,2.4191,2.3955,2.3863,2.2111,2.1566,0.0,2.176,2.1868,2.2072,2.2762,2.206,2.081,1.9744,1.8573,1.7416,1.6367,1.7546,1.9184,1.9746,2.2489,2.5256,2.5944,2.7263,2.8902,3.1032,3.2029,3.3474,3.6772,3.7261,3.7871,4.0017,3.969,3.9256,3.9521,3.8427,3.7802,3.8345,3.4918,3.2875,3.3899,3.3649,3.3684,3.4257,3.475,3.5164,3.5564,3.5525,3.5525,3.5578,3.5404,3.5124,3.4656,3.4776,3.4523,3.3948,3.4068,3.4068,3.3935,3.3761,3.3587,3.3414,3.3414,3.3521,3.3681,3.3494,3.3306,3.3149,3.2425,3.1819,3.129,3.0814,3.0477,3.0189,0.0,0.0,0.0,0.0,0.0,0.0,0.0,0.0,0.0,0.0,1.9247,1.9067,1.7906,1.6489,1.52,1.4224,1.5655,1.7841,2.0748,2.2679,2.5281,2.8796,2.9038,2.9238,2.9599,2.9253,2.9071,2.9071,2.8306,2.7888,2.7767,2.7259,2.7174,2.7487,2.7067,2.7175,2.7481,2.5638,2.56,2.6534,2.4116,2.4776,2.7106,2.6216,2.5448,2.4626,2.2447,2.1336,2.0856,2.0533,2.064,2.1007,2.162,2.1146,2.017,1.9347,1.8433,1.7874,1.8775,2.0856,2.2961,2.3765,2.6685,2.9468,2.9923,3.0736,3.2141,3.4826,3.5732,3.6823,3.9427,3.9657,3.9784,4.0896,4.0043,3.9443,3.9979,3.9522,3.8952,3.842,3.6406,3.4914,3.4408,3.4619,3.4747,3.4656,3.5151,3.5658,3.6166,3.6112,3.6112,3.6193,3.6112,3.5872,3.5444,3.5431,3.5191,3.4683,3.4603,3.4523,3.4429,3.4135,3.3881,3.3668,3.3668,3.3788,3.3988,3.3761,3.3484,3.3146,3.2328,3.1642,3.1072,3.092,3.0579,3.0214,0.0,0.0,0.0,0.0,0.0,0.0,0.0,0.0,0.0,0.0,0.0,0.0,0.0,1.7621,1.6538,1.5799,1.6722,1.8905,2.2585,2.4441,2.7573,3.2334,3.2921,3.3296,3.3596,3.2406,3.1792,3.1792,3.0092,2.9238,2.9212,2.8365,2.8863,3.038,2.7979,2.7814,2.9206,2.7126,2.628,2.6373,2.6826,2.7106,2.7255,2.7814,2.618,2.3623,2.3548,2.2393,2.0727,1.9548,1.9924,2.0748,1.9876,2.021,2.0517,1.8828,1.834,1.9182,2.2892,2.3671,2.4178,2.7002,2.9992,3.247,3.3646,3.5984,3.8229,3.9369,3.9656,4.0084,4.1465,4.1468,4.1357,4.1703,4.0862,4.0035,3.9745,3.901,3.8075,3.6831,3.5749,3.436,3.2551,3.3342,3.4362,3.5511,3.5872,3.6179,3.6473,3.6219,3.6206,3.6473,3.6219,3.6059,3.6046,3.6046,3.5899,3.5591,3.5311,3.5017,3.4788,3.4442,3.4295,3.4295,3.4295,3.4295,3.4309,3.4295,3.3935,3.3433,3.2891,3.2146,3.1306,3.0793,3.0431,3.0214,0.0,0.0,0.0,0.0,0.0,0.0,0.0,0.0,0.0,0.0,0.0,0.0,0.0,0.0,0.0,0.0,1.7276,1.8866,2.1853,2.4183,2.7052,3.0669,3.2638,3.382,3.4196,3.4014,3.3965,3.3965,3.3375,3.2821,3.2266,3.1716,3.1489,3.1479,3.0611,3.0554,3.0947,2.9143,2.9424,3.0845,2.8246,2.8988,3.1456,2.9068,2.7373,2.5913,0.0,2.0577,1.8261,1.7829,1.7992,1.8433,1.9032,1.9508,1.975,1.9363,2.0643,2.2421,2.3538,2.6783,3.0082,3.1293,3.4455,3.7365,3.778,3.8604,3.9403,3.999,3.9371,3.8799,3.9037,3.8783,3.8735,3.9323,3.8547,3.8371,3.9821,3.8063,3.6834,3.7272,3.56,3.4548,3.4798,3.427,3.3975,3.4111,3.5538,3.6473,3.6739,3.6687,3.6687,3.6739,3.6687,3.654,3.6366,3.6366,3.6206,3.5925,3.5819,3.5618,3.5324,3.503,3.479,3.4603,3.4402,3.4429,3.4603,3.4402,3.3861,3.3225,3.2826,3.2078,3.1124,3.0917,3.0696,3.0455,0.0,0.0,0.0,0.0,0.0,0.0,0.0,0.0,0.0,0.0,0.0,0.0,0.0,0.0,0.0,0.0,0.0,1.9085,2.1436,2.3275,2.557,2.8565,3.0446,3.1525,3.18,3.2552,3.3015,3.3206,3.4111,3.4389,3.4017,3.3993,3.4026,3.407,3.2878,3.2666,3.3103,3.1011,3.1071,3.2316,2.9326,2.9818,3.1984,2.8762,2.6721,0.0,2.2051,1.8954,1.6428,1.6752,1.7119,1.7629,1.8714,1.9229,1.9869,2.1971,2.3668,2.5286,2.7399,3.0978,3.4378,3.5471,3.7803,3.9817,3.9817,3.9912,4.0039,4.0086,3.9482,3.8767,3.8147,3.7639,3.7591,3.8433,3.76,3.7684,3.9998,3.8242,3.6851,3.7289,3.5627,3.4561,3.4866,3.4172,3.3734,3.3697,3.4977,3.5939,3.6433,3.6273,3.6433,3.7088,3.6981,3.6805,3.6647,3.6647,3.6513,3.6233,3.6233,3.6072,3.5778,3.5485,3.5017,3.4456,3.4576,3.4496,3.4295,3.4329,3.3902,3.3205,3.2818,3.2053,3.1143,3.1143,3.0914,3.0524,0.0,0.0,0.0,0.0,0.0,0.0,0.0,0.0,0.0,0.0,0.0,0.0,0.0,0.0,0.0,0.0,0.0,0.0,2.1422,2.1995,2.3508,2.6239,2.6893,2.7198,2.7215,2.8673,2.9635,3.0031,3.2526,3.3919,3.4263,3.4914,3.605,3.7406,3.4256,3.3742,3.5047,3.2299,3.1004,3.0686,2.9949,2.9468,2.8956,2.6984,2.4425,2.1686,2.01,1.7765,1.551,1.6417,1.7465,1.8521,1.9224,1.976,2.1168,2.6392,2.732,2.8,3.3913,3.5923,3.6908,3.926,3.9912,3.9928,3.9928,4.0102,4.0197,3.9817,3.9863,3.9673,3.8529,3.7798,3.775,3.8799,3.7894,3.7831,4.0206,3.9301,3.7978,3.6822,3.5783,3.4561,3.3098,3.3327,3.3737,3.4309,3.4389,3.4776,3.5578,3.5164,3.5645,3.7342,3.7088,3.6885,3.6912,3.6885,3.6794,3.654,3.654,3.638,3.6112,3.5805,3.5057,3.4042,3.4857,3.4563,3.3537,3.4098,3.3975,3.3445,3.286,3.2116,3.1409,3.1409,3.1083,3.0597,0.0,0.0,0.0,0.0,0.0,0.0,0.0,0.0,0.0,0.0,0.0,0.0,0.0,0.0,0.0,0.0,0.0,0.0,2.0601,2.2308,2.3664,2.4394,2.7059,2.8674,2.9038,3.0377,3.1307,3.1778,3.2434,3.2659,3.2526,3.2402,3.2418,3.2438,3.0333,2.963,2.9896,2.8241,2.7918,2.8471,2.7757,2.7476,2.7271,2.497,2.3018,2.1191,1.8659,1.7704,1.7525,1.7138,1.8922,2.1781,2.4409,2.5737,2.6652,2.8675,3.1168,3.3411,3.4477,3.7131,3.98,4.0705,4.1118,4.1309,4.1309,4.0975,4.0276,3.8878,3.7417,3.5732,3.3635,3.3333,3.3897,3.5585,3.5898,3.6729,3.9032,3.822,3.7135,3.6204,3.607,3.5682,3.497,3.519,3.5191,3.4683,3.5257,3.5819,3.6259,3.6353,3.6687,3.7398,3.6874,3.6834,3.7275,3.6992,3.6845,3.6779,3.6779,3.6739,3.6672,3.6378,3.6006,3.5511,3.5525,3.5217,3.4711,3.4439,3.3975,3.3445,3.286,3.2238,3.1698,3.1698,3.1481,3.1336,0.0,0.0,0.0,0.0,0.0,0.0,0.0,0.0,0.0,0.0,0.0,0.0,0.0,0.0,0.0,0.0,0.0,0.0,0.0,2.25,2.3456,2.3438,2.5338,2.6536,2.6786,2.8236,2.9097,2.9279,3.0517,3.102,3.0751,3.1037,3.1231,3.1218,2.9158,2.8431,2.8664,2.688,2.636,0.0,0.0,2.5414,2.4609,2.2395,2.1113,2.0204,1.8048,1.8564,2.0462,2.151,2.314,2.5328,2.8758,2.9708,3.0029,3.2529,3.4573,3.6209,3.7035,3.9101,4.1103,4.1468,4.1468,4.1134,4.0213,3.9832,3.8974,3.6622,3.5415,3.4191,3.2205,3.1999,3.2782,3.4818,3.5592,3.6679,3.8798,3.8229,3.7334,3.6589,3.6333,3.6072,3.5819,3.6086,3.6006,3.5444,3.5431,3.5685,3.6099,3.6153,3.654,3.7342,3.6941,3.6901,3.7382,3.7088,3.6952,3.7128,3.6952,3.6885,3.6885,3.6592,3.6139,3.5551,3.5591,3.5086,3.4227,3.4031,3.3604,3.302,3.2488,3.2648,3.326,3.326,3.3703,3.4267,0.0,0.0,0.0,0.0,0.0,0.0,0.0,0.0,0.0,0.0,2.0604,0.0,0.0,0.0,0.0,0.0,0.0,0.0,0.0,0.0,2.3086,2.3086,2.3217,2.3321,2.338,2.4861,2.5602,2.5565,2.8026,2.9153,2.9033,2.992,3.0662,3.1172,2.8758,2.8128,2.8655,2.6371,2.5285,2.5054,2.445,2.3315,2.1803,0.0,1.9396,1.9176,1.8357,2.0126,2.3411,2.7179,2.8357,2.8881,3.2499,3.2849,3.2706,3.6635,3.7464,3.7655,3.9959,4.0975,4.1468,4.1719,4.1341,4.0372,3.8513,3.8036,3.7162,3.4223,3.3873,3.3699,3.2444,3.2364,3.3176,3.5258,3.6113,3.7055,3.8645,3.851,3.797,3.7261,3.6583,3.6205,3.63,3.6433,3.6433,3.6259,3.5538,3.5231,3.5725,3.5538,3.5992,3.7235,3.7088,3.7088,3.7275,3.7088,3.7059,3.7315,3.7088,3.6925,3.6885,3.6687,3.5992,3.5069,3.5525,3.4782,3.3304,3.348,3.3189,3.2591,3.2033,3.2942,3.465,3.465,3.5735,3.6782,0.0,0.0,0.0,0.0,0.0,0.0,0.0,0.0,0.0,0.0,2.2165,2.1177,0.0,0.0,0.0,0.0,0.0,0.0,0.0,0.0,0.0,2.3086,2.3844,2.4437,2.4828,2.5885,2.6578,2.6963,2.7427,2.7657,2.7632,2.7043,2.6836,2.688,2.4908,2.4094,2.4158,2.2714,2.2285,2.2505,2.2091,2.1509,2.0826,2.0484,0.0,0.0,2.0566,2.2119,2.4344,2.9184,3.095,3.1856,3.5653,3.7112,3.7432,3.7957,3.9037,3.9974,3.9593,4.0544,4.1719,4.1782,4.1481,4.1055,4.0388,3.8497,3.64,3.4684,3.3047,3.176,3.1274,3.2117,3.3394,3.4903,3.5928,3.6599,3.6653,3.7728,3.8003,3.6663,3.69,3.7251,3.7478,3.6901,3.6687,3.7128,3.7021,3.6767,3.638,3.6485,3.6592,3.6647,3.7088,3.7088,3.6647,3.7088,3.7195,3.7008,3.7195,3.7168,3.6885,3.6845,3.662,3.6206,3.6313,3.5774,3.4774,3.4094,3.3466,3.285,3.2106,3.202,3.2381,3.2381,3.2279,3.2324,0.0,0.0,0.0,0.0,0.0,0.0,0.0,2.4186,2.4369,2.4816,2.4314,2.3448,2.225,2.2314,2.2448,0.0,0.0,0.0,0.0,0.0,0.0,0.0,2.4999,2.5317,2.5551,2.6238,2.6715,2.6933,0.0,2.6693,2.621,2.5725,2.4968,2.3994,2.3256,2.2709,2.2282,2.1753,2.1657,2.1917,2.1953,2.1401,2.0607,0.0,0.0,0.0,2.2361,2.3855,2.5552,2.8913,3.0743,3.2475,3.7303,3.8735,3.8703,3.8719,3.9704,4.0594,3.9736,4.0658,4.1798,4.1798,4.1436,4.0467,3.829,3.6892,3.5256,3.238,3.1284,3.0839,3.0893,3.1608,3.2739,3.4479,3.5775,3.6627,3.6863,3.7656,3.7882,3.7128,3.7073,3.711,3.7088,3.6845,3.6794,3.6914,3.7048,3.7088,3.6981,3.7382,3.7342,3.6754,3.7301,3.7408,3.6981,3.7235,3.7382,3.7352,3.7529,3.7448,3.7155,3.7155,3.7008,3.6659,3.6238,3.5406,3.4321,3.369,3.285,3.1961,3.1853,3.2476,3.3538,3.3678,3.4089,3.4515,0.0,0.0,0.0,0.0,0.0,0.0,0.0,2.5499,2.5687,2.6277,2.6256,2.5818,2.4811,2.41,2.367,0.0,0.0,0.0,0.0,0.0,0.0,0.0,0.0,0.0,2.5906,0.0,0.0,2.6282,2.639,0.0,0.0,0.0,0.0,0.0,2.2545,2.2283,2.1717,2.1836,2.1994,0.0,0.0,2.1988,2.1145,0.0,0.0,0.0,0.0,2.4879,2.6263,2.8252,2.9843,3.1824,3.6969,3.8306,3.8147,3.8815,3.9689,4.0388,4.007,4.0896,4.1798,4.1798,4.1373,3.9974,3.64,3.5526,3.4414,3.0728,3.0092,3.0442,3.1211,3.1474,3.2227,3.4204,3.5182,3.6069,3.7142,3.7268,3.7407,3.7829,3.7468,3.7195,3.7168,3.7195,3.7155,3.6981,3.7195,3.7382,3.7569,3.8067,3.7929,3.7099,3.7555,3.7635,3.7301,3.7422,3.7555,3.7702,3.7849,3.7742,3.7489,3.7422,3.7275,3.6952,3.6108,3.4922,3.3564,3.3326,3.2336,3.1131,3.1674,3.2935,3.4517,3.4579,3.5338,3.5991,0.0,0.0,0.0,0.0,0.0,0.0,0.0,2.6476,2.6802,2.7693,2.7454,2.7279,2.758,2.6429,2.5454,0.0,0.0,0.0,0.0,0.0,0.0,0.0,0.0,0.0,0.0,0.0,0.0,2.5237,2.5652,0.0,0.0,0.0,0.0,0.0,0.0,2.2026,2.1989,2.2426,0.0,0.0,0.0,0.0,0.0,0.0,0.0,0.0,0.0,2.4577,2.5612,2.8329,2.9361,3.0076,3.3476,3.5145,3.6177,3.7814,3.8799,3.9561,4.0451,4.1261,4.1798,4.1798,4.1497,4.0594,3.802,3.6209,3.4525,3.2539,3.088,3.0458,3.2451,3.2523,3.2817,3.4325,3.3703,3.3792,3.5967,3.5749,3.6204,3.8289,3.8298,3.8495,3.9239,3.8642,3.825,3.8504,3.8544,3.8437,3.824,3.8281,3.8103,3.7742,3.7782,3.7555,3.6981,3.7459,3.7662,3.7422,3.7969,3.8076,3.7782,3.7489,3.7382,3.7286,3.6436,3.5103,3.3602,3.3738,3.2831,3.1409,3.1952,3.2265,3.2427,3.1857,3.1424,3.1014,0.0,0.0,0.0,0.0,0.0,0.0,2.7258,2.7083,2.7217,2.8492,2.8115,2.7915,2.8418,2.7989,2.733,2.6536,0.0,0.0,0.0,0.0,0.0,0.0,0.0,0.0,0.0,0.0,2.6066,2.5933,2.5194,0.0,0.0,0.0,0.0,0.0,0.0,2.2474,2.2681,2.2899,0.0,0.0,0.0,0.0,0.0,0.0,0.0,0.0,0.0,0.0,2.5898,2.6787,2.7661,2.8583,2.9801,3.095,3.2269,3.4652,3.6908,3.8608,3.8592,4.0132,4.1798,4.1798,4.1211,3.9943,3.7067,3.5526,3.4032,3.1649,3.0563,3.0442,3.1545,3.1257,3.1152,3.2032,3.1714,3.2174,3.4483,3.4765,3.5628,3.8101,3.8359,3.8455,3.8771,3.8477,3.8348,3.8437,3.8437,3.8691,3.9306,3.9306,3.9012,3.8339,3.8357,3.8063,3.7432,3.7702,3.7742,3.7635,3.825,3.837,3.8076,3.7782,3.7555,3.7312,3.6073,3.4561,3.2889,3.3221,3.2288,3.0805,3.1976,3.2435,3.2404,3.1958,3.1424,3.0817,0.0,0.0,0.0,0.0,0.0,2.6862,2.7671,2.7475,2.7634,2.874,2.8558,2.8443,2.8771,2.8792,2.8507,2.7807,2.7304,0.0,0.0,0.0,0.0,0.0,0.0,0.0,0.0,0.0,2.5563,2.5581,2.4632,2.3836,0.0,0.0,2.2807,2.22,0.0,0.0,0.0,0.0,0.0,0.0,0.0,0.0,0.0,0.0,0.0,0.0,0.0,0.0,0.0,0.0,0.0,2.8793,2.8877,2.9526,3.0587,3.2369,3.5033,3.7401,3.7321,3.945,4.1655,4.1766,4.0896,3.9196,3.6257,3.4859,3.3429,3.0728,3.0135,3.0283,3.0632,3.0112,2.9856,3.0504,3.0615,3.13,3.3266,3.3892,3.4981,3.74,3.7638,3.7863,3.8477,3.8691,3.8856,3.8918,3.8838,3.9199,4.0107,4.0174,3.9754,3.9012,3.8985,3.8691,3.8046,3.8076,3.8076,3.8046,3.8504,3.8437,3.7919,3.7929,3.7526,3.6675,3.5755,3.4219,3.2515,3.2943,3.2145,3.0817,3.2181,3.2724,3.2626,3.2032,3.1547,3.1124,0.0,0.0,0.0,0.0,0.0,0.0,2.7245,2.7715,2.8076,2.8364,2.8783,2.9001,2.8816,2.8792,2.8792,2.8792,2.8286,0.0,0.0,0.0,0.0,0.0,0.0,0.0,0.0,0.0,2.4426,2.3414,2.3895,2.3601,2.2611,2.2611,2.2585,2.2603,0.0,0.0,0.0,0.0,0.0,0.0,0.0,0.0,0.0,0.0,0.0,0.0,0.0,0.0,0.0,0.0,0.0,0.0,0.0,3.2069,3.2348,3.164,3.3397,3.5951,3.7335,3.945,4.1404,4.1703,4.0481,3.8592,3.613,3.4535,3.2793,3.0309,2.9801,2.9897,3.023,2.9713,2.9524,3.0458,3.0811,3.1372,3.2433,3.3149,3.4157,3.5891,3.6099,3.6901,3.8886,3.9607,4.0147,4.0441,4.0187,4.0147,4.0502,4.0481,4.0247,3.9599,3.9599,3.9306,3.8718,3.866,3.866,3.866,3.8718,3.8103,3.7036,3.7919,3.7168,3.5258,3.5506,3.4507,3.275,3.3194,3.2748,3.1867,3.2652,3.2978,3.2855,3.1646,3.1213,3.1091,0.0,0.0,0.0,0.0,0.0,0.0,0.0,2.7493,2.7547,2.8295,2.8097,2.8033,2.8472,2.8516,2.8305,2.7746,2.7273,0.0,0.0,0.0,0.0,0.0,0.0,0.0,0.0,0.0,2.4337,2.4286,2.4471,2.4158,2.3358,2.3878,2.3703,2.2946,2.3066,2.3254,0.0,0.0,0.0,0.0,0.0,0.0,2.8565,0.0,0.0,0.0,0.0,0.0,0.0,0.0,0.0,0.0,0.0,0.0,0.0,3.3074,3.4008,3.4907,3.459,3.5935,3.7417,3.7528,3.6781,3.5542,3.381,3.2714,3.1633,3.0103,3.0231,3.0725,3.1052,3.1165,3.184,3.3867,3.4333,3.4659,3.538,3.6403,3.7817,3.9948,4.1392,4.2527,4.3118,4.0871,4.057,4.3446,4.099,3.9687,4.0441,4.0481,4.0401,4.0214,3.9813,3.9519,3.9306,3.8905,3.8718,3.8718,3.8718,3.8103,3.6981,3.7863,3.7168,3.5191,3.5493,3.4507,3.2722,3.3218,3.2748,3.1904,3.2881,3.302,3.2541,3.1789,3.1183,3.0756,0.0,0.0,0.0,0.0,0.0,0.0,0.0,2.7495,2.7507,2.8037,2.7863,2.7916,2.8433,2.8183,2.781,2.7395,2.6739,0.0,0.0,0.0,0.0,0.0,0.0,0.0,0.0,2.427,2.4397,2.4992,2.5451,2.551,2.5265,2.5717,2.5454,2.4626,2.477,2.4969,0.0,0.0,0.0,0.0,0.0,0.0,3.0649,0.0,0.0,0.0,0.0,0.0,0.0,0.0,0.0,0.0,0.0,0.0,0.0,0.0,3.4914,3.5273,3.466,3.5634,3.6834,3.6853,3.6029,3.4826,3.3352,3.2517,3.1746,3.0502,3.1493,3.2442,3.2025,3.2105,3.2745,3.4399,3.5325,3.6042,3.6756,3.7632,3.8464,3.9068,4.2991,4.4913,4.3001,4.1914,4.1894,4.3281,4.1068,3.9893,4.0441,4.0481,4.0481,4.0481,4.0107,3.9933,3.9933,3.9346,3.9052,3.9052,3.8838,3.8046,3.6912,3.7742,3.6936,3.4878,3.5362,3.4619,0.0,3.3423,3.3147,3.2616,3.3202,3.3028,3.2411,3.1804,3.124,3.063,0.0,0.0,0.0,0.0,0.0,0.0,0.0,2.7621,2.7836,2.7583,2.8037,2.8448,2.8656,2.7868,2.7422,2.7584,0.0,0.0,0.0,0.0,0.0,0.0,0.0,0.0,0.0,2.3737,2.4695,2.5592,2.6672,2.7444,2.7891,2.791,2.7667,2.7224,2.7571,2.7774,0.0,0.0,0.0,0.0,0.0,0.0,0.0,0.0,0.0,0.0,0.0,0.0,0.0,0.0,0.0,0.0,0.0,0.0,0.0,0.0,0.0,0.0,0.0,3.7806,3.8547,3.8481,3.7264,3.5692,3.4333,3.3584,0.0,3.1553,3.3451,3.4841,3.3375,3.2981,3.2974,3.3279,3.4851,3.6241,3.6946,3.7598,3.7283,3.5246,4.2027,4.4963,4.0134,4.2765,4.3698,4.1047,4.0636,4.0481,4.0481,4.0481,4.0481,4.0481,4.0481,4.0481,4.0481,3.9893,3.9632,3.9657,3.9003,3.8093,3.6958,3.7571,3.6521,3.4372,3.5156,3.4856,3.3823,3.3823,3.3823,3.3787,3.3497,3.2996,3.239,3.177,3.1127,3.0563,0.0,0.0,0.0,0.0,0.0,0.0,0.0,0.0,0.0,0.0,2.7767,2.8185,2.8448,2.8589,2.8428,0.0,0.0,0.0,0.0,0.0,0.0,0.0,0.0,0.0,0.0,2.5138,2.6081,2.657,2.7739,2.8424,2.8662,2.8912,2.8683,2.8088,2.8186,2.8668,2.9422,0.0,0.0,0.0,0.0,0.0,0.0,0.0,0.0,0.0,3.6814,3.7505,0.0,0.0,0.0,0.0,0.0,0.0,0.0,0.0,3.815,3.7848,3.7967,0.0,3.4989,3.4645,3.4033,3.3462,0.0,3.2914,3.3074,3.4008,3.5427,3.659,3.6868,3.7092,3.7773,3.941,4.04,4.0351,3.8602,4.1533,4.3398,4.2037,4.6121,4.8048,4.5551,4.3048,4.224,4.3922,4.1832,4.0481,4.0481,4.0481,4.0481,4.0481,4.0481,4.0481,4.0481,3.9893,3.9718,3.995,3.9121,3.8228,3.7282,3.7656,3.6625,3.4651,3.5218,3.4979,3.4088,3.4088,3.4088,3.4052,3.3321,3.267,3.2011,3.1206,3.0506,3.0008,0.0,0.0,0.0,0.0,0.0,0.0,0.0,0.0,0.0,0.0,0.0,2.813,2.8505,2.8588,0.0,0.0,0.0,0.0,0.0,0.0,0.0,0.0,0.0,0.0,2.4816,2.632,2.7296,2.7713,2.907,2.9985,3.0508,3.0668,3.0584,3.0216,2.9983,3.0167,3.075,3.1503,3.2303,0.0,3.3835,0.0,0.0,0.0,0.0,0.0,3.7374,3.8029,0.0,3.8991,3.9318,3.9473,0.0,0.0,0.0,0.0,3.8904,3.867,3.8321,3.6842,3.5442,3.5817,3.5067,3.4295,3.4573,3.4417,3.4554,3.5742,3.6885,3.7868,3.8555,3.8564,3.9244,4.1442,4.1207,4.0688,4.0577,4.5102,4.7431,4.4765,4.877,5.049,4.7419,4.6772,4.6493,4.6434,4.4877,4.3937,4.3937,4.3937,4.3937,4.3937,4.3667,4.247,4.0314,3.9813,3.934,3.886,3.8773,3.8025,3.6774,3.7181,3.6519,3.5038,3.4807,3.4569,3.4342,3.4013,3.4016,3.4306,3.3292,3.2513,3.1921,3.0991,3.0348,2.9828,0.0,0.0,0.0,0.0,0.0,0.0,0.0,0.0,0.0,0.0,0.0,0.0,0.0,0.0,0.0,0.0,0.0,0.0,0.0,0.0,0.0,0.0,0.0,2.5998,2.6033,2.7471,2.853,2.9061,3.0356,3.1564,3.259,3.259,3.259,3.2569,3.2154,3.1844,3.1778,3.2765,3.3251,3.3382,3.4272,0.0,0.0,0.0,0.0,0.0,0.0,0.0,0.0,3.9525,3.9962,4.0247,3.9888,0.0,0.0,0.0,0.0,0.0,3.8395,3.7805,3.7682,3.8903,3.7637,3.6258,3.7005,3.6556,3.6305,3.7328,3.8376,3.9258,3.9883,3.9751,4.012,4.1909,4.065,4.0565,4.3614,4.8263,5.0072,4.6646,5.0869,5.2361,4.8023,5.0784,5.154,4.8233,4.7998,4.7998,4.7998,4.8046,4.8019,4.7896,4.7444,4.504,4.0506,4.015,3.9419,3.8151,3.8449,3.776,3.6357,3.6551,3.625,3.5478,3.446,3.4221,3.4629,3.3952,3.4016,3.4571,3.3296,3.2514,3.1921,3.09,3.0224,2.9828,0.0,0.0,0.0,0.0,0.0,0.0,0.0,0.0,0.0,0.0,0.0,0.0,0.0,0.0,0.0,0.0,0.0,0.0,0.0,0.0,0.0,3.0191,2.8333,2.7386,2.7565,2.9065,3.0073,3.0553,3.1204,3.2219,3.3573,3.3573,3.3573,3.3573,3.3508,3.3027,3.2328,3.3289,3.3923,3.431,3.4856,0.0,0.0,0.0,0.0,0.0,0.0,0.0,0.0,4.0028,4.0246,4.0279,4.0214,0.0,0.0,0.0,0.0,0.0,3.8291,3.8445,3.885,3.9457,3.8022,3.6755,3.8056,3.714,3.6844,3.9927,4.0938,4.1777,4.332,4.4524,4.4987,4.4139,4.3902,4.5423,5.0013,5.0998,5.1589,5.2506,5.3686,5.3353,5.0639,4.9929,4.9139,4.8073,4.7998,4.7998,4.7998,4.8327,4.8138,4.7264,4.7486,4.5935,4.2462,4.2136,4.1819,4.1521,3.9109,3.7918,3.7839,3.6609,3.6,3.5775,3.5117,3.4837,3.4956,3.4835,3.4801,3.479,3.3106,3.2436,3.216,3.0558,2.9884,2.9792,0.0,0.0,0.0,0.0,0.0,0.0,0.0,0.0,0.0,0.0,0.0,0.0,0.0,0.0,0.0,0.0,0.0,0.0,0.0,0.0,0.0,3.1205,2.9916,2.9226,2.9206,3.0258,3.0888,3.1108,3.2227,3.3399,3.4556,3.4556,3.4425,3.4163,3.3639,3.3185,3.2835,3.377,3.4288,3.455,0.0,0.0,0.0,0.0,0.0,0.0,0.0,0.0,0.0,0.0,4.0312,4.0312,4.0312,0.0,0.0,0.0,0.0,0.0,3.857,3.8515,3.915,4.1576,4.0051,3.8514,4.0694,3.922,3.8652,4.3047,4.1875,4.1094,4.4473,4.5236,4.5557,4.6145,4.8999,5.1227,5.1446,5.2406,5.3566,5.4863,5.5157,5.4739,5.3512,5.3433,5.3093,5.213,5.2055,5.2158,5.2423,5.2612,5.2406,5.1812,5.1426,5.032,4.8291,4.5422,4.2509,3.9655,3.8378,3.7347,3.6511,3.6104,3.5744,3.5356,3.4639,3.4571,3.4992,3.4511,3.4409,3.4346,3.3036,3.2273,3.1688,3.0342,2.9846,2.9997,0.0,0.0,0.0,0.0,0.0,0.0,0.0,0.0,0.0,0.0,0.0,0.0,0.0,0.0,0.0,0.0,0.0,0.0,0.0,0.0,3.1315,3.1627,3.1376,3.1029,3.0629,3.1261,3.1828,3.2272,3.3707,3.4859,3.5714,3.5714,3.5343,3.4637,3.406,3.3644,3.3491,3.4447,3.4899,3.5074,0.0,0.0,0.0,0.0,0.0,0.0,0.0,0.0,0.0,0.0,0.0,0.0,0.0,0.0,0.0,3.9822,3.9527,3.921,3.8814,3.8683,3.9344,4.2216,4.0816,3.969,4.3429,4.1354,4.0078,4.5371,4.3223,4.1621,4.5683,4.6055,4.6491,4.8729,5.3164,5.5457,5.3097,5.4369,5.5859,5.6601,5.6699,5.6468,5.5903,5.6813,5.6873,5.5587,5.5491,5.5713,5.6153,5.6111,5.5965,5.5631,5.4725,5.33,5.1372,4.7352,4.3143,3.8913,3.8007,3.6756,3.5314,3.5593,3.5766,3.5799,3.4572,3.4761,3.5762,3.4593,3.4034,3.3923,3.3034,3.2051,3.0965,3.0092,2.9932,3.0159,0.0,0.0,0.0,0.0,0.0,0.0,0.0,0.0,0.0,0.0,0.0,0.0,0.0,0.0,0.0,0.0,0.0,0.0,0.0,0.0,3.1891,3.242,3.2879,3.2632,3.1614,3.2129,3.332,3.5209,3.5896,3.6575,3.7251,3.7251,3.6479,3.5168,3.5612,3.5255,3.4441,3.5481,3.6158,3.6588,3.7068,0.0,0.0,0.0,0.0,0.0,0.0,0.0,0.0,0.0,0.0,0.0,0.0,0.0,4.0214,3.9822,3.9691,3.9527,3.888,3.9311,3.9806,3.9151,3.811,3.8948,4.5381,4.2545,4.0156,4.5742,4.6269,4.6348,4.8301,4.9277,5.0479,5.2632,5.4331,5.6021,5.7714,5.8096,5.8418,5.8887,5.8945,5.8519,5.7362,5.7325,5.6873,5.5587,5.5491,5.5713,5.6153,5.5961,5.5555,5.4963,5.4381,5.1796,4.7167,4.5929,4.4645,4.3288,3.8932,3.6513,3.5829,3.5285,3.6292,3.8232,3.5925,3.6217,3.8142,3.5833,3.4569,3.3923,3.3034,3.1648,3.0137,2.9914,2.9932,3.0159,0.0,0.0,0.0,0.0,0.0,0.0,0.0,0.0,0.0,0.0,0.0,0.0,0.0,0.0,0.0,0.0,0.0,0.0,0.0,3.1778,3.187,3.2054,3.2213,3.2139,3.1763,3.3585,3.5224,3.6601,3.7903,3.8622,3.8886,3.7774,3.6802,3.5907,3.5341,3.5015,3.4993,3.5699,3.6289,3.6741,3.7229,3.7549,0.0,0.0,0.0,0.0,0.0,0.0,0.0,0.0,4.0312,4.0312,4.0312,4.0312,4.0279,4.0116,3.9888,3.9593,3.9144,3.9542,4.0577,4.2528,4.1076,4.0422,4.5217,4.4557,4.4373,4.9461,4.8476,4.6973,4.791,5.0547,5.293,5.4004,5.5937,5.7695,5.8769,5.8945,5.9004,5.918,5.918,5.8751,5.7532,5.7382,5.6873,5.5587,5.5491,5.5713,5.6153,5.5721,5.5281,5.4887,5.2901,5.0733,4.851,4.4965,4.2726,4.1753,3.8393,3.7296,3.82,3.7548,3.7723,3.8522,3.7619,3.6875,3.6292,3.4957,3.4017,3.3335,3.2002,3.1091,3.0535,3.0309,3.0363,3.0531,0.0,0.0,0.0,0.0,0.0,0.0,0.0,0.0,0.0,0.0,0.0,0.0,0.0,0.0,0.0,0.0,0.0,0.0,3.1755,3.1939,3.187,3.1571,3.1984,3.2305,3.249,3.4758,3.645,3.7451,3.9303,3.993,3.9313,3.8126,3.7214,3.6511,3.5716,3.5507,3.5865,3.6253,3.6639,3.6959,3.7418,3.7811,0.0,0.0,0.0,0.0,0.0,0.0,0.0,0.0,4.0312,4.0312,4.0312,4.0312,4.0312,4.0312,4.0116,3.9822,3.944,3.9599,4.0577,4.3777,4.2671,4.1924,4.6236,4.6352,4.6947,5.1738,5.082,4.9219,4.9375,5.1816,5.4004,5.459,5.6621,5.8359,5.9062,5.918,5.918,5.918,5.918,5.8751,5.7532,5.7382,5.6873,5.5587,5.5491,5.5658,5.5933,5.5273,5.4833,5.4732,5.1796,4.9665,4.8546,4.4062,4.1413,4.0667,3.8671,3.8272,3.926,3.8811,3.9043,3.9692,3.8129,3.6966,3.6,3.4605,3.3499,3.2627,3.1298,3.0789,3.0767,3.0568,3.0654,3.0789,0.0,0.0,0.0,0.0,0.0,0.0,0.0,0.0,0.0,0.0,0.0,0.0,0.0,0.0,0.0,0.0,0.0,0.0,3.1801,3.2237,3.2053,3.1042,3.2466,3.3499,3.3981,3.5523,3.681,3.7793,3.9985,4.0124,3.8306,3.8358,3.7843,3.6924,3.7125,3.7207,3.72,3.738,3.7426,3.7448,3.7898,3.8117,0.0,0.0,0.0,0.0,0.0,0.0,0.0,0.0,4.0279,4.0279,4.0312,4.0312,4.0312,4.0334,4.0334,4.0214,3.9844,3.9483,3.9705,4.1634,4.1897,4.317,4.8964,4.7876,4.6986,5.1709,5.3418,5.3887,5.3488,5.3429,5.3722,5.4551,5.6113,5.7676,5.9004,5.918,5.918,5.918,5.918,5.8751,5.7532,5.7382,5.6873,5.5587,5.5491,5.5491,5.5491,5.4707,5.4301,5.4243,5.1224,4.853,4.6289,4.3091,4.1268,4.0888,4.0002,3.926,3.8651,3.8651,3.9938,4.2004,3.7167,3.6363,3.8361,3.5285,3.324,3.1989,3.1169,3.0789,3.0767,3.0568,3.0654,3.0789,0.0,0.0,0.0,0.0,0.0,0.0,0.0,0.0,0.0,0.0,0.0,0.0,0.0,0.0,0.0,0.0,0.0,0.0,3.2283,3.2421,3.2375,3.2053,3.2489,3.2787,3.2925,3.5156,3.7155,3.8849,3.9517,3.9535,3.899,3.8109,3.7908,3.8308,3.8844,3.8572,3.7776,3.8887,3.8592,3.7426,3.7527,3.8008,0.0,0.0,0.0,0.0,0.0,0.0,0.0,0.0,0.0,0.0,3.9964,4.052,4.1,4.2061,4.159,4.0934,4.1562,4.1379,4.1425,4.3099,4.4426,4.6029,4.8831,4.8884,4.9364,5.2903,5.4082,5.416,5.3105,5.4629,5.5859,5.5234,5.6816,5.8379,5.9062,5.918,5.918,5.918,5.918,5.8596,5.7095,5.7211,5.6873,5.5587,5.5234,5.5179,5.5491,5.4186,5.2877,5.1536,4.8724,4.617,4.3958,4.1201,3.9435,3.8657,3.9515,4.0361,4.1203,4.1203,4.0657,3.962,3.8142,3.6966,3.5929,3.4088,3.2602,3.1429,3.1176,3.1085,3.1085,3.102,3.1031,3.1085,0.0,0.0,0.0,0.0,0.0,0.0,0.0,0.0,0.0,0.0,0.0,0.0,0.0,0.0,0.0,0.0,0.0,0.0,0.0,3.2697,3.2651,3.2237,3.2398,3.2697,3.3086,3.5592,3.7293,3.8091,3.8711,3.8918,3.8688,3.8337,3.8478,3.9088,3.9764,3.9399,3.8283,3.8613,3.8304,3.7517,3.7083,3.7653,3.8806,0.0,0.0,0.0,0.0,0.0,0.0,0.0,0.0,0.0,4.0018,4.1,4.1918,4.2223,4.2114,4.2102,4.3135,4.3067,4.3329,4.5919,4.7052,4.8087,5.0186,5.1018,5.2187,5.5238,5.5782,5.5547,5.5098,5.623,5.707,5.666,5.7777,5.8887,5.9177,5.918,5.918,5.918,5.918,5.8635,5.719,5.7382,5.7098,5.5862,5.5401,5.5181,5.5234,5.3021,5.1206,4.9919,4.665,4.4151,4.2722,4.0184,3.8965,3.8959,3.9578,4.019,4.0815,4.0815,4.001,3.8522,3.7329,3.5799,3.4147,3.3145,3.214,3.1203,3.1203,3.1203,3.1203,3.1203,3.1203,3.1203,0.0,0.0,0.0,0.0,0.0,0.0,0.0,0.0,0.0,0.0,0.0,0.0,0.0,0.0,0.0,0.0,0.0,0.0,0.0,0.0,3.3029,3.2105,3.2516,3.3224,3.4257,3.653,3.7293,3.6373,3.7701,3.8212,3.7816,3.8734,3.9262,3.9462,4.0266,3.9915,3.8634,3.7431,3.7126,3.7437,3.6465,3.7117,3.8675,3.8763,0.0,0.0,0.0,0.0,0.0,0.0,0.0,0.0,4.0247,4.1558,4.2748,4.1546,4.2201,4.3534,4.4561,4.4605,4.5276,4.9185,4.9533,4.9718,5.3006,5.4079,5.5214,5.8069,5.786,5.75,5.8418,5.7894,5.7656,5.8421,5.8945,5.918,5.918,5.918,5.918,5.918,5.9177,5.8654,5.7493,5.7666,5.738,5.6271,5.5676,5.5216,5.4979,5.1653,4.9486,4.8998,4.4994,4.2722,4.2391,3.9961,3.9445,4.0816,3.9842,3.9012,3.833,3.849,3.8464,3.8129,3.5285,3.3723,3.3074,3.2436,3.1785,3.1203,3.1203,3.1203,3.1203,3.1203,3.1203,3.1203,0.0,0.0,0.0,0.0,0.0,0.0,0.0,0.0,0.0,0.0,0.0,0.0,0.0,0.0,0.0,0.0,0.0,0.0,0.0,0.0,3.4363,3.4173,3.4576,3.5309,3.6342,3.6892,3.7076,3.6847,3.6805,3.7155,3.7793,3.7999,3.8964,4.054,4.2266,4.1167,3.8078,3.8923,3.7734,3.5329,3.5823,3.6706,3.7767,3.8522,0.0,0.0,0.0,0.0,0.0,0.0,0.0,0.0,3.9931,4.0825,4.1634,4.2407,4.3447,4.467,4.6395,4.6533,4.6648,4.8772,5.0485,5.2859,5.7484,5.7605,5.7021,5.8058,5.7663,5.7598,5.8828,5.8887,5.8828,5.9004,5.9121,5.918,5.918,5.918,5.918,5.918,5.8887,5.8239,5.7172,5.6731,5.644,5.6362,5.4947,5.4428,5.5326,5.1548,4.8729,4.737,4.4204,4.2463,4.2318,4.0111,3.9433,4.0144,3.8287,3.6944,3.6171,3.7827,3.7548,3.5766,3.5087,3.4147,3.3086,3.2945,3.2199,3.1203,3.1203,3.1203,3.1203,3.1203,3.1203,3.1203,0.0,0.0,0.0,0.0,0.0,0.0,0.0,0.0,0.0,0.0,0.0,0.0,0.0,0.0,0.0,0.0,0.0,0.0,0.0,0.0,3.4676,3.4419,3.5118,3.5745,3.6273,3.6755,3.6778,3.6273,3.5818,3.6323,3.7793,3.7793,3.8734,4.0502,4.1811,4.0802,3.8208,3.8672,3.7752,3.6045,3.6215,3.6875,3.7789,0.0,0.0,0.0,0.0,0.0,0.0,0.0,0.0,0.0,0.0,0.0,4.2049,4.208,4.3294,4.4954,4.6658,4.7946,4.9595,5.2952,5.4825,5.6592,5.9687,5.9397,5.8667,5.9332,5.8767,5.8379,5.9062,5.918,5.918,5.918,5.918,5.918,5.918,5.9004,5.8887,5.8887,5.8476,5.7905,5.7049,5.5561,5.461,5.4387,5.1996,5.0788,5.1446,4.795,4.5487,4.4671,4.2134,4.083,4.0771,3.9637,3.8969,3.8695,3.7438,3.6262,3.5222,3.6354,3.6162,3.4957,3.4664,3.3958,3.3074,3.272,3.207,3.1203,3.1203,3.1203,3.1203,3.1203,3.1203,3.1203,0.0,0.0,0.0,0.0,0.0,0.0,0.0,0.0,0.0,0.0,0.0,0.0,0.0,0.0,0.0,0.0,0.0,0.0,0.0,0.0,0.0,3.4518,3.5139,3.5608,3.5883,3.6617,3.6548,3.5657,3.5152,3.6048,3.8212,3.8212,3.9062,4.0624,4.103,4.0106,3.8219,3.7616,3.7194,3.6948,3.6585,0.0,0.0,0.0,0.0,0.0,0.0,0.0,0.0,0.0,0.0,0.0,0.0,0.0,4.2476,4.124,4.2638,4.4845,4.6009,4.8842,5.2645,5.7491,5.8832,5.9309,6.075,6.0103,5.9579,6.0678,5.9996,5.918,5.918,5.918,5.918,5.918,5.918,5.918,5.9062,5.8828,5.8594,5.8418,5.7627,5.6917,5.631,5.3686,5.1853,5.152,4.8661,4.6937,4.7064,4.4034,4.2333,4.2377,4.0212,3.9222,3.9556,3.9222,3.8759,3.8335,3.7924,3.7005,3.5615,3.6058,3.6,3.5602,3.5051,3.4476,3.3829,3.272,3.1914,3.1359,3.1208,3.1138,3.1138,3.1138,3.1138,3.1138,0.0,0.0,0.0,0.0,0.0,0.0,0.0,0.0,0.0,0.0,0.0,0.0,0.0,0.0,0.0,0.0,0.0,0.0,0.0,0.0,0.0,3.6586,3.5905,3.614,3.7448,3.7168,3.6709,3.619,3.5657,3.692,3.9774,3.9774,4.0831,4.2683,4.2752,4.0632,3.6913,3.6443,3.5533,3.4573,0.0,0.0,0.0,0.0,0.0,0.0,0.0,0.0,0.0,0.0,3.9622,0.0,0.0,0.0,4.0662,4.0465,4.2376,4.4626,4.4823,4.882,5.3692,5.6814,5.7347,5.7964,6.1243,5.9904,5.8507,6.0471,5.9996,5.918,5.918,5.918,5.918,5.918,5.918,5.9062,5.8652,5.8887,5.8828,5.8082,5.5651,5.3841,5.3383,4.9903,4.7873,4.8538,4.6993,4.6371,4.709,4.4034,4.2421,4.2743,4.0143,3.9662,4.1526,3.9662,3.9961,4.2392,4.1833,4.0369,3.82,4.0369,4.0139,3.8129,3.8013,3.7652,3.687,3.4123,3.2566,3.1881,3.1164,3.0843,3.0843,3.0843,3.0843,3.0875,0.0,0.0,0.0,0.0,0.0,0.0,0.0,0.0,0.0,0.0,0.0,0.0,0.0,0.0,0.0,0.0,0.0,0.0,0.0,0.0,0.0,3.5301,3.5181,3.5428,3.6094,3.6162,3.5768,3.4992,3.5083,3.7242,4.1352,4.2201,4.2775,4.3119,0.0,0.0,0.0,0.0,0.0,0.0,0.0,0.0,0.0,0.0,0.0,0.0,0.0,0.0,0.0,0.0,3.9622,3.9656,4.0159,0.0,0.0,0.0,4.158,4.3731,4.7269,5.0065,5.3298,5.8534,5.8277,5.7811,6.2095,6.0459,5.8579,6.0218,5.9662,5.9,5.9138,5.918,5.918,5.918,5.918,5.9023,5.8594,5.8476,5.7536,5.5049,5.3531,5.1864,4.9861,4.6694,4.4913,4.5306,4.3152,4.2034,4.2382,4.107,4.0352,4.0505,3.9352,3.9119,4.0113,4.0162,4.1216,4.3174,4.0818,4.0077,4.0629,4.0049,3.8617,3.6655,3.8,3.749,3.5507,3.3665,3.2506,3.1871,3.0963,3.0654,3.0654,3.0735,3.0789,3.0821,0.0,0.0,0.0,0.0,0.0,0.0,0.0,0.0,0.0,0.0,0.0,0.0,0.0,0.0,0.0,0.0,0.0,0.0,0.0,0.0,0.0,3.4032,3.4395,3.467,3.4808,3.5152,3.4969,3.4211,3.4854,3.7563,4.2146,4.4074,4.4864,0.0,4.545,4.4025,0.0,0.0,0.0,0.0,0.0,0.0,0.0,0.0,0.0,0.0,0.0,0.0,0.0,0.0,3.9481,3.9656,4.0159,4.0312,0.0,0.0,0.0,4.2585,4.8099,4.989,5.166,5.7907,5.768,5.7031,6.1004,5.9879,5.8253,5.9363,5.9132,5.8803,5.8877,5.8903,5.8903,5.8903,5.8903,5.8414,5.723,5.6851,5.5329,5.1454,5.0427,4.896,4.6319,4.3599,4.2032,4.1959,3.9839,3.8611,3.8611,3.8611,3.8651,3.8718,3.8571,3.8486,3.8611,4.0344,4.1872,4.3162,4.0278,3.9742,4.1344,3.9573,3.7268,3.4927,3.7341,3.7084,3.4833,3.3443,3.249,3.1849,3.0956,3.0522,3.0428,3.0617,3.0703,3.0794,0.0,0.0,0.0,0.0,0.0,0.0,0.0,0.0,0.0,0.0,0.0,0.0,0.0,0.0,0.0,3.7543,3.8616,3.8413,3.6447,3.5354,3.4549,3.4032,3.4027,0.0,3.4785,3.4831,3.4808,3.4762,3.5753,3.8074,4.1704,4.4658,4.7023,4.8745,4.739,4.6426,4.5519,0.0,0.0,0.0,0.0,0.0,0.0,0.0,0.0,0.0,0.0,0.0,0.0,3.8675,3.9165,3.9656,4.0159,4.0312,4.0312,0.0,0.0,0.0,4.467,4.6636,4.8536,5.2075,5.3539,5.456,5.6575,5.6875,5.6874,5.761,5.8351,5.8679,5.809,5.7984,5.7984,5.7984,5.7984,5.6859,5.3549,5.3416,5.2127,4.7965,4.557,4.3867,4.3034,4.0502,3.8815,3.8577,3.8391,3.829,3.829,3.829,3.8455,3.866,3.8183,3.7996,3.829,3.9869,4.1511,4.3209,4.2467,4.1018,3.8926,4.0542,3.873,3.4406,3.6801,3.7753,3.7342,3.4402,3.2816,3.2217,3.1314,3.0606,3.0133,3.0428,3.0514,3.0568,0.0,0.0,0.0,0.0,0.0,0.0,0.0,0.0,0.0,0.0,0.0,0.0,0.0,3.4727,3.5474,3.5832,3.6188,3.6117,3.5378,3.4409,3.3762,3.3547,3.4165,3.444,3.4303,3.4923,3.5106,3.4808,3.5152,3.7155,4.067,4.2729,4.5117,4.7757,4.9824,4.8837,4.5622,4.529,0.0,0.0,0.0,0.0,0.0,0.0,0.0,0.0,0.0,3.8872,4.0257,3.9155,3.9362,0.0,0.0,4.0312,4.0312,4.0312,4.0498,4.135,4.4102,4.4801,4.5893,5.083,5.1142,5.1156,5.4558,5.5506,5.5518,5.4766,5.6473,5.7513,5.5737,5.6758,5.7926,5.7926,5.6588,5.4892,5.2745,5.1332,4.8794,4.4349,4.325,4.1915,3.9504,3.8568,3.8703,4.0137,3.8318,3.8107,4.0349,3.8492,3.7809,3.8691,3.8086,3.8348,3.9434,3.978,4.1098,4.3259,4.0652,4.0002,4.0974,3.7746,3.625,3.6206,3.5351,3.5195,3.535,3.3706,3.2881,3.2572,3.1296,3.065,3.0466,3.0525,3.0482,3.0593,0.0,0.0,0.0,0.0,0.0,0.0,0.0,0.0,0.0,0.0,0.0,0.0,0.0,0.0,3.4945,3.5258,3.4993,3.4799,3.4799,3.3843,3.3317,3.3317,3.3935,3.4119,3.3775,3.4418,3.4693,3.4532,3.4981,3.6552,3.9225,4.146,4.3825,4.6381,4.9163,4.9273,0.0,0.0,4.6265,4.2913,4.3556,0.0,4.063,0.0,0.0,4.1601,4.0884,4.1353,4.2218,4.1317,4.1,0.0,0.0,0.0,0.0,4.0115,4.0421,4.1109,4.2704,4.2922,4.3752,4.8252,4.8405,4.8383,5.1874,5.3613,5.4204,5.3189,5.5204,5.649,5.4261,5.5249,5.6305,5.6276,5.4412,5.2133,4.9737,4.805,4.5432,4.0903,4.0606,3.9896,3.7633,3.7635,3.8434,3.9896,3.7989,3.7837,4.0137,3.833,3.7459,3.8103,3.7823,3.8318,3.9611,3.8923,3.9752,4.2041,3.8777,3.8197,3.9851,3.5639,3.4582,3.5953,3.4178,3.3626,3.3883,3.3318,3.2952,3.2669,3.1703,3.1082,3.0686,3.0781,3.0645,3.0593,0.0,0.0,0.0,0.0,0.0,0.0,0.0,0.0,0.0,0.0,0.0,0.0,0.0,0.0,0.0,3.6116,3.533,3.4799,3.4775,3.3892,3.3367,3.3342,3.334,3.334,3.334,3.334,3.3568,3.4027,3.5303,3.6433,3.7419,4.095,4.3409,4.4851,4.5183,4.7505,5.1094,5.0214,4.9778,4.9388,4.5576,4.4543,4.514,4.3433,4.3051,4.3655,4.5417,4.5074,4.3959,4.4989,4.4058,4.2551,0.0,0.0,0.0,0.0,0.0,4.029,0.0,0.0,0.0,4.4014,4.5216,4.6414,4.8313,5.0911,5.2866,5.2739,5.4565,5.5626,5.3929,5.3382,5.3169,5.2925,5.1416,4.8743,4.4309,4.3591,4.2021,3.7884,3.7635,3.7676,3.7382,3.7635,3.7676,3.7507,3.7411,3.7411,3.7507,3.7692,3.7529,3.7009,3.7264,3.7798,3.8626,3.7209,3.7497,3.9487,3.7217,3.5776,3.5164,3.4594,3.398,3.3376,3.3376,3.3376,3.3376,3.3376,3.3028,3.2535,3.2535,3.1792,3.081,3.1219,3.105,3.0604,0.0,0.0,0.0,0.0,0.0,0.0,0.0,0.0,0.0,0.0,0.0,0.0,0.0,0.0,0.0,3.3573,3.4317,3.4631,3.427,3.4317,3.4526,3.4882,3.4202,3.3981,3.4372,3.4395,3.444,3.4578,3.4564,3.5155,3.6333,3.7534,3.8989,4.0704,4.3157,4.4658,4.5507,4.7413,4.6977,4.5232,4.8148,4.7069,4.3992,4.639,4.6089,4.4573,4.6198,4.6575,4.6249,4.5925,4.5002,4.3643,0.0,0.0,0.0,0.0,0.0,0.0,4.0224,0.0,0.0,0.0,0.0,0.0,4.5011,4.6702,4.8245,4.8915,5.1062,5.2987,5.3434,5.235,5.1135,5.0263,4.8671,4.6518,4.373,4.167,3.9573,3.7337,3.7128,3.7099,3.7032,3.7128,3.7808,3.9451,3.7428,3.7183,3.9721,3.8387,3.7128,3.6394,3.658,3.6759,3.6814,3.6625,3.6866,3.7646,3.6608,3.5776,3.5164,3.4594,3.398,3.3376,3.3376,3.3376,3.3376,3.3376,3.3308,3.3096,3.2691,3.2322,3.1951,3.1351,3.1127,3.1116,0.0,0.0,0.0,0.0,0.0,0.0,3.9638,0.0,0.0,0.0,0.0,0.0,0.0,0.0,0.0,3.415,3.492,3.5304,3.4985,3.4767,3.4822,3.5183,3.44,3.4041,3.4191,3.4165,3.4165,3.4165,3.4152,3.4467,3.499,3.5809,0.0,0.0,3.9864,4.113,4.198,4.3923,4.5094,4.5852,4.8662,4.8869,4.7734,4.987,4.9628,4.8341,5.0162,5.0471,4.9959,4.9451,4.7739,4.5369,4.2857,0.0,0.0,0.0,0.0,0.0,0.0,0.0,0.0,4.1699,0.0,0.0,4.3824,4.532,4.6762,4.8149,5.007,5.1589,5.1688,5.0746,4.9437,4.7979,4.7204,4.5655,4.2352,4.0351,3.8695,3.741,3.7038,3.6885,3.6885,3.6885,3.7494,3.8843,3.721,3.7006,3.9068,3.7796,3.6794,3.6273,3.6433,3.6433,3.6259,3.7115,3.7715,3.8018,3.7715,3.7246,3.6624,3.5305,3.4327,3.3768,3.35,3.3376,3.3376,3.3376,3.3376,3.3364,3.3028,3.2691,3.2446,3.1921,3.1599,3.1361,0.0,0.0,4.2873,4.2792,4.1924,4.079,3.9592,0.0,0.0,0.0,0.0,0.0,0.0,0.0,0.0,0.0,3.6424,3.642,3.6393,3.5278,3.4745,3.5042,3.4318,3.3738,3.3386,3.3501,3.3453,3.3317,3.4005,3.4154,3.3809,3.5225,0.0,0.0,0.0,3.766,3.9866,4.0479,4.3739,4.8492,4.802,5.0039,5.3337,5.3199,5.2969,5.3044,5.5264,5.5073,5.3795,5.3729,5.1042,4.7346,4.5209,4.2966,4.1284,0.0,4.1197,0.0,0.0,0.0,0.0,0.0,4.1699,0.0,4.3752,4.5185,4.6687,4.8597,4.9769,5.0198,4.9195,4.8678,4.779,4.6075,4.6472,4.5456,4.0925,4.0193,3.9429,3.7853,3.7481,3.7246,3.6941,3.6885,3.6885,3.6885,3.6845,3.6861,3.6834,3.658,3.6515,3.6788,3.6815,3.6951,3.7196,3.8733,3.9542,3.9611,3.9611,3.9199,3.8349,3.6263,3.4941,3.4259,3.3712,3.3432,3.3376,3.3376,3.3376,3.3376,3.3376,3.3084,3.2626,3.276,3.2264,3.1615,0.0,0.0,4.2738,4.2249,4.1978,4.101,3.8603,0.0,0.0,0.0,0.0,0.0,0.0,0.0,0.0,0.0,3.7055,3.7312,3.6887,3.5884,3.5687,3.6524,3.4932,3.3954,3.3866,3.467,3.4486,3.3317,3.3825,3.4136,3.4272,3.4783,0.0,0.0,0.0,3.7379,3.835,3.9659,4.2026,4.5117,4.8217,5.0168,5.1438,5.3865,5.3498,5.2104,5.5412,5.5325,5.3618,5.2992,5.1176,4.8582,4.5121,4.3141,4.1874,4.0552,3.994,0.0,0.0,0.0,0.0,4.0825,4.1777,0.0,4.1874,4.1805,4.2486,4.4628,4.429,4.444,4.7364,4.6655,4.5398,4.466,4.4975,4.4447,4.1975,4.3857,4.3291,3.7391,3.8839,3.9444,3.7149,3.6885,3.6885,3.6885,3.6727,3.65,3.6259,3.5965,3.6635,3.8523,3.8821,3.9724,4.137,4.1966,4.1376,3.9611,3.9611,3.8569,3.6595,3.6109,3.5344,3.4271,3.4203,3.3836,3.3376,3.3376,3.3376,3.3376,3.3376,3.3308,3.3152,3.2694,3.2672,3.2701,0.0,0.0,4.2711,4.2114,4.1761,4.0941,3.9015,3.8491,0.0,0.0,0.0,0.0,0.0,0.0,0.0,0.0,0.0,0.0,0.0,3.6019,3.5357,3.6186,3.4751,3.3977,3.3981,3.4257,3.4165,3.3637,3.3637,3.3851,3.4208,3.4607,0.0,0.0,0.0,3.6943,3.7471,3.8533,4.0693,4.3831,4.8171,5.065,5.2097,5.5174,5.5541,5.4668,5.6436,5.6276,5.4992,5.3311,5.2005,5.0596,4.7909,4.5596,4.3621,4.2454,4.1252,4.0312,4.0312,4.0629,4.0978,4.0978,4.1405,0.0,0.0,4.1488,4.178,4.3604,4.321,4.3081,4.4986,4.4375,4.3747,4.4234,4.4824,4.4656,4.2962,4.3405,4.2318,3.8035,3.9715,4.0085,3.7162,3.8225,3.8445,3.7025,3.654,3.6233,3.614,3.6683,3.7723,3.9255,4.0514,4.1695,4.2902,4.3853,4.3181,4.098,4.0942,3.983,3.7798,3.6608,3.5776,3.5151,3.4538,3.4116,3.3836,3.35,3.3376,3.3376,3.3376,3.3376,3.34,3.3195,3.3198,3.3105,0.0,0.0,4.2656,4.1951,4.152,4.0864,3.9628,3.9416,0.0,0.0,0.0,0.0,0.0,0.0,0.0,0.0,0.0,0.0,0.0,3.6445,3.5236,3.543,3.4558,3.404,3.4007,3.3821,3.3798,3.4004,3.3614,3.3683,3.4165,3.4601,3.49,3.5106,0.0,3.6782,3.7902,3.8229,4.0594,4.4474,4.8653,5.1018,5.2395,5.5862,5.701,5.6827,5.7309,5.7254,5.6566,5.4119,5.3019,5.2337,5.049,4.7794,4.5216,4.4626,4.2879,4.1044,4.0651,4.0793,4.1099,4.1459,4.1328,4.1262,0.0,0.0,0.0,4.289,4.2695,4.2351,4.2221,4.1845,4.1915,4.297,4.416,4.4438,4.2879,4.164,4.0367,3.8966,4.0581,4.0747,3.7966,4.0036,4.0458,3.7949,3.7142,3.7029,3.7623,3.8293,3.9337,4.0877,4.2198,4.3215,4.3815,4.4686,4.3992,4.1874,4.1749,4.0798,3.8994,3.7093,3.6178,3.6054,3.5095,3.4538,3.4259,3.3768,3.3488,3.3376,3.3376,3.3376,3.34,3.369,3.3613,3.3416,4.2873,4.2925,0.0,4.1385,4.1598,4.1187,3.9131,3.9252,3.9961,0.0,0.0,0.0,0.0,0.0,0.0,0.0,0.0,0.0,3.9451,3.8165,0.0,3.5547,3.4973,3.4475,3.4004,3.4831,3.4854,3.4004,3.3935,3.4188,3.4716,3.4762,3.5294,3.6121,3.5749,3.7632,4.1061,4.064,4.3303,4.8033,5.0811,5.0696,4.9434,5.4255,5.5288,5.4416,5.6666,5.747,5.7088,5.502,5.3788,5.2615,4.9851,4.7283,4.515,4.4247,4.287,4.1612,4.1546,4.2498,4.311,4.1481,4.2595,4.3468,4.1066,0.0,4.097,3.9979,0.0,3.8822,3.8914,0.0,0.0,3.8669,4.0664,4.1735,4.0328,4.0842,4.0755,3.9238,4.2097,4.3226,4.0747,4.1828,4.2141,4.0798,3.9814,4.0431,4.3147,4.0604,4.1189,4.5811,4.4252,4.4202,4.6012,4.4211,4.218,3.9936,3.991,3.8967,3.7217,3.6941,3.654,3.6109,3.5985,3.5275,3.4271,3.4203,3.3868,3.3376,3.3376,3.3376,3.34,3.369,3.3899,3.4049,4.2925,4.2602,0.0,0.0,4.1028,4.0754,4.0174,4.1488,4.2744,4.3252,0.0,0.0,0.0,0.0,0.0,0.0,0.0,4.1601,4.1852,3.8774,0.0,3.6781,3.5214,3.4372,3.4463,3.4578,3.4418,3.4004,3.3729,3.3843,3.4349,3.4647,3.5336,3.6305,3.6668,3.8596,4.1612,4.1642,4.3752,4.7229,4.8882,4.925,4.9388,5.4783,5.6436,5.5908,5.6092,5.6735,5.701,5.38,5.3678,5.4266,5.0667,4.8559,4.7269,4.6608,4.4342,4.2245,4.2826,4.3438,4.3766,4.3206,4.3425,4.3547,4.2607,4.1305,4.0137,3.9692,0.0,0.0,0.0,0.0,0.0,0.0,3.8848,3.9504,3.9429,4.0038,4.0403,4.0037,4.1839,4.3103,4.3097,4.1845,4.1252,4.1805,4.0974,4.0527,4.0712,4.1051,4.1751,4.2817,4.3152,4.3693,4.4528,4.3526,4.1887,3.9719,3.962,3.8637,3.6885,3.6885,3.6761,3.654,3.6263,3.5831,3.5275,3.4606,3.4135,3.3868,3.3556,3.3376,3.3437,3.3859,3.4088,3.4245,4.2697,0.0,0.0,4.1195,4.0757,4.0648,4.1249,4.3416,4.5126,4.5588,4.6292,4.7541,4.9581,4.705,4.6205,0.0,4.5368,4.3132,4.325,3.9794,3.7924,3.8339,3.5683,3.4647,3.5611,3.4555,3.4004,3.4004,3.366,3.3798,3.4418,3.4808,3.5611,3.6741,3.7476,3.9452,4.2247,4.3188,4.5244,4.8102,4.9351,5.0475,5.1798,5.5311,5.6987,5.7332,5.623,5.6551,5.6965,5.3589,5.3801,5.496,5.1895,4.9998,4.8864,4.8645,4.6308,4.3927,4.4495,4.4881,4.4968,4.4531,4.3971,4.3482,4.3023,4.1492,4.0214,4.0244,3.9851,0.0,0.0,0.0,3.7837,3.7885,0.0,3.8108,3.8769,3.9141,3.9578,4.013,4.1666,4.2917,4.3631,4.2609,4.2053,4.2553,4.2226,4.18,4.1217,4.237,4.273,4.2012,4.228,4.244,4.244,4.1679,4.0557,3.8995,3.8923,3.8142,3.6885,3.6885,3.6885,3.6885,3.6511,3.6263,3.6041,3.5151,3.4718,3.4538,3.4606,3.4203,3.3649,3.3952,3.4125,3.4245,4.223,4.2059,0.0,4.1195,4.1086,4.1276,4.1896,4.4013,4.6184,4.7866,4.7676,4.8455,5.1308,4.5488,4.3344,4.8202,4.5246,4.2964,4.2652,4.189,4.0992,4.0064,3.6649,3.568,3.7655,3.5267,3.4004,3.4004,3.3981,3.4486,3.5447,3.547,3.63,0.0,3.7798,3.9997,4.3854,4.5875,4.9057,5.2855,5.4852,5.6299,5.701,5.5197,5.5748,5.747,5.7424,5.749,5.724,5.5633,5.4592,5.3882,5.3235,5.1105,4.8995,4.9414,4.8514,4.7225,4.6729,4.7313,4.7395,4.4618,4.4247,4.3818,4.1055,4.1055,4.1533,4.1204,4.1537,4.1665,4.0998,4.0192,0.0,0.0,3.7905,0.0,0.0,3.7933,3.8287,3.9132,4.2261,4.3557,4.1709,4.5062,4.6204,4.3488,4.412,4.5895,4.8697,4.5498,4.463,4.7016,4.2797,4.0496,4.0496,3.8225,3.7038,3.6969,3.6969,3.6941,3.6885,3.6885,3.6885,3.6885,3.6885,3.6595,3.6109,3.6054,3.5707,3.5361,3.6998,3.6292,3.4228,3.3916,3.3956,3.4221,0.0,0.0,0.0,4.2925,4.1896,4.1303,4.1924,4.3036,4.5017,4.8354,4.7741,4.872,5.3263,5.0064,4.8485,5.0646,4.9129,4.74,4.5878,4.4734,4.3956,4.3611,4.1796,4.0135,3.8826,3.8304,3.6902,3.4532,3.4532,3.4877,3.5493,3.5493,3.653,3.8321,3.8642,4.0663,4.3992,4.6724,4.925,5.1592,5.3939,5.5541,5.6459,5.6436,5.6873,5.747,5.747,5.747,5.724,5.5725,5.5296,5.5139,5.391,5.2301,5.1026,5.212,5.0546,4.8514,4.8973,4.9585,4.9668,4.7684,4.6592,4.5587,4.3971,4.2617,4.1598,4.1281,4.14,4.1425,4.1055,4.0065,0.0,0.0,0.0,0.0,0.0,3.6625,3.7055,3.8186,4.041,4.1789,4.1663,4.2691,4.3416,4.3543,4.3558,4.3438,4.3189,4.4018,4.3331,4.081,4.0529,3.9637,3.8073,3.7301,3.6885,3.6885,3.6885,3.6885,3.6885,3.6885,3.6885,3.6885,3.6885,3.6817,3.6608,3.6263,3.5985,3.5831,3.5985,3.5446,3.4694,3.5962,3.5446,3.4245,4.1905,4.2767,4.3794,4.3794,4.2466,4.1924,4.3362,4.3718,4.5394,4.9937,4.886,4.9192,5.3207,5.1356,5.005,5.0663,4.9825,4.8869,4.7811,4.5587,4.4967,4.6415,4.4061,4.2431,4.1742,4.08,3.94,3.7494,3.6392,3.6392,3.7351,3.6457,3.6966,3.8619,3.9285,4.0755,4.3028,4.7367,4.9755,5.0857,5.3383,5.5243,5.6482,5.6413,5.6942,5.7722,5.7539,5.747,5.7332,5.6345,5.6069,5.5924,5.4938,5.3652,5.2708,5.3408,5.214,5.0524,5.0961,5.1463,5.1441,4.9803,4.8689,4.758,4.6118,4.4866,4.3957,4.3729,4.3629,4.3446,4.3189,4.1571,0.0,0.0,0.0,0.0,0.0,3.5918,3.6387,3.7363,3.9414,4.0859,4.1094,4.1426,4.1758,4.207,4.2353,4.1963,4.0686,4.2444,4.2029,3.8714,3.8961,3.8445,3.6885,3.6885,3.6885,3.6885,3.6885,3.6885,3.6885,3.6885,3.6885,3.6885,3.6885,3.6885,3.6885,3.654,3.6387,3.6387,3.6693,3.6167,3.5452,3.634,3.5636,3.4436,4.1046,4.2414,4.3875,4.3848,4.2979,4.3202,4.597,4.5953,4.7383,5.2288,5.0867,4.9925,5.1354,4.9453,4.8154,4.8302,4.7505,4.738,4.8217,4.4716,4.4372,4.8331,4.3923,4.2858,4.6093,4.2904,4.1596,4.2376,3.9423,3.8941,4.0724,3.82,3.7558,3.8596,3.9613,4.0326,4.1183,4.7839,5.0711,5.1056,5.3337,5.5495,5.7125,5.5128,5.5931,5.8067,5.7607,5.747,5.7513,5.7447,5.6841,5.608,5.608,5.5113,5.3844,5.3429,5.3276,5.3167,5.2686,5.2905,5.2839,5.0939,5.0393,4.9737,4.7406,4.7575,4.8247,4.8247,4.7888,4.7464,4.7118,4.4526,4.19,0.0,0.0,0.0,3.5566,3.5762,3.6172,3.6616,3.9256,4.0702,3.9883,4.125,4.1348,3.9297,4.0684,4.1618,4.1579,4.1268,4.1065,4.0924,3.8503,3.7193,3.7246,3.7026,3.6998,3.7093,3.6941,3.6885,3.6885,3.6885,3.6885,3.6885,3.6885,3.6885,3.6885,3.6885,3.6885,3.7093,3.8816,3.8294,3.6411,3.517,3.4721,3.4702,4.2216,4.3561,4.5015,4.4556,4.5288,4.5709,4.4966,4.7125,4.921,5.0276,5.0778,5.112,5.1439,5.0899,4.9628,4.7449,4.8033,4.801,4.6793,4.7115,4.8171,4.9985,4.9548,4.863,4.724,4.7033,4.5806,4.3408,4.1535,4.0686,4.0724,3.82,3.7351,3.8074,3.9055,3.9767,4.0693,4.6862,5.0834,5.2878,5.2395,5.3406,5.5105,5.4209,5.5197,5.7056,5.6919,5.7148,5.7424,5.701,5.6546,5.608,5.608,5.5379,5.4456,5.4369,5.4325,5.4172,5.3691,5.391,5.4041,5.2774,5.166,5.0611,4.9628,4.9038,4.8711,4.8711,4.8165,4.7632,4.7544,4.4678,4.18,0.0,0.0,0.0,3.5449,3.5762,3.6021,3.6172,3.7441,3.834,3.8418,3.8791,3.8811,3.8301,3.8965,3.9966,4.1221,4.2,4.2599,4.3035,4.1702,4.1313,4.1987,3.9184,3.8344,3.9487,3.7743,3.6885,3.6885,3.6885,3.6885,3.6885,3.6885,3.6885,3.6885,3.6885,3.6885,3.6941,3.7711,3.7625,3.6951,3.5748,3.5407,3.5516,4.2604,4.4032,4.5316,4.4447,4.6893,4.8433,4.682,4.8133,4.9641,5.0535,5.0534,5.0675,5.1059,5.1274,5.0742,4.902,4.8423,4.8217,4.8387,4.762,4.8286,5.0819,5.088,5.0031,4.8295,4.863,4.7918,4.6127,4.3074,4.188,4.2385,3.8705,3.7168,3.7517,3.8757,3.9469,4.0165,4.6449,5.088,5.3589,5.251,5.3268,0.0,5.3796,5.46,5.6322,5.6115,5.6505,5.7079,5.6568,5.626,5.6014,5.555,5.5115,5.4653,5.4412,5.4543,5.4631,5.4325,5.4456,5.4565,5.3975,5.3275,5.2554,5.2009,5.1485,5.1048,5.083,5.0078,4.9262,4.8458,4.4838,4.0901,3.77,3.6172,3.5332,3.5117,3.6113,3.6582,3.584,3.7344,3.8086,3.7152,3.7266,3.7383,3.7383,3.7598,3.8287,3.9445,4.1395,4.2215,4.1613,4.1552,4.1173,4.0459,3.7763,3.6967,3.8082,3.6815,3.6433,3.6885,3.6885,3.6885,3.6885,3.6885,3.6885,3.6885,3.6885,3.7008,3.7155,3.7595,3.7742,3.7645,3.6794,3.6412,3.62,4.2782,4.4106,4.5232,4.4418,4.7719,5.0302,4.9868,4.9565,4.9916,5.1513,5.0561,4.991,5.0444,5.1025,5.1301,5.1094,4.8699,4.8286,5.0911,4.739,4.7069,5.1209,5.0122,4.9411,4.9411,4.8997,4.8928,4.9204,4.4336,4.2729,4.4107,3.9187,3.6915,3.6961,3.8459,3.9538,4.0663,4.6173,5.0398,5.336,5.2901,5.3796,5.5265,5.3635,5.414,5.5637,5.5197,5.5725,5.6623,5.6086,5.5999,5.5926,5.5001,5.4697,5.4609,5.4041,5.4281,5.4675,5.4631,5.4653,5.4696,5.4696,5.4696,5.4565,5.3997,5.3888,5.3757,5.332,5.2454,5.1187,4.9212,4.4438,3.9312,3.4765,3.4642,3.5029,3.4869,3.668,3.7383,3.5684,3.7945,0.0,3.6235,3.6465,3.6734,3.6636,3.6675,3.6968,3.7519,4.0077,4.083,3.9207,3.9834,3.9188,3.7074,3.5373,3.4979,3.5949,3.5443,3.5805,3.6885,3.6885,3.6885,3.6885,3.6885,3.6885,3.6885,3.6981,3.7195,3.7569,3.8076,3.829,3.8299,3.8032,3.7555,3.6972,4.4061,4.4265,4.5261,4.6536,4.696,4.805,5.0817,5.3127,5.3405,5.007,5.1524,5.2145,5.025,5.0842,5.0865,4.9617,4.902,4.8951,4.9479,4.8768,4.925,5.1301,5.1117,5.098,5.098,5.0926,5.0513,4.9778,4.5944,4.3395,4.2049,3.8212,3.6419,3.6488,3.7563,4.0846,4.5587,4.5438,4.7872,5.1783,5.1691,5.2143,5.2878,5.336,5.4026,5.4623,5.414,5.5128,5.6578,5.5657,5.5663,5.5993,5.5444,5.4983,5.4609,5.4041,5.4281,5.4609,5.4172,5.4346,5.4696,5.4696,5.4696,5.4565,5.3997,5.3888,5.3757,5.332,5.2454,5.0932,4.7995,4.1789,3.6866,3.6062,3.4502,3.3956,3.5568,3.7324,3.7832,3.6113,3.7272,3.7652,3.6171,3.6719,3.6894,3.6191,3.6465,3.7305,3.8789,3.907,3.9739,4.0904,4.0027,4.0147,4.136,3.7717,3.7217,3.9804,3.6661,3.5805,3.6885,3.6885,3.6885,3.6885,3.6885,3.6885,3.6912,3.7195,3.7635,3.8174,3.8281,3.8455,3.8593,3.853,3.8499,3.8208,4.6348,4.5343,4.5071,4.6264,4.71,4.8187,4.9932,5.2561,5.3366,5.0656,5.2054,5.2604,5.0887,5.1362,5.1408,5.0398,4.9571,4.9457,5.0222,4.9548,4.9801,5.1324,5.1392,5.1002,5.0237,5.0452,4.997,4.8685,4.5129,4.2798,4.152,3.7683,3.5887,3.5979,3.8074,4.1337,4.5347,4.6196,4.8286,5.1048,5.1867,5.251,5.3015,5.3498,5.4003,5.4393,5.414,5.4852,5.5782,5.5088,5.538,5.586,5.4629,5.4456,5.4565,5.3779,5.4084,5.4653,5.4368,5.4522,5.4631,5.4346,5.4281,5.415,5.3626,5.3517,5.3386,5.2927,5.1509,4.8841,4.3851,4.0009,3.7427,3.694,3.5723,3.5475,3.74,3.8594,3.8867,3.7793,3.9376,3.9739,3.7566,3.8144,3.7832,3.584,3.6309,3.6968,3.7519,3.948,4.1,4.1907,4.1977,4.2278,4.2902,3.8894,3.7692,3.931,3.6326,3.5605,3.6885,3.6885,3.6885,3.6885,3.6885,3.6885,3.6925,3.7422,3.7863,3.8321,3.8437,3.8584,3.8718,3.8718,3.8718,3.8588,4.9032,4.7568,4.6727,4.7703,4.8463,4.9263,5.0406,5.1624,5.2258,5.176,5.2327,5.2487,5.1798,5.1913,5.173,5.0957,5.0122,4.9847,5.0421,4.9916,5.0008,5.0865,5.1209,5.0819,4.964,4.9801,4.9158,4.7584,4.4372,4.2178,4.09,3.754,3.6002,3.614,3.9429,4.2164,4.4474,4.7229,4.9388,5.1064,5.2258,5.3061,5.352,5.352,5.3819,5.4255,5.4255,5.4668,5.5099,5.4541,5.5052,5.5615,5.3864,5.3953,5.4522,5.3626,5.3975,5.4653,5.4456,5.4478,5.4368,5.3779,5.367,5.3582,5.3036,5.254,5.2067,5.1701,4.9281,4.5667,4.05,3.8828,3.7953,3.7135,3.6621,3.6887,3.8354,3.9498,3.9961,3.9414,4.0996,4.115,3.8594,3.8534,3.7725,3.5416,3.5957,3.6484,3.668,3.9435,4.0914,4.0665,4.2331,4.2849,4.2082,3.8855,3.7834,3.8899,3.6086,3.5498,3.7008,3.6912,3.6952,3.7059,3.7048,3.7088,3.7206,3.7635,3.8036,3.8428,3.8624,3.8718,3.8718,3.8718,3.8718,3.866,5.169,5.1717,5.2669,5.4921,5.1964,5.0797,5.5371,5.3074,5.1293,5.2579,5.2464,5.2372,5.2717,5.2005,5.0865,4.9457,5.0467,5.0099,4.7482,4.9755,5.065,4.9388,5.0635,5.1324,5.1163,5.0352,4.9158,4.7597,4.5438,4.25,3.8849,3.7976,3.7563,3.7747,4.1696,4.4359,4.5978,4.7689,4.9801,5.2051,5.2189,5.2533,5.2969,5.2969,5.3291,5.375,5.375,5.4393,5.5054,5.4201,5.4514,5.5191,5.4149,5.4237,5.4587,5.3975,5.4237,5.45,5.3582,5.3669,5.3735,5.2861,5.2948,5.3036,5.214,5.0316,4.8824,4.8718,4.4835,4.1364,4.1076,3.8223,3.5902,3.5924,3.5941,3.6118,3.6531,3.9182,4.0781,3.9922,3.9351,3.8589,3.7533,3.575,3.4666,3.4764,3.5234,3.6504,3.8789,3.7461,3.6085,3.4998,3.7816,3.8927,3.8044,3.7027,3.8349,4.1816,3.7055,3.5672,3.7342,3.7048,3.7179,3.7702,3.7448,3.7635,3.8174,3.7889,3.8143,3.8691,3.866,3.8718,3.8718,3.8718,3.8718,3.866,5.5138,5.3782,5.3239,5.4921,5.2705,5.1705,5.4749,5.3132,5.2005,5.3222,5.3199,5.3038,5.2901,5.2281,5.15,5.0544,5.1025,5.0903,4.9686,5.0742,5.1117,5.0536,5.1048,5.1232,5.0911,5.026,4.9158,4.7584,4.4647,4.2078,3.9882,3.816,3.816,3.9744,4.289,4.5301,4.7115,4.8653,5.0237,5.173,5.173,5.2028,5.2464,5.2464,5.2969,5.3704,5.3704,5.414,5.4573,5.3683,5.4042,5.4675,5.3445,5.3604,5.4084,5.3298,5.3626,5.4084,5.3407,5.3363,5.3233,5.2315,5.2228,5.1759,4.9448,4.8355,4.75,4.613,4.3287,4.0694,3.9616,3.8006,3.7538,3.9522,3.9419,3.9687,4.1298,4.2185,4.2773,4.2949,4.1049,3.9913,4.0314,3.6881,3.5412,3.7277,3.6875,3.6875,3.7637,3.834,3.8405,3.7748,3.9518,4.0449,4.0373,3.8535,3.867,4.0763,3.7423,3.6473,3.7635,3.7155,3.7032,3.7246,3.7529,3.7782,3.7996,3.8076,3.833,3.8718,3.8718,3.8718,3.8718,3.8718,3.9631,4.0857,5.8292,5.6522,5.541,5.6414,5.4575,5.3298,5.4394,5.3241,5.2366,5.274,5.3061,5.3153,5.2924,5.2327,5.1638,5.0811,5.1117,5.1002,5.0145,5.0926,5.1186,5.0727,5.114,5.1209,5.0819,5.0237,4.9227,4.7836,4.5175,4.3041,4.1435,3.9921,4.0265,4.227,4.4956,4.6862,4.8148,4.9709,5.0765,5.1392,5.1392,5.1638,5.1982,5.2159,5.2625,5.3268,5.3406,5.3681,5.3858,5.3097,5.3347,5.3781,5.2786,5.3145,5.3735,5.2948,5.3276,5.3757,5.3167,5.2905,5.2577,5.1594,5.098,4.995,4.7361,4.6121,4.4879,4.2587,4.1104,3.9803,3.857,3.8147,3.8817,4.1404,4.1719,4.2319,4.4259,4.4185,4.4082,4.457,4.1655,3.9855,4.045,3.6886,3.5249,3.7033,3.719,3.7451,3.7988,3.8217,3.8434,3.8552,3.9,3.97,4.0623,3.8745,3.867,4.0414,3.7756,3.6981,3.7809,3.7489,3.7286,3.7342,3.7782,3.7996,3.8103,3.8223,3.8437,3.8718,3.8718,3.8718,3.8718,3.8718,4.0238,4.2304,6.0871,6.0735,6.0871,6.1407,5.8492,5.5915,5.552,5.3607,5.186,5.0872,5.1608,5.2372,5.2855,5.2028,5.0773,4.9273,5.0498,5.0145,4.7173,4.9755,5.0742,4.9204,5.0605,5.1392,5.137,5.0421,4.9411,4.8377,4.7813,4.6001,4.3074,4.4061,4.4796,4.5473,4.8492,4.9571,4.9204,5.0742,5.137,5.1392,5.1392,5.1392,5.1477,5.1982,5.2228,5.2297,5.274,5.2901,5.2873,5.2448,5.232,5.2336,5.2479,5.3145,5.38,5.3342,5.3517,5.3691,5.2752,5.2162,5.1572,5.0568,4.9037,4.7486,4.6516,4.3494,4.0193,3.7714,3.7462,3.7924,3.856,3.8688,3.9025,4.0066,4.1444,4.2622,4.3325,4.3978,4.4219,4.3769,4.0062,3.7128,3.6163,3.4486,3.3123,3.2436,3.5275,3.8225,4.0996,3.614,3.3811,3.4909,3.415,3.4667,3.6649,3.6489,3.826,4.1801,3.8223,3.6981,3.7809,3.8116,3.825,3.825,3.8321,3.8437,3.8691,3.8397,3.8437,3.8718,3.8718,3.8718,3.8718,3.8718,4.0238,4.2304,5.7988,5.9405,6.0464,5.9405,5.7493,5.618,5.6344,5.3698,5.1798,5.2143,5.189,5.1844,5.235,5.1821,5.1186,5.0681,5.0168,4.9893,4.9962,4.9893,5.0062,5.0635,5.0145,4.9686,4.9365,4.8662,4.8033,4.7403,4.6862,4.5921,4.4691,4.5702,4.6793,4.7987,4.9319,5.0191,5.0681,5.1186,5.1392,5.1392,5.1392,5.1392,5.1392,5.1615,5.1867,5.2228,5.235,5.2625,5.2804,5.2083,5.2029,5.2202,5.171,5.2184,5.2861,5.2381,5.2577,5.2817,5.2184,5.1682,5.0887,4.9021,4.7857,4.6289,4.2595,3.9756,3.7789,3.7233,3.7607,3.8163,3.8608,4.0002,4.1404,4.2431,4.4691,4.6269,4.6288,4.571,4.4713,4.3216,3.9848,3.7671,3.7755,3.4959,3.3741,3.5189,3.4368,3.5339,3.8886,3.814,3.7548,3.7293,3.622,3.5625,3.5628,3.5388,3.6332,3.8473,3.7302,3.7048,3.7529,3.825,3.825,3.7702,3.833,3.8397,3.8086,3.8437,3.8624,3.8718,3.8718,3.8718,3.8892,4.0556,4.2689,4.5046,5.8232,5.9514,6.0518,5.9595,5.7571,5.6079,5.6004,5.3388,5.1431,5.1477,5.1454,5.1546,5.1867,5.1615,5.1392,5.1392,5.0498,5.036,5.1324,5.0475,5.0383,5.1347,5.0452,4.9847,4.9548,4.8983,4.857,4.8286,4.778,4.7482,4.738,4.7987,4.8882,4.9985,5.0329,5.0796,5.1392,5.1392,5.1392,5.1392,5.1392,5.1392,5.1392,5.1392,5.1615,5.189,5.189,5.2097,5.2215,5.1565,5.1555,5.1684,5.1007,5.1332,5.1922,5.1834,5.2118,5.2337,5.1703,5.1157,5.0409,4.8806,4.7584,4.5533,4.0832,3.8127,3.6733,3.7226,3.7798,3.8338,3.8799,4.0687,4.2684,4.4232,4.6368,4.8014,4.8542,4.6792,4.4791,4.298,3.9774,3.7711,3.766,3.5497,3.4544,3.5599,3.4541,3.5055,3.7778,3.7163,3.6863,3.7152,3.5593,3.4787,3.4857,3.479,3.5498,3.6885,3.7155,3.7382,3.7569,3.8086,3.8076,3.7595,3.825,3.833,3.8036,3.8504,3.8718,3.8718,3.8718,3.8718,3.8892,4.0397,4.3045,4.6173,6.0572,6.0627,6.0925,6.1298,5.844,5.5789,5.4935,5.2865,5.0865,4.9457,5.0536,5.1392,5.1392,5.1392,5.1392,5.1392,5.1278,5.1278,5.137,5.1278,5.1278,5.1392,5.1278,5.1232,5.1232,5.0704,5.0498,5.0589,5.0214,5.0237,5.0635,5.0635,5.0911,5.1392,5.1392,5.1392,5.1392,5.1392,5.1392,5.1392,5.1392,5.1392,5.1392,5.1392,5.1392,5.1392,5.1392,5.1392,5.1345,5.0979,5.0882,5.0813,5.0374,5.0611,5.1155,5.1616,5.2075,5.2249,5.1395,5.072,5.0177,4.962,4.7752,4.5046,4.102,3.8426,3.6977,3.7574,3.7973,3.8433,3.9101,4.0979,4.3192,4.54,4.6798,4.8203,4.9793,4.7131,4.4411,4.2769,3.973,3.7353,3.6231,3.6101,3.5542,3.4262,3.5556,3.6712,3.7469,3.4055,3.3073,3.53,3.3214,3.2808,3.4456,3.475,3.5578,3.6885,3.7529,3.7809,3.7809,3.7793,3.7849,3.7849,3.8116,3.8281,3.829,3.8584,3.8691,3.8718,3.8718,3.8718,3.8731,3.8892,4.1919,4.6005,5.7065,5.8883,6.041,5.9161,5.7363,5.6029,5.5789,5.3306,5.1255,5.0888,5.1163,5.1392,5.1392,5.1392,5.1392,5.1392,5.0291,5.0168,5.1301,5.0329,5.0191,5.1347,5.0283,4.9663,4.9663,4.9181,4.9479,5.0589,5.0888,5.1094,5.1209,5.1209,5.1255,5.1392,5.1392,5.1392,5.1392,5.1392,5.1392,5.1392,5.1392,5.1392,5.1392,5.1392,5.1392,5.1392,5.1392,5.1392,5.1277,5.0613,5.0591,5.0768,5.0,5.0109,5.0589,5.1092,5.1594,5.1922,5.1682,5.0983,4.9958,4.8519,4.59,4.309,4.0635,3.9617,3.8897,3.7925,3.8147,3.8703,3.9132,4.2335,4.5019,4.5204,4.8065,4.9509,4.7528,4.5376,4.285,3.9828,3.847,3.7475,3.6576,3.7301,3.7304,3.6079,3.6052,3.6262,3.6763,3.5485,3.5841,3.8153,3.6391,3.5531,3.5979,3.6059,3.638,3.6885,3.7529,3.7809,3.7809,3.8036,3.82,3.8143,3.7996,3.8036,3.8321,3.8388,3.8504,3.8718,3.8718,3.8718,3.8892,4.0786,4.333,4.6278,5.8557,5.9806,6.079,5.9568,5.7545,5.6104,5.6104,5.3436,5.1392,5.1392,5.1392,5.1392,5.1392,5.1392,5.1392,5.1392,5.0612,5.0536,5.1324,5.0627,5.0498,5.1347,5.0627,5.0168,5.0168,4.9916,5.0168,5.0957,5.1255,5.1392,5.1392,5.1392,5.1392,5.1392,5.1392,5.1392,5.1392,5.1392,5.1392,5.1392,5.1392,5.1392,5.1392,5.1392,5.1392,5.1392,5.1392,5.1392,5.1277,5.0478,5.0384,5.045,4.954,4.9588,5.0065,5.0327,5.0917,5.1463,5.1463,5.107,5.0341,4.8906,4.6496,4.3904,4.1822,4.0927,4.0053,3.829,3.8465,3.9419,4.0875,4.3709,4.6046,4.6671,4.8321,4.8776,4.6618,4.3826,4.1367,3.9568,3.8709,3.8203,3.8096,3.8908,3.9169,3.8445,3.7658,3.738,3.778,3.7022,3.7164,3.8501,3.7617,3.6948,3.668,3.6663,3.6981,3.7555,3.7742,3.7889,3.8036,3.824,3.824,3.8036,3.7889,3.7996,3.8321,3.8321,3.8437,3.8718,3.8718,3.8718,3.8878,4.0181,4.2889,4.6221,6.1868,6.1678,6.1461,6.1007,5.8513,5.646,5.6166,5.3709,5.177,5.1431,5.1392,5.1392,5.1392,5.1392,5.1392,5.1392,5.1392,5.1392,5.1392,5.1392,5.1392,5.1392,5.1392,5.1392,5.1392,5.1392,5.1392,5.1392,5.1392,5.1392,5.1392,5.1392,5.1392,5.1392,5.1392,5.1392,5.1392,5.1392,5.1392,5.1392,5.1392,5.1392,5.1392,5.1392,5.1392,5.1392,5.1392,5.1392,5.1277,5.0478,5.0204,5.0048,4.9184,4.9191,4.9501,4.9566,5.0218,5.0936,5.1067,5.1111,5.0851,4.9956,4.8073,4.5855,4.3511,4.2109,4.0709,3.8677,3.9052,4.0539,4.3037,4.509,4.682,4.8151,4.7992,4.721,4.5759,4.256,4.0335,4.0357,3.9535,3.9219,3.9914,4.0501,4.0743,4.0635,3.9663,3.9251,3.97,3.8648,3.8016,3.8086,3.7982,3.7663,3.7019,3.707,3.7467,3.8076,3.7929,3.7996,3.824,3.8281,3.8143,3.7956,3.7849,3.7996,3.8388,3.829,3.8437,3.8718,3.8718,3.8718,3.8718,3.8718,4.1833,4.6245,6.2484,6.1941,6.1569,6.1488,6.0005,5.8187,5.6362,5.4951,5.348,5.1631,5.1392,5.1392,5.1392,5.1392,5.1392,5.1392,5.1392,5.1392,5.1392,5.1392,5.1392,5.1392,5.1392,5.1392,5.1392,5.1392,5.1392,5.1392,5.1392,5.1392,5.1392,5.1392,5.1392,5.1392,5.1392,5.1392,5.1392,5.1392,5.1392,5.1392,5.1392,5.1392,5.1392,5.1392,5.1392,5.1392,5.1392,5.1392,5.1277,5.0478,5.0204,5.0048,4.9184,4.8951,4.9104,4.9479,4.9697,5.0043,5.0851,5.1111,5.0939,5.0349,4.8724,4.6714,4.4339,4.2685,4.105,3.903,4.0649,4.2627,4.337,4.6449,4.8354,4.6635,4.7113,4.6351,4.2623,4.149,4.0671,3.9676,3.9618,3.9931,4.0596,4.0721,4.0878,4.1141,4.0838,4.0775,4.1157,4.0363,3.9866,3.9917,3.8956,3.8197,3.7688,3.7933,3.7763,3.7155,3.7849,3.8076,3.7889,3.8143,3.8428,3.8544,3.8036,3.8143,3.8624,3.837,3.8437,3.8718,3.8718,3.8718,3.8718,3.8718,4.2279,4.7228,6.308,6.2755,6.2383,6.1705,6.058,5.9046,5.6816,5.5652,5.4342,5.247,5.1982,5.1821,5.1821,5.1592,5.1392,5.1392,5.1392,5.1392,5.1392,5.1392,5.1392,5.1392,5.1392,5.1392,5.1392,5.1392,5.1392,5.1392,5.1392,5.1392,5.1392,5.1392,5.1392,5.1392,5.1392,5.1392,5.1392,5.1392,5.1392,5.1392,5.1392,5.1392,5.1392,5.1392,5.1392,5.1392,5.1392,5.1392,5.1277,5.0478,5.0204,5.0048,4.9184,4.8907,4.8951,4.917,4.9803,5.0502,5.098,5.1111,5.1067,5.0786,4.9316,4.7286,4.4832,4.3294,4.2126,4.1224,4.2227,4.411,4.6969,4.8596,4.9589,4.9858,4.8667,4.6577,4.34,4.1967,4.0675,3.9236,3.9666,4.0324,4.1007,4.1246,4.15,4.1865,4.1524,4.137,4.151,4.1064,4.0612,4.0293,3.9388,3.8927,3.8958,3.8654,3.8293,3.7856,3.817,3.8122,3.7809,3.8174,3.8388,3.8477,3.8183,3.833,3.8691,3.8397,3.8437,3.8718,3.8718,3.8718,3.8892,4.0498,4.3795,4.7706,6.3677,6.3487,6.308,6.2193,6.1399,6.0216,5.7913,5.7087,5.6075,5.4312,5.3304,5.2767,5.2767,5.1939,5.1392,5.1392,5.1392,5.1392,5.1392,5.1392,5.1392,5.1392,5.1392,5.1392,5.1392,5.1392,5.1392,5.1392,5.1392,5.1392,5.1392,5.1392,5.1392,5.1392,5.1392,5.1392,5.1392,5.1392,5.1392,5.1392,5.1392,5.1392,5.1392,5.1392,5.1392,5.1392,5.1392,5.1392,5.1277,5.0478,5.0204,5.0048,4.9184,4.8907,4.8907,4.8907,4.9781,5.0764,5.0873,5.1024,5.1111,5.1111,4.9512,4.7534,4.5905,4.4402,4.3481,4.3919,4.4764,4.6569,5.0382,5.0902,5.1101,5.2261,4.9505,4.6409,4.4066,4.2039,4.0368,3.9293,3.998,4.0769,4.1373,4.1639,4.1909,4.2246,4.1832,4.1588,4.1682,4.1501,4.1165,4.0784,3.9909,3.9594,4.0002,3.9358,3.8945,3.8844,3.8692,3.8342,3.7899,3.8251,3.8368,3.8321,3.8321,3.8437,3.8691,3.8477,3.8504,3.8789,3.9502,3.9733,4.0109,4.3129,4.6171,4.9177,6.4256,6.3794,6.3352,6.327,6.3226,6.2435,6.0289,6.0352,5.9942,5.7801,5.5708,5.4443,5.4443,5.2587,5.1392,5.1392,5.1392,5.1392,5.1392,5.1392,5.1392,5.1392,5.1392,5.1392,5.1392,5.1392,5.1392,5.1392,5.1392,5.1392,5.1392,5.1392,5.1392,5.1392,5.1392,5.1392,5.1392,5.1392,5.1392,5.1392,5.1392,5.1392,5.1392,5.1392,5.1392,5.1392,5.1392,5.1392,5.1277,5.0478,5.0204,5.0048,4.9184,4.8907,4.8907,4.8907,4.9301,4.9785,5.0262,5.072,5.1111,5.1111,4.8998,4.7199,4.8382,4.6433,4.4888,4.6681,4.9235,5.1188,5.1576,5.3131,5.3365,5.0355,4.7564,4.481,4.2205,4.0496,3.9682,4.0125,4.0787,4.1389,4.1719,4.1782,4.1798,4.183,4.1778,4.1921,4.2322,4.2079,4.1964,4.2041,4.0976,4.0318,4.0072,3.9988,3.9655,3.9196,3.9378,3.9083,3.8262,3.8562,3.8508,3.8321,3.8321,3.8437,3.8718,3.8691,3.8691,3.895,4.1761,4.2889,4.3201,4.6206,4.9676,5.3022,6.431,6.412,6.3523,6.214,6.3062,6.288,5.9644,6.0542,6.0927,5.9072,5.6671,5.5101,5.5101,5.2874,5.1392,5.1392,5.1392,5.1392,5.1392,5.1392,5.1392,5.1392,5.1392,5.1392,5.1392,5.1392,5.1392,5.1392,5.1392,5.1392,5.1392,5.1392,5.1392,5.1392,5.1392,5.1392,5.1392,5.1392,5.1392,5.1392,5.1392,5.1392,5.1392,5.1392,5.1392,5.1392,5.1392,5.1392,5.1277,5.0478,5.0204,5.0048,4.9184,4.8907,4.8907,4.8907,4.9038,4.9213,4.9388,5.024,5.1111,5.1111,4.9828,4.8699,4.9203,4.7746,4.6922,4.9117,5.0696,5.2105,5.335,5.4422,5.4123,5.092,4.9255,4.691,4.2709,4.1856,4.1269,4.0139,4.0769,4.1452,4.175,4.1798,4.1798,4.1798,4.2056,4.2246,4.2374,4.2387,4.2478,4.2744,4.1985,4.1338,4.0855,4.05,4.0006,3.944,3.9554,3.9222,3.8543,3.882,3.8774,3.8565,3.8698,3.8782,3.8718,3.8718,3.979,4.1618,4.2746,4.4321,4.635,4.9621,5.1925,5.3708,6.4853,6.488,6.4113,6.1771,6.3122,6.3423,5.9869,6.1207,6.2242,6.1089,5.858,5.6731,5.626,5.3775,5.1924,5.147,5.1392,5.1392,5.1392,5.1392,5.1392,5.1392,5.1392,5.1392,5.1392,5.1392,5.1392,5.1392,5.1392,5.1392,5.1392,5.1392,5.1392,5.1392,5.1392,5.1392,5.1392,5.1392,5.1392,5.1392,5.1392,5.1392,5.1392,5.1392,5.1392,5.1392,5.1392,5.1392,5.1277,5.0478,5.0204,5.0048,4.9184,4.8907,4.8929,4.9082,4.9126,4.9126,4.9126,5.0087,5.1067,5.0873,5.0379,5.0036,5.0522,4.9689,4.9446,5.1836,5.2618,5.3264,5.4669,5.4552,5.3387,5.0862,4.9011,4.6603,4.297,4.2307,4.1767,4.0458,4.0975,4.1579,4.1766,4.1798,4.183,4.1957,4.2246,4.2485,4.2691,4.2892,4.3103,4.3354,4.2798,4.2256,4.1876,4.113,4.0519,4.0032,3.9902,3.9585,3.8967,3.9138,3.9099,3.89,3.9897,4.0306,4.0315,4.1203,4.2746,4.4717,4.5619,4.7214,4.9433,5.289,5.4467,5.5171,6.5992,6.6091,6.5248,6.2593,6.3825,6.4298,6.162,6.2947,6.431,6.431,6.1927,5.9631,5.805,5.5394,5.3096,5.1547,5.1392,5.1392,5.1392,5.1392,5.1392,5.1392,5.1392,5.1392,5.1392,5.1392,5.1392,5.1392,5.1392,5.1392,5.1392,5.1392,5.1392,5.1392,5.1392,5.1392,5.1392,5.1392,5.1392,5.1392,5.1392,5.1392,5.1392,5.1392,5.1392,5.1392,5.1392,5.1392,5.1277,5.0478,5.0182,5.0048,4.9184,4.8907,4.8995,4.9435,4.9588,4.9588,4.9588,5.0349,5.098,5.0436,5.0294,5.0846,5.278,5.2441,5.2419,5.4906,5.5373,5.5373,5.5373,5.3369,5.1188,4.9688,4.5857,4.2899,4.2617,4.1257,4.0546,4.123,4.1576,4.1782,4.1782,4.1798,4.1941,4.2358,4.2389,4.2691,4.3375,4.3686,4.3877,4.3877,4.3354,4.3099,4.3099,4.1931,4.1224,4.0973,4.0651,4.0202,3.9585,3.9585,3.944,3.9322,4.1999,4.3381,4.3861,4.6549,4.7716,4.8033,5.0979,5.2109,5.2545,5.5931,5.748,5.7984,6.5423,6.583,6.5323,6.2935,6.4012,6.4543,6.2519,6.3782,6.5097,6.5531,6.2493,5.9922,5.9097,5.5496,5.2829,5.2021,5.1638,5.1392,5.1392,5.1392,5.1392,5.1392,5.1392,5.1392,5.1392,5.1392,5.1392,5.1392,5.1392,5.1392,5.1392,5.1392,5.1392,5.1392,5.1392,5.1392,5.1392,5.1392,5.1392,5.1392,5.1392,5.1392,5.1392,5.106,5.0983,5.0944,5.0672,5.0555,5.0478,4.9892,4.9695,4.9617,4.9065,4.8907,4.8995,4.9435,4.9588,4.9654,5.0021,5.0589,5.1067,5.0895,5.161,5.2585,5.3474,5.3755,5.4032,5.4738,5.379,5.2698,5.2298,5.0741,4.861,4.575,4.4679,4.3379,4.0996,4.0624,4.0626,4.0594,4.1118,4.1468,4.1468,4.1929,4.2262,4.2374,4.2834,4.3295,4.3756,4.3829,4.3877,4.3877,4.3731,4.3461,4.3099,4.231,4.1704,4.1224,4.1105,4.0788,4.0216,4.0216,4.095,4.2166,4.2971,4.42,4.5672,4.6762,4.8477,5.0462,5.1637,5.3397,5.544,5.7111,5.7808,5.7984,6.5504,6.5857,6.5323,6.2897,6.3975,6.4479,6.2403,6.3665,6.4748,6.4465,6.2171,5.9965,5.8394,5.5652,5.3577,5.2845,5.2667,5.2441,5.2028,5.2005,5.1821,5.1392,5.1392,5.1392,5.1392,5.1392,5.1392,5.1392,5.1392,5.1392,5.1392,5.1392,5.1392,5.1392,5.1392,5.1315,5.1138,5.1138,5.106,5.0905,5.0905,5.0905,5.0905,5.0672,5.0555,5.0516,5.0283,5.0204,5.0126,4.9656,4.9381,4.9223,4.8986,4.9038,4.9279,4.9719,4.9872,5.0,5.048,5.083,5.1155,5.131,5.214,5.2778,5.2325,5.2469,5.2567,5.1914,5.0701,4.9656,4.9465,4.7844,4.5907,4.3842,4.3087,4.2093,4.0251,4.034,4.0562,4.0499,4.0975,4.1373,4.1449,4.204,4.2501,4.2771,4.3311,4.3708,4.3877,4.3877,4.3877,4.3877,4.3877,4.3731,4.3408,4.3068,4.2473,4.1659,4.1659,4.1333,4.0842,4.1753,4.2712,4.3697,4.5702,4.7299,4.8682,4.9984,5.173,5.355,5.3792,5.5022,5.666,5.7363,5.7598,5.7676,6.5874,6.6009,6.527,6.2821,6.3937,6.4298,6.1672,6.2879,6.3536,6.194,6.1146,5.9592,5.6682,5.5736,5.4887,5.3806,5.407,5.3904,5.3004,5.2998,5.2546,5.1652,5.1606,5.1544,5.1414,5.14,5.1392,5.1392,5.1354,5.1354,5.1354,5.1315,5.1315,5.1315,5.1315,5.106,5.075,5.075,5.0516,5.0204,5.0204,5.0204,5.0204,5.0143,5.0165,5.0126,5.0126,5.0087,5.0009,4.9578,4.9223,4.8907,4.8907,4.9235,4.9675,5.0174,5.0349,5.0502,5.1004,5.1053,5.1016,5.1407,5.1737,5.1573,5.0068,4.9638,4.9078,4.7658,4.685,4.6479,4.6774,4.4789,4.3119,4.3153,4.1255,3.9928,4.0197,4.0276,4.0403,4.0705,4.1087,4.1452,4.175,4.2231,4.2755,4.3406,4.3756,4.3877,4.3877,4.3877,4.3877,4.3877,4.3877,4.3877,4.3877,4.3877,4.3338,4.231,4.231,4.2039,4.1644,4.376,4.4655,4.4725,4.93,5.1561,5.2337,5.482,5.6133,5.6523,5.6562,5.6582,5.664,5.7051,5.7207,5.7265,6.5178,6.5395,6.5193,6.4624,6.492,6.4432,6.223,6.2306,6.2005,6.0466,5.9276,5.815,5.7131,5.5652,5.4465,5.3831,5.3491,5.3382,5.3524,5.3524,5.3411,5.3206,5.3184,5.2681,5.1593,5.1432,5.1392,5.1392,5.106,5.0944,5.0905,5.0594,5.0478,5.0478,5.0478,5.04,5.0322,5.0322,5.0283,5.0204,5.0204,5.0204,5.0165,4.9813,4.9656,4.9617,4.9302,4.9162,4.9184,4.9065,4.8986,4.8907,4.8907,4.9235,4.9675,5.0174,5.0589,5.1004,5.1507,5.0589,4.9384,4.9196,4.8343,4.8033,4.9857,4.9094,4.7883,4.7154,4.5405,4.3972,4.3919,4.1839,4.0221,4.0562,4.0141,3.9848,3.9928,4.0117,4.0324,4.0388,4.0944,4.1452,4.175,4.266,4.3359,4.3734,4.3845,4.3877,4.3877,4.3877,4.3877,4.3877,4.3877,4.3877,4.3877,4.3877,4.3569,4.2921,4.2921,4.3268,4.3975,4.4495,4.6344,4.919,5.029,5.1991,5.4149,5.5045,5.5683,5.6113,5.6445,5.6582,5.664,5.7051,5.7207,5.7226,6.4663,6.3982,6.3298,6.3288,6.2449,6.1439,6.034,6.0185,5.9623,5.7991,5.7249,5.6494,5.5719,5.4765,5.4315,5.455,5.4498,5.4353,5.4091,5.4088,5.3885,5.3412,5.339,5.3019,5.2257,5.2186,5.1702,5.0828,5.0633,5.0516,5.0516,5.0322,5.0204,5.0204,5.0451,5.0423,5.0226,5.0471,5.033,4.991,4.991,4.9777,4.9578,4.9302,4.9223,4.9184,4.8986,4.8907,4.8907,4.8907,4.8907,4.8951,4.917,4.9585,5.0003,5.0524,5.0873,5.1177,5.1376,4.9932,4.8377,4.8335,4.6455,4.4968,4.6445,4.5991,4.4906,4.3706,4.223,4.117,4.1163,4.0106,3.9339,3.9704,3.9817,3.988,4.0039,4.0181,4.0356,4.0515,4.0991,4.1579,4.2278,4.3136,4.3686,4.3877,4.3877,4.3877,4.3877,4.3877,4.3877,4.3877,4.3877,4.3877,4.3877,4.3877,4.3785,4.3515,4.4307,4.4865,4.5206,4.7086,4.8928,5.0685,5.1997,5.3498,5.5019,5.543,5.5859,5.6269,5.6504,5.6582,5.6621,5.6836,5.6914,5.6914,6.4147,6.2387,6.0967,6.1033,5.9335,5.7888,5.7594,5.7555,5.6933,5.5181,5.5031,5.4758,5.3887,5.3931,5.4347,5.5225,5.5643,5.5505,5.4722,5.4655,5.4297,5.3429,5.3384,5.3276,5.3014,5.3014,5.2269,5.0698,5.0462,5.0333,5.0333,5.0076,5.0009,4.9992,5.0483,5.0445,5.0149,5.0568,5.0323,4.9588,4.9501,4.9257,4.8907,4.8907,4.8907,4.8907,4.8907,4.8907,4.8907,4.8995,4.8973,4.8995,4.9563,5.0,5.0415,5.0917,5.1177,5.116,5.0848,4.9132,4.7501,4.7664,4.5288,4.2945,4.3123,4.275,4.1902,4.0381,3.9528,3.9074,3.9101,3.918,3.9339,3.9704,3.9817,3.9912,4.0165,4.0308,4.0483,4.0753,4.1261,4.1929,4.2787,4.3518,4.3877,4.3877,4.3877,4.3877,4.3877,4.3877,4.3877,4.3877,4.3877,4.3877,4.3877,4.3877,4.3877,4.3931,4.5933,4.666,4.6289,4.9852,5.1377,5.1326,5.368,5.4922,5.5332,5.5709,5.6191,5.6582,5.6582,5.6582,5.6582,5.6582,5.6582,5.6582,6.3406,6.1523,5.9931,6.036,5.8731,5.6955,5.5536,5.5349,5.4627,5.2586,5.2669,5.3027,5.3254,5.4062,5.4631,5.4785,5.4829,5.4983,5.5246,5.5289,5.5223,5.509,5.509,5.4474,5.3207,5.3185,5.2976,5.2615,5.1441,5.088,5.0858,4.9659,4.9105,4.9087,4.957,4.9749,4.9668,4.9774,4.9734,4.9544,4.917,4.8951,4.8907,4.8907,4.8907,4.8907,4.8907,4.8907,4.8973,4.9348,4.9257,4.906,4.9934,5.0262,5.0415,5.0917,5.1376,5.1347,4.9722,4.7847,4.6249,4.5517,4.4356,4.3556,4.4405,4.2682,4.1019,4.1471,4.0509,3.9429,3.8877,3.9005,3.9339,3.9704,3.9817,3.9833,3.988,4.034,4.0737,4.0785,4.1897,4.2723,4.2866,4.3518,4.3877,4.3877,4.3877,4.3877,4.3877,4.3877,4.3877,4.3877,4.3877,4.3877,4.3877,4.3877,4.3877,4.3931,4.7137,4.8596,4.8614,5.0599,5.2274,5.3583,5.4389,5.4922,5.5332,5.5709,5.6191,5.6582,5.6582,5.6582,5.6582,5.6582,5.6582,5.6582,6.3406,6.0671,5.8353,5.8529,5.5932,5.3756,5.3592,5.3561,5.3298,5.2683,5.2533,5.2664,5.3167,5.3844,5.4368,5.4675,5.4696,5.4785,5.5005,5.5005,5.5005,5.5005,5.5005,5.472,5.4062,5.4062,5.4018,5.3945,5.2255,5.1446,5.1446,5.0802,5.0524,5.0524,5.0742,5.0851,5.083,5.0546,5.0262,4.9937,4.9497,4.9148,4.8907,4.8907,4.8907,4.8907,4.8907,4.8907,4.8929,4.9148,4.9257,4.9432,5.0109,5.0502,5.0786,5.1046,5.1419,5.1449,4.9775,4.8378,4.7271,4.6518,4.55,4.5087,4.6781,4.5396,4.3845,4.4208,4.3785,4.2886,4.1382,4.1361,4.1201,4.0028,4.0135,4.0389,4.0389,4.0769,4.115,4.1357,4.2103,4.2612,4.2612,4.3232,4.3565,4.3359,4.3533,4.3645,4.3645,4.3645,4.374,4.3877,4.3877,4.3877,4.3877,4.3877,4.3877,4.3931,4.6412,4.8088,4.9086,5.1706,5.3423,5.4363,5.3837,5.3819,5.4219,5.4657,5.4942,5.5221,5.6207,5.6582,5.6582,5.6582,5.6582,5.6582]},{"header":{"parameterUnit":"m.s-1","parameterCategory":1,"la1":30.6,"la2":28.766,"lo1":-90.7593,"lo2":-88.6598,"dy":0.0162,"dx":0.0183,"nx":116,"ny":114,"refTime":"2023-04-10T12:00:00:Z","depth":0,"parameterNumber":3,"parameterNumberName":"V-component_of_WINDS"},"data":[0.0,0.0,0.0,0.0,0.0,0.0,0.0,0.0,0.0,0.0,0.0,0.0,0.0,0.0,0.0,0.0,0.0,0.0,0.0,0.0,0.0,0.0,0.0,0.0,0.0,0.0,0.0,0.0,0.0,0.0,0.0,0.0,0.0,0.0,0.0,0.0,0.0,0.0,0.0,0.0,0.0,0.0,0.0,0.0,0.0,0.0,0.0,0.0,0.0,0.0,0.0,0.0,0.0,0.0,0.0,0.0,0.0,0.0,0.0,0.0,0.0,0.0,0.0,0.0,0.0,0.0,0.0,0.0,0.0,0.0,0.0,0.0,0.0,0.0,0.0,0.0,0.0,0.0,0.0,0.0,0.0,0.0,0.0,0.0,0.0,0.0,0.0,0.0,0.0,0.0,0.0,0.0,0.0,0.0,0.0,0.0,0.0,0.0,0.0,0.0,0.0,0.0,0.0,0.0,0.0,0.0,0.0,0.0,0.0,0.0,0.0,0.0,0.0,0.0,0.0,0.0,0.0,0.0,0.0,0.0,0.0,0.0,0.0,0.0,0.0,0.0,0.0,0.0,0.0,0.0,0.0,0.0,0.0,0.0,0.0,0.0,0.0,0.0,0.0,0.0,0.0,0.0,0.0,0.0,0.0,0.0,0.0,0.0,0.0,0.0,0.0,0.0,0.0,0.0,0.0,0.0,0.0,0.0,0.0,0.0,0.0,0.0,0.0,0.0,0.0,0.0,0.0,0.0,0.0,0.0,0.0,0.0,0.0,0.0,0.0,0.0,0.0,0.0,0.0,0.0,0.0,0.0,0.0,0.0,0.0,0.0,0.0,0.0,0.0,0.0,0.0,0.0,0.0,0.0,0.0,0.0,0.0,0.0,0.0,0.0,0.0,0.0,0.0,0.0,0.0,0.0,0.0,0.0,0.0,0.0,0.0,0.0,0.0,0.0,0.0,0.0,0.0,0.0,0.0,0.0,0.0,0.0,0.0,0.0,0.0,0.0,0.0,0.0,0.0,0.0,0.0,0.0,0.0,0.0,0.0,0.0,0.0,0.0,0.0,0.0,0.0,0.0,0.0,0.0,0.0,0.0,0.0,0.0,0.0,0.0,0.0,0.0,0.0,0.0,0.0,0.0,0.0,0.0,0.0,0.0,0.0,0.0,0.0,0.0,0.0,0.0,0.0,0.0,0.0,0.0,0.0,0.0,0.0,0.0,0.0,0.0,0.0,0.0,0.0,0.0,0.0,0.0,0.0,0.0,0.0,0.0,0.0,0.0,0.0,0.0,0.0,0.0,0.0,0.0,0.0,0.0,0.0,0.0,0.0,0.0,0.0,0.0,0.0,0.0,0.0,0.0,0.0,0.0,0.0,0.0,0.0,0.0,0.0,0.0,0.0,0.0,0.0,0.0,0.0,0.0,0.0,0.0,0.0,0.0,0.0,0.0,0.0,0.0,0.0,0.0,0.0,0.0,0.0,0.0,0.0,0.0,0.0,0.0,0.0,0.0,0.0,0.0,0.0,0.0,0.0,0.0,0.0,0.0,0.0,0.0,0.0,0.0,0.0,0.0,0.0,0.0,0.0,0.0,0.0,0.0,0.0,0.0,0.0,0.0,0.0,0.0,0.0,0.0,0.0,0.0,0.0,0.0,0.0,0.0,0.0,0.0,0.0,0.0,0.0,0.0,0.0,0.0,0.0,0.0,0.0,0.0,0.0,0.0,0.0,0.0,0.0,0.0,0.0,0.0,0.0,0.0,0.0,0.0,0.0,0.0,0.0,0.0,0.0,0.0,0.0,0.0,0.0,0.0,0.0,0.0,0.0,0.0,0.0,0.0,0.0,0.0,0.0,0.0,0.0,0.0,0.0,0.0,0.0,0.0,0.0,0.0,0.0,0.0,0.0,0.0,0.0,0.0,0.0,0.0,0.0,0.0,0.0,0.0,0.0,0.0,0.0,0.0,0.0,0.0,0.0,0.0,0.0,0.0,0.0,0.0,0.0,0.0,0.0,0.0,0.0,0.0,0.0,0.0,0.0,0.0,0.0,0.0,0.0,0.0,0.0,0.0,0.0,0.0,0.0,0.0,0.0,0.0,0.0,0.0,0.0,0.0,0.0,0.0,0.0,0.0,0.0,0.0,0.0,0.0,0.0,0.0,0.0,0.0,0.0,0.0,0.0,0.0,0.0,0.0,0.0,0.0,0.0,0.0,0.0,0.0,0.0,0.0,0.0,0.0,0.0,0.0,0.0,0.0,0.0,0.0,0.0,0.0,0.0,0.0,0.0,0.0,0.0,0.0,0.0,0.0,0.0,0.0,0.0,0.0,0.0,0.0,0.0,0.0,0.0,0.0,0.0,0.0,0.0,0.0,0.0,0.0,0.0,0.0,0.0,0.0,0.0,0.0,0.0,0.0,0.0,0.0,0.0,0.0,0.0,0.0,0.0,0.0,0.0,0.0,0.0,0.0,0.0,0.0,0.0,0.0,0.0,0.0,0.0,0.0,0.0,0.0,0.0,0.0,0.0,0.0,0.0,0.0,0.0,0.0,0.0,0.0,0.0,0.0,0.0,0.0,0.0,0.0,0.0,0.0,0.0,0.0,0.0,0.0,0.0,0.0,0.0,0.0,0.0,0.0,0.0,0.0,0.0,0.0,0.0,0.0,0.0,0.0,0.0,0.0,0.0,0.0,0.0,0.0,0.0,0.0,0.0,0.0,0.0,0.0,0.0,0.0,0.0,0.0,0.0,0.0,0.0,0.0,0.0,0.0,0.0,0.0,0.0,0.0,0.0,0.0,0.0,0.0,0.0,0.0,0.0,0.0,0.0,0.0,0.0,0.0,0.0,0.0,0.0,0.0,0.0,0.0,0.0,0.0,0.0,0.0,0.0,0.0,0.0,0.0,0.0,0.0,0.0,0.0,0.0,0.0,0.0,0.0,0.0,0.0,0.0,0.0,0.0,0.0,0.0,0.0,0.0,0.0,0.0,0.0,0.0,0.0,0.0,0.0,0.0,0.0,0.0,0.0,0.0,0.0,0.0,0.0,0.0,0.0,0.0,0.0,0.0,0.0,0.0,0.0,0.0,0.0,0.0,0.0,0.0,0.0,0.0,0.0,0.0,0.0,0.0,0.0,0.0,0.0,0.0,0.0,0.0,0.0,0.0,0.0,0.0,0.0,0.0,0.0,0.0,0.0,0.0,0.0,0.0,0.0,0.0,0.0,0.0,0.0,0.0,0.0,0.0,0.0,0.0,0.0,0.0,0.0,0.0,0.0,0.0,0.0,0.0,0.0,0.0,0.0,0.0,0.0,0.0,0.0,0.0,0.0,0.0,0.0,0.0,0.0,0.0,0.0,0.0,0.0,0.0,0.0,0.0,0.0,0.0,0.0,0.0,0.0,0.0,0.0,0.0,0.0,0.0,0.0,0.0,0.0,0.0,0.0,0.0,0.0,0.0,0.0,0.0,0.0,0.0,0.0,0.0,0.0,0.0,0.0,0.0,0.0,0.0,0.0,0.0,0.0,0.0,0.0,0.0,0.0,0.0,0.0,0.0,0.0,0.0,0.0,0.0,0.0,0.0,0.0,0.0,0.0,0.0,0.0,0.0,0.0,0.0,0.0,0.0,0.0,0.0,0.0,0.0,0.0,0.0,0.0,0.0,0.0,0.0,0.0,0.0,0.0,0.0,0.0,0.0,0.0,0.0,0.0,0.0,0.0,0.0,0.0,0.0,0.0,0.0,0.0,0.0,0.0,0.0,0.0,0.0,0.0,0.0,0.0,0.0,0.0,0.0,0.0,0.0,0.0,0.0,0.0,0.0,0.0,0.0,0.0,0.0,0.0,0.0,0.0,0.0,0.0,0.0,0.0,0.0,0.0,0.0,0.0,0.0,0.0,0.0,0.0,0.0,0.0,0.0,0.0,0.0,0.0,0.0,0.0,0.0,0.0,0.0,0.0,0.0,0.0,0.0,0.0,0.0,0.0,0.0,0.0,0.0,0.0,0.0,0.0,0.0,0.0,0.0,0.0,0.0,0.0,0.0,0.0,0.0,0.0,0.0,0.0,0.0,0.0,0.0,0.0,0.0,0.0,0.0,0.0,0.0,0.0,0.0,0.0,0.0,0.0,0.0,0.0,0.0,0.0,0.0,0.0,0.0,0.0,0.0,0.0,0.0,0.0,0.0,0.0,0.0,0.0,0.0,0.0,0.0,0.0,0.0,0.0,0.0,0.0,0.0,0.0,0.0,0.0,0.0,0.0,0.0,0.0,0.0,0.0,0.0,0.0,0.0,0.0,0.0,0.0,0.0,0.0,0.0,0.0,0.0,0.0,0.0,0.0,0.0,0.0,0.0,0.0,0.0,0.0,0.0,0.0,0.0,0.0,0.0,0.0,0.0,0.0,0.0,0.0,0.0,0.0,0.0,0.0,0.0,0.0,0.0,0.0,0.0,0.0,0.0,0.0,0.0,0.0,0.0,0.0,0.0,0.0,0.0,0.0,0.0,0.0,0.0,0.0,0.0,0.0,0.0,0.0,0.0,0.0,0.0,0.0,0.0,0.0,0.0,0.0,0.0,0.0,0.0,0.0,0.0,0.0,0.0,0.0,0.0,0.0,0.0,0.0,0.0,0.0,0.0,0.0,0.0,0.0,0.0,0.0,0.0,0.0,0.0,0.0,0.0,0.0,0.0,0.0,0.0,0.0,0.0,0.0,0.0,0.0,0.0,0.0,0.0,0.0,0.0,0.0,0.0,0.0,0.0,0.0,0.0,0.0,0.0,0.0,0.0,0.0,0.0,0.0,0.0,0.0,0.0,0.0,0.0,0.0,0.0,0.0,0.0,0.0,0.0,0.0,0.0,0.0,0.0,0.0,0.0,0.0,0.0,0.0,0.0,0.0,0.0,0.0,0.0,0.0,0.0,0.0,0.0,0.0,0.0,0.0,0.0,0.0,0.0,0.0,0.0,0.0,0.0,0.0,0.0,0.0,0.0,0.0,0.0,0.0,0.0,0.0,0.0,0.0,0.0,0.0,0.0,0.0,0.0,0.0,0.0,0.0,0.0,0.0,0.0,0.0,0.0,0.0,0.0,0.0,0.0,0.0,0.0,0.0,0.0,0.0,0.0,0.0,0.0,0.0,0.0,0.0,0.0,0.0,0.0,0.0,0.0,0.0,0.0,0.0,0.0,0.0,0.0,0.0,0.0,0.0,0.0,0.0,0.0,0.0,0.0,0.0,0.0,0.0,0.0,0.0,0.0,0.0,0.0,0.0,0.0,0.0,0.0,0.0,0.0,0.0,0.0,0.0,0.0,0.0,0.0,0.0,0.0,0.0,0.0,0.0,0.0,0.0,0.0,0.0,0.0,0.0,0.0,0.0,0.0,0.0,0.0,0.0,0.0,0.0,0.0,0.0,0.0,0.0,0.0,0.0,0.0,0.0,0.0,0.0,0.0,0.0,0.0,0.0,0.0,0.0,0.0,0.0,0.0,0.0,0.0,0.0,0.0,0.0,0.0,0.0,0.0,0.0,0.0,0.0,0.0,0.0,0.0,0.0,0.0,0.0,0.0,0.0,0.0,0.0,0.0,0.0,0.0,0.0,0.0,0.0,0.0,0.0,0.0,0.0,0.0,0.0,0.0,0.0,0.0,0.0,0.0,0.0,0.0,0.0,0.0,0.0,0.0,0.0,0.0,0.0,0.0,0.0,0.0,0.0,0.0,0.0,0.0,0.0,0.0,0.0,0.0,0.0,0.0,0.0,0.0,0.0,0.0,0.0,0.0,0.0,0.0,0.0,0.0,0.0,0.0,0.0,0.0,0.0,0.0,0.0,0.0,0.0,0.0,0.0,0.0,0.0,0.0,0.0,0.0,0.0,0.0,0.0,0.0,0.0,0.0,0.0,0.0,0.0,0.0,0.0,0.0,0.0,0.0,0.0,0.0,0.0,0.0,0.0,0.0,0.0,0.0,0.0,0.0,0.0,0.0,0.0,0.0,0.0,0.0,0.0,0.0,0.0,0.0,0.0,0.0,0.0,0.0,0.0,0.0,0.0,0.0,0.0,0.0,0.0,0.0,0.0,0.0,0.0,0.0,0.0,0.0,0.0,0.0,0.0,0.0,0.0,5.215,4.8517,0.0,0.0,0.0,0.0,0.0,0.0,0.0,0.0,0.0,0.0,0.0,0.0,0.0,0.0,0.0,0.0,0.0,0.0,0.0,0.0,0.0,0.0,0.0,0.0,0.0,0.0,0.0,0.0,0.0,0.0,0.0,0.0,0.0,0.0,0.0,0.0,0.0,0.0,3.2615,3.461,3.7099,3.7422,3.6141,3.3518,0.0,0.0,0.0,0.0,0.0,0.0,0.0,0.0,0.0,0.0,0.0,0.0,0.0,0.0,0.0,0.0,0.0,0.0,0.0,0.0,0.0,0.0,0.0,0.0,0.0,0.0,0.0,0.0,0.0,0.0,0.0,0.0,0.0,0.0,0.0,0.0,0.0,0.0,0.0,0.0,0.0,0.0,0.0,0.0,0.0,0.0,0.0,0.0,0.0,0.0,0.0,0.0,0.0,0.0,0.0,0.0,0.0,0.0,0.0,0.0,0.0,0.0,0.0,0.0,0.0,0.0,0.0,0.0,0.0,0.0,5.5563,5.3544,0.0,0.0,0.0,0.0,0.0,0.0,0.0,0.0,0.0,0.0,0.0,0.0,0.0,0.0,0.0,0.0,0.0,0.0,0.0,0.0,0.0,0.0,0.0,3.0409,3.0491,3.0196,3.045,3.0491,0.0,0.0,0.0,0.0,0.0,0.0,0.0,3.1783,3.2447,3.3808,3.6434,3.9737,4.3701,4.4738,4.2498,3.7512,3.6443,0.0,0.0,0.0,0.0,0.0,0.0,0.0,0.0,0.0,0.0,0.0,0.0,0.0,0.0,0.0,0.0,0.0,0.0,0.0,0.0,0.0,0.0,0.0,0.0,0.0,0.0,0.0,0.0,0.0,0.0,0.0,0.0,0.0,0.0,0.0,0.0,0.0,0.0,0.0,0.0,0.0,0.0,0.0,0.0,0.0,0.0,0.0,0.0,0.0,0.0,0.0,0.0,0.0,0.0,0.0,0.0,0.0,0.0,0.0,0.0,0.0,0.0,0.0,6.039,6.0958,6.0346,6.0994,6.1031,6.0529,6.0774,6.0481,5.9673,5.7666,0.0,0.0,0.0,0.0,0.0,0.0,0.0,0.0,0.0,0.0,0.0,0.0,0.0,0.0,0.0,0.0,0.0,0.0,0.0,0.0,0.0,3.0827,3.1079,3.1285,3.1132,3.1103,3.1274,0.0,0.0,0.0,0.0,0.0,3.3308,3.3361,3.5129,3.8687,4.2814,4.5872,4.7892,4.7273,4.6945,4.6809,4.4454,4.2342,4.0528,0.0,0.0,0.0,0.0,0.0,0.0,0.0,0.0,0.0,0.0,0.0,0.0,0.0,0.0,0.0,0.0,0.0,0.0,0.0,0.0,0.0,0.0,0.0,0.0,0.0,0.0,0.0,0.0,0.0,0.0,0.0,0.0,0.0,0.0,0.0,0.0,0.0,0.0,0.0,0.0,0.0,5.0786,5.4313,0.0,0.0,0.0,0.0,0.0,0.0,0.0,0.0,0.0,0.0,0.0,0.0,0.0,5.8268,5.7864,6.1715,6.3487,6.3259,6.7627,6.9655,6.9545,6.9655,7.0022,7.0477,6.8481,0.0,6.2316,6.1985,0.0,0.0,0.0,0.0,0.0,0.0,0.0,0.0,0.0,0.0,0.0,0.0,0.0,0.0,0.0,0.0,0.0,0.0,0.0,0.0,0.0,3.2934,3.4041,3.392,3.6424,3.7057,3.475,3.5791,0.0,0.0,0.0,3.4783,3.4992,3.5341,3.8189,4.3707,4.8264,5.1508,5.3468,5.3477,5.3698,5.4072,5.3332,5.0019,4.4956,4.4811,0.0,0.0,0.0,0.0,0.0,0.0,0.0,0.0,0.0,0.0,0.0,0.0,0.0,0.0,0.0,0.0,0.0,0.0,0.0,0.0,0.0,0.0,0.0,0.0,0.0,0.0,0.0,0.0,0.0,0.0,0.0,0.0,0.0,0.0,0.0,0.0,0.0,0.0,0.0,5.0376,5.3385,5.4615,5.5044,5.3924,0.0,0.0,0.0,0.0,0.0,0.0,0.0,0.0,0.0,6.2589,6.3922,6.5029,6.5951,6.8891,7.0202,6.9851,7.2206,7.3325,7.3325,7.3802,7.4116,7.4284,7.3642,7.2316,7.0285,6.696,6.5301,6.453,0.0,0.0,0.0,0.0,5.5794,5.6675,0.0,0.0,0.0,0.0,0.0,0.0,0.0,0.0,0.0,0.0,0.0,0.0,3.3332,3.6506,3.8526,3.8313,4.1677,4.2163,3.8233,3.9249,3.8538,3.5296,3.5727,3.6262,3.6633,3.8972,4.3079,4.9008,5.3241,5.6314,5.8196,5.8531,5.8772,5.9027,5.9822,5.6194,4.9548,4.9985,4.7448,4.3064,0.0,0.0,0.0,0.0,0.0,0.0,0.0,0.0,0.0,0.0,0.0,0.0,0.0,0.0,0.0,0.0,0.0,0.0,0.0,0.0,0.0,0.0,0.0,0.0,0.0,0.0,0.0,0.0,0.0,0.0,0.0,0.0,0.0,0.0,0.0,0.0,0.0,5.4124,5.6839,5.6645,5.8753,5.864,0.0,0.0,0.0,0.0,0.0,0.0,6.3874,6.4177,6.5791,6.9028,7.0541,7.1949,7.3271,7.4873,7.5578,7.5397,7.5691,7.5931,7.6166,7.6935,7.7125,7.7017,7.775,7.7926,7.7203,7.1719,6.9094,6.837,6.62,6.4053,6.2181,6.1325,6.141,6.1924,0.0,0.0,0.0,0.0,0.0,0.0,0.0,0.0,0.0,0.0,0.0,3.7345,3.7742,4.1899,4.4768,4.4988,4.5008,4.3778,4.0895,4.0568,3.9216,3.6435,3.7148,3.777,3.8182,4.5371,5.1,5.4781,5.7877,5.9914,6.0888,6.0014,6.0113,6.0974,6.1808,5.939,5.4671,5.4081,5.2047,4.8779,4.3193,0.0,0.0,0.0,0.0,0.0,0.0,0.0,0.0,0.0,0.0,0.0,0.0,0.0,0.0,0.0,0.0,0.0,0.0,0.0,0.0,0.0,0.0,0.0,0.0,0.0,0.0,0.0,0.0,0.0,0.0,0.0,0.0,0.0,0.0,0.0,0.0,0.0,0.0,6.4343,6.8019,0.0,0.0,0.0,0.0,6.3174,6.4046,6.6708,7.1569,7.2545,7.4302,7.7229,7.8208,7.8329,7.7598,7.7681,7.7968,7.8363,7.8421,7.8809,7.9575,8.0141,8.0357,8.039,8.1067,8.099,8.007,7.5875,7.4194,7.3836,7.0103,6.8128,6.6966,6.3833,6.415,6.6072,0.0,0.0,0.0,0.0,0.0,0.0,0.0,0.0,3.1555,3.2284,3.5766,3.8445,3.913,4.4535,4.8363,4.8949,5.1647,5.1849,4.8349,4.6798,4.4582,4.1305,3.9346,3.9795,4.2877,4.9937,5.4378,5.5955,5.9068,6.0962,6.1614,6.1272,6.1286,6.165,6.2969,6.2126,5.9781,6.0552,5.8268,5.3981,5.1251,4.6484,0.0,0.0,0.0,0.0,0.0,0.0,0.0,0.0,0.0,0.0,0.0,0.0,0.0,0.0,0.0,0.0,0.0,0.0,0.0,0.0,0.0,0.0,0.0,0.0,0.0,0.0,0.0,0.0,0.0,0.0,0.0,0.0,0.0,0.0,0.0,0.0,0.0,6.8117,7.0971,0.0,6.9133,6.9408,6.9816,7.0034,7.2848,7.5804,7.8695,7.9313,8.0537,8.2661,8.2191,8.1661,8.1126,8.0541,8.0228,8.0131,7.9617,8.0073,8.1321,8.1008,8.1051,8.1397,8.1606,8.1527,8.1037,7.9199,7.7584,7.6109,7.3699,7.2606,7.2202,7.1013,7.116,7.1857,0.0,0.0,0.0,0.0,0.0,0.0,0.0,0.0,3.2988,3.5074,3.8608,4.1696,4.3601,4.9258,5.3107,5.3608,5.6636,5.6416,5.1415,4.9791,4.6927,4.225,4.1622,4.3784,4.9018,5.4027,5.7128,5.8272,6.0514,6.1814,6.2156,6.2156,6.2156,6.2229,6.3803,6.4017,6.3351,6.4923,6.3033,5.8764,5.6629,5.1321,4.4384,0.0,0.0,0.0,0.0,0.0,0.0,0.0,0.0,0.0,0.0,0.0,0.0,0.0,0.0,0.0,0.0,0.0,0.0,0.0,0.0,0.0,0.0,0.0,0.0,0.0,0.0,0.0,0.0,0.0,0.0,0.0,0.0,0.0,0.0,6.4364,6.9762,7.1263,7.4723,7.6335,7.4629,7.5511,7.6524,7.7348,8.0277,8.2589,8.4002,8.4129,8.4591,8.5548,8.4605,8.3841,8.3471,8.2902,8.2471,8.2223,8.1672,8.1966,8.301,8.2649,8.224,8.1843,8.2905,8.2509,8.12,8.1415,8.0319,7.8427,7.7084,7.6387,7.6151,7.6151,7.5968,7.5763,0.0,0.0,0.0,0.0,0.0,0.0,0.0,3.3075,3.4735,3.8793,4.2986,4.7155,5.1236,5.6056,5.905,5.9081,5.9556,5.6869,4.9754,4.9053,4.5916,3.9182,4.404,4.9834,5.6163,5.7802,5.9696,6.196,6.2479,6.2707,6.2732,6.2769,6.2769,6.2842,6.4446,6.5167,6.5228,6.683,6.5979,6.3158,5.8688,5.5,5.1616,0.0,0.0,0.0,0.0,0.0,0.0,0.0,0.0,0.0,0.0,0.0,0.0,0.0,0.0,0.0,0.0,0.0,0.0,0.0,0.0,0.0,0.0,0.0,0.0,0.0,0.0,0.0,0.0,0.0,0.0,0.0,0.0,0.0,6.1325,6.9295,7.5065,7.4379,7.9878,8.3093,8.1452,8.2789,8.4067,8.4889,8.5723,8.6557,8.7378,8.6845,8.6312,8.5918,8.5468,8.497,8.4499,8.4572,8.4646,8.4646,8.4609,8.4646,8.4699,8.5165,8.4101,8.2095,8.5061,8.423,8.084,8.2545,8.2407,8.1012,8.0147,7.9339,7.8626,7.8626,7.8112,7.7503,0.0,0.0,0.0,0.0,0.0,0.0,0.0,3.3254,3.4288,3.707,4.2367,4.7151,5.045,5.6053,5.9985,6.102,6.124,5.9204,5.4225,5.2025,4.9201,4.537,5.0277,5.4801,5.8352,6.1569,6.3181,6.3202,6.3462,6.3456,6.3296,6.3889,6.4148,6.4222,6.5828,6.6333,6.6025,6.7063,6.7058,6.6137,6.3208,5.9744,5.6006,0.0,0.0,0.0,0.0,0.0,0.0,0.0,0.0,0.0,0.0,0.0,0.0,0.0,0.0,0.0,0.0,0.0,0.0,0.0,0.0,0.0,0.0,0.0,0.0,0.0,0.0,0.0,0.0,0.0,0.0,0.0,6.8706,7.325,7.1996,7.5738,7.9636,8.2434,8.4871,8.6151,8.5697,8.6076,8.6455,8.6682,8.7478,8.7875,8.7775,8.5626,8.4227,8.3789,8.3308,8.27,8.2003,8.4315,8.5453,8.5453,8.4866,8.5233,8.6297,8.527,8.478,8.4739,8.4986,8.4474,8.3528,8.4018,8.3979,8.3361,8.0807,7.9669,7.9486,7.9486,7.9365,7.9142,0.0,0.0,0.0,0.0,0.0,0.0,0.0,3.372,3.5221,3.8574,4.3898,4.8788,5.2397,5.7505,6.1032,6.1833,6.1785,5.9536,5.4361,5.1496,5.0849,5.2735,5.6107,5.915,6.1812,6.4623,6.557,6.4585,6.4546,6.4676,6.4891,6.4993,6.5243,6.5627,6.6911,6.7284,6.7109,6.8284,6.8616,6.8273,6.7289,6.4317,6.0408,5.9705,5.7357,5.4496,5.4834,5.5547,5.5923,5.3179,0.0,0.0,0.0,0.0,0.0,0.0,0.0,0.0,0.0,0.0,0.0,0.0,0.0,0.0,0.0,0.0,0.0,0.0,0.0,0.0,0.0,0.0,0.0,0.0,7.4326,7.9519,8.111,8.2323,8.4067,8.6834,8.7895,8.8426,8.8426,8.8426,8.8315,8.8155,8.8558,8.8605,8.8124,8.6352,8.4555,8.2949,8.3749,8.3324,8.1525,8.4682,8.6297,8.6297,8.6187,8.6591,8.7472,8.6867,8.6297,8.5837,8.6371,8.5857,8.4646,8.5343,8.5416,8.4866,0.0,0.0,0.0,0.0,8.1895,8.1923,0.0,0.0,0.0,0.0,0.0,0.0,0.0,3.4331,3.6861,4.1837,4.6385,5.1008,5.568,5.9621,6.1924,6.1992,6.1517,5.8582,5.2475,4.9677,5.1825,5.9839,6.1102,6.2923,6.5705,6.7042,6.7144,6.5997,6.5859,6.6114,6.6773,6.6087,6.6199,6.6961,6.7776,6.8189,6.8377,6.9879,7.0232,6.9904,7.0698,6.8519,6.4769,6.482,6.359,6.1719,6.1135,6.1493,6.2075,6.0757,0.0,0.0,0.0,0.0,0.0,0.0,0.0,0.0,0.0,0.0,0.0,0.0,0.0,0.0,0.0,0.0,0.0,0.0,0.0,0.0,0.0,0.0,0.0,0.0,7.9022,8.3429,8.8091,8.8191,8.8038,8.8641,8.9297,8.9728,8.983,8.9868,8.9704,8.9321,8.928,8.91,8.8623,8.7845,0.0,0.0,0.0,8.5306,8.237,8.5637,8.7234,8.7124,8.7949,8.8353,8.8353,8.9069,8.8225,8.6334,8.8482,8.7785,8.527,8.6684,8.6848,8.6077,8.5013,8.4646,8.4682,8.4442,8.4575,8.4903,0.0,0.0,0.0,0.0,0.0,0.0,0.0,3.4826,3.7656,4.3458,4.6749,5.0825,5.6799,6.0116,6.2049,6.2506,6.0529,5.7846,5.4575,5.266,5.4723,6.1622,6.333,6.5301,6.7839,6.8279,6.8073,6.725,6.7314,6.7166,6.681,6.7288,6.7626,6.7814,6.8592,6.9343,7.0029,7.0367,7.08,7.1347,7.2182,7.1033,6.8924,6.9332,6.9366,6.9188,6.9544,7.0711,7.1365,6.6773,6.5972,6.6421,6.3726,6.1258,0.0,0.0,0.0,0.0,0.0,0.0,0.0,0.0,0.0,0.0,0.0,0.0,0.0,0.0,0.0,0.0,0.0,0.0,0.0,7.8368,8.2816,8.6812,8.9293,9.0042,9.0111,8.9641,8.9146,8.92,9.0123,9.0209,9.0281,9.046,9.0468,9.0257,8.9808,8.7212,8.5324,8.4297,8.4806,8.4462,8.3161,8.7014,8.8592,8.7986,8.8776,0.0,8.9179,8.9326,8.9143,8.8739,8.9216,8.9033,8.8482,8.8812,8.8849,8.8409,8.5673,8.5013,8.536,8.3505,8.3777,8.4896,0.0,0.0,0.0,0.0,0.0,0.0,0.0,3.5409,3.7246,4.0663,4.4436,4.8684,5.3478,5.5745,5.7614,5.9334,5.7513,5.6422,5.683,5.7239,5.9876,6.5225,6.6228,6.7231,6.8456,6.8614,6.8535,6.8145,6.7928,6.8049,6.8564,6.857,6.9042,6.9868,7.0281,7.0694,7.1118,7.1531,7.1944,7.2357,7.3221,7.3202,7.2743,7.2994,7.369,7.4605,7.4885,7.584,7.6473,7.3303,7.2566,7.2613,7.0593,6.8493,6.5804,0.0,0.0,0.0,0.0,0.0,0.0,0.0,0.0,0.0,0.0,0.0,0.0,0.0,0.0,6.9603,7.0794,0.0,7.8539,8.216,8.521,8.8068,9.0715,9.1028,9.0733,9.0094,8.9977,9.0241,9.0998,9.0295,9.0318,9.1577,9.0929,9.0592,9.0923,8.9413,8.771,8.5857,8.7399,8.7068,8.4609,8.8189,8.9583,8.883,8.962,8.9987,8.9987,9.0427,9.0592,9.0592,9.0592,9.0592,9.0592,9.017,8.9987,8.9821,8.7906,8.7407,8.7608,8.6478,8.6751,8.7607,0.0,0.0,0.0,0.0,0.0,0.0,0.0,3.6141,3.7345,3.8745,4.2685,4.6716,5.0213,5.1475,5.2829,5.4684,5.4342,5.5157,5.7873,6.0811,6.4248,6.8183,6.8355,6.8429,6.8577,6.8791,6.8951,6.8976,6.8637,6.9192,7.0526,6.9963,7.0338,7.1534,7.1663,7.1726,7.1796,7.2575,7.2996,7.3221,7.4085,7.4911,7.5662,7.5824,7.6725,7.7889,7.7889,7.8403,7.9041,7.8565,7.8178,7.7774,7.7066,7.5891,7.3281,6.5887,6.5354,0.0,0.0,0.0,0.0,0.0,0.0,0.0,0.0,6.7209,6.8736,6.9541,7.1864,7.4407,7.6665,7.8411,8.1028,8.5724,8.7292,8.8881,9.1707,9.1738,9.1324,9.0818,9.0969,9.1388,9.2066,9.0802,9.0748,9.2772,9.183,9.153,9.2446,9.2501,9.1326,8.8739,9.1069,9.072,8.7252,8.9968,9.0831,8.9877,9.0702,9.0996,9.0849,9.151,9.1803,9.1803,9.1803,9.1803,9.173,9.1106,9.0849,9.0794,9.0328,9.0175,9.0172,8.9912,9.0006,9.0276,0.0,0.0,0.0,0.0,0.0,0.0,0.0,0.0,3.9792,4.3509,4.4922,4.7225,5.1599,5.2198,5.1568,4.9859,5.2893,5.5108,5.5625,6.0052,6.4226,6.7738,6.7869,6.8181,6.882,6.9437,6.9834,6.9918,7.0586,7.1058,7.1387,7.1389,7.1243,7.0933,7.1476,7.1804,7.2,7.2623,7.3334,7.4122,7.4948,7.5774,7.6638,7.7363,7.7739,7.7889,7.7889,7.8403,7.9191,7.988,8.0555,8.1054,8.0979,8.1432,8.054,7.3052,7.1237,6.971,6.0661,5.8056,5.8965,6.3469,6.5742,6.8002,0.0,7.5445,7.7392,7.8152,8.089,8.3684,8.5246,8.6336,8.7396,8.8715,8.9761,9.0603,9.1264,9.2526,9.3206,9.2751,9.1458,9.129,9.307,9.2636,9.2755,9.4044,9.4613,9.4943,9.507,9.507,9.4923,9.4538,9.4226,9.3455,9.2281,9.3345,9.3088,9.1546,9.2427,9.2427,9.1657,9.1767,9.1803,9.1803,9.1803,9.1803,9.1803,9.1693,9.1657,9.1675,9.1799,9.194,9.1966,9.0678,9.0243,9.0309,0.0,0.0,0.0,0.0,0.0,0.0,0.0,0.0,0.0,4.0633,4.1495,4.3394,4.7177,4.8387,4.7767,4.4891,4.9262,5.2858,5.4499,5.9663,6.4217,6.764,6.7806,6.8153,6.8862,6.9185,6.9347,6.942,6.9834,7.0367,7.0981,7.1128,7.1336,7.1682,7.2428,7.2795,7.2913,7.3524,7.3762,7.3885,7.4971,7.5446,7.5679,7.6869,7.7597,7.7748,7.5704,7.5211,0.0,7.5887,7.6262,7.6976,7.9379,7.9212,7.7327,7.3204,7.1494,7.0015,6.5646,6.5624,6.732,6.9434,7.2286,7.5208,7.782,7.9601,8.1056,8.2313,8.44,8.6356,8.7425,8.7515,8.8146,9.0278,9.0337,9.0824,9.2964,9.3928,9.4602,9.5057,9.2621,9.1251,9.2042,9.2923,9.3658,9.4281,9.5474,9.6612,9.7547,9.7603,9.7603,9.7584,9.7273,9.6502,9.5217,9.5547,9.485,9.3272,9.3602,9.3602,9.3235,9.2758,9.2281,9.1803,9.1803,9.2097,9.2537,9.2024,9.2133,9.2646,9.2364,9.2409,9.2508,9.1926,9.175,9.1886,0.0,0.0,0.0,0.0,0.0,0.0,0.0,0.0,0.0,0.0,3.9463,4.089,4.3362,4.4546,4.4301,4.2281,4.6704,5.091,5.3961,5.937,6.3975,6.7429,6.7792,6.8259,6.8997,6.9441,6.9645,6.9645,7.017,7.0799,7.1517,7.1713,7.2079,7.267,7.3245,7.3413,7.3257,7.3674,7.3563,7.3273,7.4638,7.4998,7.4853,7.6409,7.675,7.6074,7.3565,7.2756,7.2733,7.1606,7.1982,7.3258,7.5399,7.5452,7.4303,7.1734,6.9552,6.8043,6.857,7.0128,7.2137,7.4382,7.7363,8.0145,8.1933,8.2758,8.373,8.5525,8.68,8.8081,8.9471,8.907,8.9356,9.1854,9.1547,9.1807,9.4042,9.4828,9.5063,9.4943,9.2718,9.0658,8.9345,9.1982,9.4185,9.5217,9.6575,9.797,9.9365,9.9218,9.9218,9.9438,9.9218,9.8557,9.7383,9.7346,9.6685,9.529,9.507,9.485,9.4593,9.3786,9.3088,9.2501,9.2501,9.2831,9.3382,9.2758,9.2941,9.3601,9.3226,9.3048,9.3034,9.3085,9.3074,9.2988,0.0,0.0,0.0,0.0,0.0,0.0,0.0,0.0,0.0,0.0,0.0,0.0,0.0,4.1958,4.2187,4.326,4.6415,5.0065,5.4108,5.9005,6.3319,6.6848,6.7779,6.8552,6.9362,7.07,7.1406,7.1406,7.2985,7.3752,7.3804,7.4134,7.3983,7.3458,7.3486,7.3173,7.2629,7.2431,7.2326,7.2459,7.4081,7.4728,7.4882,7.6549,7.5099,7.2169,7.2071,7.2397,7.2282,6.8313,6.9627,7.2357,6.9316,7.1658,7.4613,6.981,6.5853,6.3861,6.7802,6.7782,6.8515,7.6383,7.9032,8.0747,8.4736,8.568,8.6371,8.8685,8.9199,9.0163,9.3268,9.3139,9.2889,9.3804,9.4258,9.4316,9.3632,9.4617,9.4239,9.1161,9.1045,8.9364,8.4661,8.9624,9.441,9.7566,9.8557,9.9402,10.0209,9.9512,9.9475,10.0209,9.9512,9.9071,9.9035,9.9035,9.8631,9.7787,9.7016,9.6208,9.5418,9.463,9.4226,9.4226,9.4226,9.4226,9.4263,9.4226,9.4356,9.4577,9.4684,9.4362,9.3903,9.4073,9.3657,9.2988,0.0,0.0,0.0,0.0,0.0,0.0,0.0,0.0,0.0,0.0,0.0,0.0,0.0,0.0,0.0,0.0,4.4498,4.6768,4.9961,5.5124,5.9618,6.3054,6.6918,6.934,7.0113,7.1112,7.1611,7.1611,7.2189,7.2228,7.1836,7.2081,7.1882,7.1331,7.2005,7.2199,7.2032,7.2359,7.3172,7.4237,7.4555,7.5149,7.5591,7.3441,7.1543,6.9423,0.0,6.3096,6.3683,6.2304,6.2745,6.4284,6.651,6.6657,6.5363,6.1762,6.365,6.6889,6.7167,7.1516,7.6736,7.9953,8.3439,8.645,8.7803,8.8126,8.85,8.982,8.8428,8.7143,8.7679,8.7108,8.7001,8.8321,8.8918,9.0396,9.3812,9.2177,9.1455,9.372,9.1397,9.0296,9.1998,9.2737,9.3345,9.3878,9.764,10.0209,10.111,10.0796,10.0796,10.111,10.0796,10.0393,9.9916,9.9916,9.9475,9.8704,9.8411,9.786,9.7052,9.6245,9.5584,9.507,9.452,9.4593,9.507,9.452,9.4798,9.5478,9.4996,9.4839,9.4909,9.4977,9.4474,9.3731,0.0,0.0,0.0,0.0,0.0,0.0,0.0,0.0,0.0,0.0,0.0,0.0,0.0,0.0,0.0,0.0,0.0,4.4689,4.7796,5.1594,5.5227,5.8648,6.2424,6.4636,6.511,6.6742,6.769,6.7988,6.9937,7.0801,7.0721,7.1771,7.1841,7.1129,7.173,7.1784,7.1498,7.1749,7.2319,7.3011,7.2243,7.221,7.2261,6.9223,6.6976,0.0,5.9773,5.7586,5.7057,5.6555,5.722,5.8576,6.0737,6.0412,5.9381,6.0468,6.4048,6.8197,7.0571,7.5957,8.1482,8.3946,8.6941,8.9299,8.9299,8.9513,8.9798,9.0034,8.8678,8.7072,8.568,8.4538,8.4431,8.6323,8.6732,8.8778,9.4373,9.261,9.1785,9.4511,9.1764,9.0625,9.3099,9.294,9.2684,9.2739,9.6098,9.8741,10.0099,9.9659,10.0099,10.1898,10.1604,10.1294,10.0686,10.0686,10.0319,9.9548,9.9548,9.9108,9.83,9.7493,9.6208,9.4666,9.4997,9.4777,9.4226,9.4962,9.5737,9.6435,9.599,9.5795,9.5848,9.5848,9.5143,9.4119,0.0,0.0,0.0,0.0,0.0,0.0,0.0,0.0,0.0,0.0,0.0,0.0,0.0,0.0,0.0,0.0,0.0,0.0,4.7417,4.8615,5.0629,5.3872,5.4987,5.5533,5.5568,5.8464,6.0342,6.1149,6.632,6.9161,6.9863,7.2283,7.2902,7.1951,7.1819,7.1241,7.039,7.0062,6.9534,6.882,6.7267,6.6284,6.5613,6.4251,6.1709,5.8783,5.8271,5.5918,5.289,5.1674,5.3552,5.596,5.3361,5.4289,5.7767,6.5424,6.6987,6.8228,7.7302,8.0684,8.2897,8.8178,8.9513,8.9548,8.9548,9.007,9.0284,8.9299,8.9534,8.9106,8.6537,8.4895,8.4788,8.7272,8.7541,8.9395,9.5007,9.5469,9.4742,9.3478,9.2164,9.0625,8.8672,9.0795,9.285,9.4263,9.4483,9.5547,9.7916,9.6612,9.7933,10.2595,10.1898,10.1514,10.1587,10.1514,10.109,10.0393,10.0393,9.9952,9.9218,9.8374,9.6318,9.3529,9.5768,9.496,9.2299,9.5626,9.7119,9.7303,9.7502,9.7215,9.6666,9.6666,9.5663,9.4342,0.0,0.0,0.0,0.0,0.0,0.0,0.0,0.0,0.0,0.0,0.0,0.0,0.0,0.0,0.0,0.0,0.0,0.0,4.319,4.6704,4.9129,4.9947,5.3683,5.5973,5.6533,5.7509,5.8342,5.9064,6.0441,6.0941,6.0613,6.1343,6.1291,6.0528,6.1173,6.1344,6.1127,6.1523,6.2612,6.3948,6.2342,6.3191,6.4935,6.0562,5.8527,5.7634,5.4966,5.2815,5.135,5.1974,5.5248,5.9539,6.1967,6.4003,6.5656,6.6843,7.1468,7.6498,7.7779,8.3397,8.9392,9.1426,9.2354,9.2782,9.2782,9.2032,9.0462,8.7322,8.4039,8.0256,7.5546,7.4868,7.6583,8.1474,8.3807,8.7189,9.3509,9.3422,9.2933,9.3551,9.3812,9.4336,9.5269,9.6519,9.6685,9.529,9.6869,9.8411,9.9622,9.9879,10.0796,10.2575,10.131,10.12,10.2412,10.1808,10.1404,10.122,10.122,10.111,10.0927,10.0119,9.8924,9.7566,9.7603,9.6759,9.553,9.6582,9.7119,9.7303,9.7502,9.7586,9.7557,9.7557,9.6889,9.5909,0.0,0.0,0.0,0.0,0.0,0.0,0.0,0.0,0.0,0.0,0.0,0.0,0.0,0.0,0.0,0.0,0.0,0.0,0.0,4.3511,4.4819,4.4784,4.7403,4.9065,4.9463,5.094,5.1891,5.2281,5.4632,5.5604,5.5262,5.6354,5.656,5.6031,5.6691,5.7102,5.7335,5.7892,5.8945,0.0,0.0,5.8976,6.0246,5.6673,5.5453,5.5416,5.3647,5.2974,5.3568,5.7724,5.9988,6.2104,6.7954,6.946,6.979,7.3601,7.7651,8.1327,8.3182,8.7821,9.2318,9.3139,9.3139,9.2389,9.0319,8.9463,8.7536,8.2255,7.9543,7.6795,7.2334,7.187,7.4172,8.0316,8.347,8.7337,9.3521,9.4177,9.4325,9.5161,9.5427,9.6318,9.8244,9.9145,9.8924,9.7217,9.7346,9.8043,9.9181,9.9328,10.0393,10.2595,10.1494,10.1384,10.2705,10.1898,10.1698,10.2008,10.1698,10.1514,10.1514,10.0706,9.9292,9.751,9.7787,9.689,9.5331,9.6603,9.7248,9.7448,9.7627,9.7573,9.7284,9.7284,9.6511,9.5441,0.0,0.0,0.0,0.0,0.0,0.0,0.0,0.0,0.0,0.0,4.1494,0.0,0.0,0.0,0.0,0.0,0.0,0.0,0.0,0.0,3.9986,3.9986,3.991,3.994,4.0041,4.2523,4.39,4.4057,4.8726,5.1007,5.112,5.3221,5.4058,5.372,5.43,5.4761,5.5192,5.5758,5.613,5.6191,5.4835,5.4266,5.4134,0.0,5.2842,5.3046,5.3501,5.4737,5.7402,6.5313,6.6002,6.4963,7.2887,7.3672,7.3351,8.2163,8.4146,8.4574,8.9749,9.2032,9.3139,9.3839,9.2853,9.0676,8.6501,8.5431,8.3468,7.6866,7.6081,7.5688,7.2869,7.2691,7.5066,8.1573,8.482,8.8365,9.3585,9.5917,9.7013,9.6911,9.6877,9.7644,9.9565,10.0099,10.0099,9.9622,9.764,9.6962,9.8154,9.764,9.8888,10.2301,10.1898,10.1898,10.2412,10.1898,10.1991,10.2522,10.1898,10.1624,10.1514,10.0796,9.8888,9.6189,9.7603,9.6709,9.4374,9.6547,9.7597,9.7757,9.7859,9.7392,9.6673,9.6673,9.5735,9.4584,0.0,0.0,0.0,0.0,0.0,0.0,0.0,0.0,0.0,0.0,4.1037,4.1117,0.0,0.0,0.0,0.0,0.0,0.0,0.0,0.0,0.0,3.9986,3.9584,3.9634,4.0219,4.0339,4.0635,4.1223,4.2133,4.2589,4.2652,4.3488,4.3846,4.3864,4.5637,4.6469,4.6655,4.8024,4.9041,4.967,4.9471,5.0365,5.179,5.159,0.0,0.0,5.3403,5.5354,5.9045,6.7219,7.0028,7.1549,8.0078,8.3234,8.4075,8.5252,8.7679,8.9784,8.8928,9.1198,9.3839,9.3982,9.3304,9.2211,9.0712,8.6465,8.1755,7.7901,7.4225,7.1335,7.014,7.2031,7.5781,8.1853,8.4898,8.7413,9.0011,9.4715,9.7252,9.5509,9.7718,10.0298,10.2795,10.1384,10.0796,10.2008,10.1714,10.1017,9.9952,10.0413,10.0706,10.0686,10.1898,10.1898,10.0686,10.1898,10.2191,10.1677,10.2191,10.2118,10.1514,10.1404,10.0613,9.9475,9.9769,9.9299,9.837,9.8319,9.841,9.8535,9.8082,9.7822,9.7662,9.7662,9.7531,9.7311,0.0,0.0,0.0,0.0,0.0,0.0,0.0,4.0153,4.0408,4.1097,4.1123,4.1129,4.1302,4.0778,4.0392,0.0,0.0,0.0,0.0,0.0,0.0,0.0,3.8912,3.8938,3.9299,3.9455,3.9653,3.9977,0.0,4.0138,4.0408,4.0673,4.1096,4.1717,4.3112,4.4151,4.4935,4.6188,4.7181,4.8093,4.9019,5.0114,5.1246,0.0,0.0,0.0,5.3652,5.5777,5.9384,6.5419,6.9051,7.2941,8.3662,8.7001,8.6929,8.6965,8.9178,9.1176,8.9249,9.1319,9.4018,9.4018,9.3067,9.089,8.6002,8.2861,7.9186,7.2727,7.0264,6.9265,6.9284,7.0889,7.4405,8.1227,8.4666,8.7613,9.0811,9.529,9.7886,9.6879,9.9155,10.1099,10.1898,10.1404,10.109,10.142,10.1788,10.1898,10.1604,10.2705,10.2595,10.098,10.2485,10.2779,10.1604,10.2301,10.2705,10.2799,10.3109,10.2889,10.2081,10.2081,10.1677,10.089,10.0585,9.9638,9.8281,9.854,9.8,9.7102,9.7671,9.759,9.723,9.7636,9.7617,9.7467,0.0,0.0,0.0,0.0,0.0,0.0,0.0,4.0122,4.0418,4.1247,4.1214,4.1168,4.1191,4.066,4.0233,0.0,0.0,0.0,0.0,0.0,0.0,0.0,0.0,0.0,3.8408,0.0,0.0,3.966,3.9823,0.0,0.0,0.0,0.0,0.0,4.3136,4.4148,4.534,4.6365,4.7369,0.0,0.0,5.0797,5.1365,0.0,0.0,0.0,0.0,5.5798,5.8902,6.3362,6.6929,7.1478,8.2912,8.6037,8.568,8.7179,8.9142,9.0712,8.9998,9.1854,9.4018,9.4018,9.2924,8.9784,8.1755,7.9792,7.7294,6.9015,6.7588,6.8373,6.9998,7.0693,7.335,8.058,8.3262,8.6279,9.1499,9.5065,9.7609,9.8869,10.0884,10.2191,10.2118,10.2191,10.2081,10.1604,10.2191,10.2705,10.3219,10.441,10.421,10.2101,10.3182,10.3403,10.2485,10.2815,10.3182,10.3586,10.399,10.3696,10.2999,10.2815,10.2412,10.1698,10.1088,9.9478,9.7303,9.8705,9.7883,9.5811,9.7483,9.7724,9.7135,9.7818,9.7754,9.7557,0.0,0.0,0.0,0.0,0.0,0.0,0.0,3.9578,4.0065,4.1396,4.0991,4.0826,4.1471,4.1336,4.0934,0.0,0.0,0.0,0.0,0.0,0.0,0.0,0.0,0.0,0.0,0.0,0.0,4.0241,4.0903,0.0,0.0,0.0,0.0,0.0,0.0,4.4974,4.5209,4.682,0.0,0.0,0.0,0.0,0.0,0.0,0.0,0.0,0.0,5.512,5.7525,6.3627,6.5946,6.7552,7.5189,7.8936,8.1255,8.4931,8.7143,8.8856,9.0855,9.2675,9.4018,9.4018,9.334,9.1176,8.5395,8.1327,7.7544,7.3083,6.946,6.8409,7.278,7.3048,7.4583,8.0741,7.952,8.0584,8.8603,9.1633,9.4932,10.0073,10.3118,10.5584,10.7807,10.5988,10.5091,10.5789,10.5899,10.5605,10.4887,10.4997,10.4687,10.3696,10.3806,10.3182,10.1604,10.3093,10.3476,10.2815,10.432,10.4614,10.3806,10.2999,10.2705,10.2615,10.2008,9.9994,9.7414,9.9927,9.92,9.6666,9.8338,9.8934,9.8881,9.9148,9.9286,9.9497,0.0,0.0,0.0,0.0,0.0,0.0,3.9661,3.9544,3.9973,4.1846,4.1535,4.1435,4.2132,4.2137,4.1636,4.0522,0.0,0.0,0.0,0.0,0.0,0.0,0.0,0.0,0.0,0.0,4.0965,4.1602,4.1826,0.0,0.0,0.0,0.0,0.0,0.0,4.6016,4.6567,4.7807,0.0,0.0,0.0,0.0,0.0,0.0,0.0,0.0,0.0,0.0,5.8082,6.0165,6.2128,6.4198,6.7033,6.9515,7.2477,7.783,8.2897,8.6715,8.668,9.027,9.4018,9.4018,9.2697,8.9713,8.3254,7.9792,7.6438,7.1085,6.8747,6.8373,7.0747,7.0618,7.1432,7.5349,7.5398,7.7915,8.6295,8.9542,9.373,10.0897,10.3803,10.5474,10.6523,10.5715,10.518,10.5605,10.5605,10.6302,10.7991,10.7991,10.7183,10.5516,10.5385,10.4577,10.3019,10.3586,10.3696,10.3403,10.5091,10.5422,10.4614,10.3806,10.3182,10.2689,10.222,9.9314,9.5346,9.9647,9.8639,9.4808,9.8412,9.9824,9.9916,10.0592,10.1006,10.1193,0.0,0.0,0.0,0.0,0.0,3.8319,3.9518,3.9559,4.0067,4.1866,4.1943,4.2021,4.2554,4.2586,4.2213,4.1225,4.0528,0.0,0.0,0.0,0.0,0.0,0.0,0.0,0.0,0.0,4.2334,4.3051,4.3152,4.373,0.0,0.0,4.5065,4.5454,0.0,0.0,0.0,0.0,0.0,0.0,0.0,0.0,0.0,0.0,0.0,0.0,0.0,0.0,0.0,0.0,0.0,6.0878,6.1141,6.2692,6.5688,7.1961,7.8686,8.4003,8.3825,8.8607,9.3697,9.3946,9.1854,8.8036,8.1434,7.8294,7.5082,6.9015,6.7783,6.8016,6.8801,6.8434,6.8972,7.1754,7.3233,7.6627,8.4047,8.7577,9.2179,9.97,10.2195,10.4027,10.5715,10.6302,10.6575,10.6926,10.6706,10.7697,11.0193,11.0377,10.9408,10.7183,10.711,10.6302,10.4708,10.4614,10.4614,10.4708,10.5789,10.5605,10.4006,10.421,10.3276,10.1798,10.2207,9.9556,9.5103,9.9904,9.8932,9.4845,9.9043,10.0715,10.0788,10.1593,10.199,10.2201,0.0,0.0,0.0,0.0,0.0,0.0,3.891,3.9582,4.033,4.1271,4.1978,4.2444,4.2571,4.2586,4.2586,4.2586,4.1985,0.0,0.0,0.0,0.0,0.0,0.0,0.0,0.0,0.0,4.3672,4.4267,4.4941,4.558,4.6167,4.6167,4.6179,4.6214,0.0,0.0,0.0,0.0,0.0,0.0,0.0,0.0,0.0,0.0,0.0,0.0,0.0,0.0,0.0,0.0,0.0,0.0,0.0,5.9839,6.2473,6.8731,7.501,8.0629,8.3733,8.8607,9.2996,9.3804,9.1055,8.668,8.1148,7.7454,7.3654,6.8175,6.7033,6.7247,6.7997,6.7628,6.8307,7.1646,7.3701,7.6682,8.1813,8.5519,8.986,9.5677,9.8016,10.1384,10.7021,10.9004,11.0304,11.1111,11.0414,11.0304,11.1089,11.1221,11.0392,10.8799,10.8799,10.7991,10.6376,10.6397,10.6397,10.6397,10.6376,10.4687,10.1584,10.4006,10.2991,9.9566,10.2211,10.111,9.7704,10.1219,10.0789,9.8077,10.0492,10.1495,10.1494,10.1918,10.2093,10.2293,0.0,0.0,0.0,0.0,0.0,0.0,0.0,3.8543,3.8888,4.0129,4.0173,4.0503,4.167,4.1783,4.2161,4.3136,4.2604,0.0,0.0,0.0,0.0,0.0,0.0,0.0,0.0,0.0,4.5058,4.5795,4.5962,4.6655,4.7758,4.68,4.6582,4.7046,4.7292,4.7678,0.0,0.0,0.0,0.0,0.0,0.0,5.2542,0.0,0.0,0.0,0.0,0.0,0.0,0.0,0.0,0.0,0.0,0.0,0.0,6.4736,6.9727,7.4751,7.6787,8.0593,8.4039,8.4289,8.2611,7.9828,7.5938,7.3476,7.1049,6.7711,6.624,6.5797,6.6592,6.5892,6.6566,7.0706,7.2388,7.5941,8.3858,8.7749,9.2151,9.8412,10.3095,10.6595,10.842,10.8411,10.869,10.9593,10.8908,10.9224,11.1111,11.1221,11.1001,11.0487,10.9386,10.8578,10.7991,10.689,10.6376,10.6376,10.6376,10.4687,10.1604,10.4027,10.2991,9.9549,10.2174,10.111,9.7796,10.1294,10.0789,9.8189,10.1198,10.2385,10.262,10.2774,10.3,10.321,0.0,0.0,0.0,0.0,0.0,0.0,0.0,3.8061,3.8341,3.9306,3.9334,3.9822,4.1129,4.1489,4.2115,4.3314,4.3263,0.0,0.0,0.0,0.0,0.0,0.0,0.0,0.0,4.5228,4.5824,4.6879,4.6632,4.7044,4.8149,4.7243,4.6941,4.7117,4.7394,4.7775,0.0,0.0,0.0,0.0,0.0,0.0,5.2488,0.0,0.0,0.0,0.0,0.0,0.0,0.0,0.0,0.0,0.0,0.0,0.0,0.0,6.5405,6.9227,7.2362,7.5877,7.8766,7.9145,7.7374,7.5004,7.2974,7.0434,6.8079,6.6545,6.6212,6.6057,6.5479,6.5917,6.6952,6.8618,7.2127,7.6419,8.1595,8.6419,9.1587,9.7461,10.2523,10.6291,10.8298,10.8305,10.8606,10.97,10.9296,10.9606,11.1111,11.1221,11.1221,11.1221,11.0193,10.9716,10.9716,10.8101,10.7294,10.7294,10.6706,10.4708,10.1587,10.4403,10.3406,9.97,10.2881,10.2721,0.0,10.2295,10.2015,10.0381,10.1997,10.2793,10.2989,10.3219,10.3391,10.3614,0.0,0.0,0.0,0.0,0.0,0.0,0.0,3.8017,3.8489,3.867,3.9306,4.0021,4.0926,4.156,4.2276,4.3194,0.0,0.0,0.0,0.0,0.0,0.0,0.0,0.0,0.0,4.5598,4.6019,4.7444,4.6845,4.6941,4.7766,4.7619,4.7263,4.6798,4.7455,4.7744,0.0,0.0,0.0,0.0,0.0,0.0,0.0,0.0,0.0,0.0,0.0,0.0,0.0,0.0,0.0,0.0,0.0,0.0,0.0,0.0,0.0,0.0,0.0,7.3503,7.6063,7.6971,7.4435,7.1684,7.1479,6.8195,0.0,6.5143,6.6909,6.7648,6.4976,6.762,6.9228,6.6383,7.2963,7.8051,7.6811,8.3101,8.9456,9.3958,9.7967,10.2186,10.681,10.8392,10.9703,11.0889,11.1081,11.1221,11.1221,11.1221,11.1221,11.1221,11.1221,11.1221,11.1221,10.9606,10.8704,10.8403,10.6979,10.4483,10.1197,10.5004,10.4215,10.0,10.4313,10.5319,10.4096,10.4096,10.4096,10.3984,10.3093,10.2885,10.3119,10.3311,10.3425,10.3593,0.0,0.0,0.0,0.0,0.0,0.0,0.0,0.0,0.0,0.0,3.8394,3.9152,4.0021,4.0687,4.1606,0.0,0.0,0.0,0.0,0.0,0.0,0.0,0.0,0.0,0.0,4.5467,4.5923,4.6903,4.6222,4.7131,4.9396,4.7704,4.7385,4.8284,4.8453,4.8306,4.7896,0.0,0.0,0.0,0.0,0.0,0.0,0.0,0.0,0.0,5.4515,5.5604,0.0,0.0,0.0,0.0,0.0,0.0,0.0,0.0,6.165,6.2066,6.4135,0.0,6.7572,6.7266,6.6614,6.6028,0.0,6.5124,6.4999,6.7197,6.7784,6.8008,6.8435,7.0969,7.2465,7.1007,7.5982,8.0491,8.1733,8.8815,9.4409,9.5962,10.1497,10.4825,10.3676,10.7901,11.0398,10.9571,11.0595,11.1221,11.1221,11.1221,11.1221,11.1221,11.1221,11.1221,11.1221,10.9606,10.7299,10.4415,10.5687,10.3102,9.728,10.3811,10.451,10.0812,10.4498,10.569,10.4913,10.4913,10.4913,10.4802,10.4094,10.4013,10.4095,10.3687,10.361,10.3796,0.0,0.0,0.0,0.0,0.0,0.0,0.0,0.0,0.0,0.0,0.0,3.8807,3.9596,4.0544,0.0,0.0,0.0,0.0,0.0,0.0,0.0,0.0,0.0,0.0,4.4885,4.5019,4.5485,4.6237,4.5906,4.6897,4.9061,4.7851,4.772,4.8415,4.81,4.7754,4.752,4.8568,4.8978,0.0,5.0163,0.0,0.0,0.0,0.0,0.0,5.5409,5.6381,0.0,5.7806,5.8292,5.8659,0.0,0.0,0.0,0.0,6.1363,6.1511,6.1775,6.2623,6.3694,6.4781,6.4168,6.3743,6.5365,6.4475,6.4224,6.7487,6.767,6.7618,6.8756,7.1026,7.2657,7.2418,7.6791,8.172,8.6157,9.0213,9.372,9.6273,9.9033,10.1407,10.3008,10.6297,10.8378,10.8403,10.9184,10.9607,10.9607,10.9607,10.9607,10.9607,10.9799,11.01,11.0575,10.9386,10.6814,10.2907,10.5274,10.3593,9.8683,10.4272,10.5498,10.3404,10.4595,10.5414,10.5693,10.4486,10.469,10.5582,10.4595,10.4308,10.4409,10.3792,10.3697,10.3807,0.0,0.0,0.0,0.0,0.0,0.0,0.0,0.0,0.0,0.0,0.0,0.0,0.0,0.0,0.0,0.0,0.0,0.0,0.0,0.0,0.0,0.0,0.0,4.4302,4.4417,4.4556,4.4999,4.5726,4.5864,4.6795,4.8317,4.8317,4.8317,4.8285,4.767,4.7266,4.7169,4.8576,4.9238,4.9432,5.0811,0.0,0.0,0.0,0.0,0.0,0.0,0.0,0.0,5.8529,5.9177,5.9738,5.9979,0.0,0.0,0.0,0.0,0.0,6.1222,6.1542,6.2714,6.5715,6.4375,6.3278,6.6758,6.486,6.3521,6.7427,6.7915,6.7996,6.9079,7.1712,7.3604,7.3141,7.7263,8.2826,8.9423,9.0293,9.1624,9.5506,9.5544,9.7448,10.2986,10.4701,10.6114,10.77,10.7805,10.7805,10.7805,10.7912,10.801,10.7893,10.8306,10.8905,10.9797,10.9013,10.6493,10.238,10.5102,10.4812,10.1787,10.5405,10.6788,10.6224,10.508,10.5322,10.638,10.43,10.469,10.6399,10.5003,10.4512,10.4613,10.3901,10.3693,10.3807,0.0,0.0,0.0,0.0,0.0,0.0,0.0,0.0,0.0,0.0,0.0,0.0,0.0,0.0,0.0,0.0,0.0,0.0,0.0,0.0,0.0,4.4186,4.3733,4.3827,4.4544,4.4702,4.5114,4.578,4.6425,4.7767,4.9775,4.9775,4.9775,4.9775,4.9677,4.8965,4.7929,4.9354,5.0293,5.0927,5.1737,0.0,0.0,0.0,0.0,0.0,0.0,0.0,0.0,5.9274,5.9597,5.9716,5.976,0.0,0.0,0.0,0.0,0.0,6.1056,6.2203,6.3788,6.5749,6.4148,6.2945,6.6164,6.4573,6.3977,6.9594,7.1176,7.236,7.5033,8.0633,8.2963,7.713,8.0752,8.5654,8.9649,9.3077,9.4891,9.4118,9.9264,10.2491,10.1289,10.4678,10.7204,10.7815,10.7805,10.7805,10.7805,10.8386,10.8598,10.8214,10.8885,10.9209,10.9014,10.8177,10.5489,10.1018,10.4775,10.4713,10.1204,10.5385,10.7203,10.7113,10.7084,10.7217,10.7383,10.7012,10.7105,10.7273,10.6005,10.5477,10.5398,10.4205,10.3791,10.3899,0.0,0.0,0.0,0.0,0.0,0.0,0.0,0.0,0.0,0.0,0.0,0.0,0.0,0.0,0.0,0.0,0.0,0.0,0.0,0.0,0.0,4.4052,4.3427,4.333,4.3814,4.4754,4.5365,4.5688,4.7667,4.9515,5.1232,5.1232,5.1038,5.0649,4.9872,4.9141,4.8623,5.0066,5.0894,5.1283,0.0,0.0,0.0,0.0,0.0,0.0,0.0,0.0,0.0,0.0,5.9694,5.9694,5.9694,0.0,0.0,0.0,0.0,0.0,6.0835,6.1562,6.342,6.8347,6.6987,6.6125,7.2572,6.9233,6.6948,7.4559,7.2529,7.1176,7.7029,8.0056,8.2294,8.4111,8.8738,9.2416,9.341,9.4665,9.5405,9.5386,9.8364,10.0425,10.0377,10.333,10.5477,10.6,10.5993,10.6204,10.6596,10.6981,10.73,10.7718,10.7816,10.7604,10.7203,10.7008,10.5213,10.1807,10.5086,10.4918,10.1691,10.56,10.7412,10.7417,10.6213,10.6399,10.7495,10.6213,10.6493,10.7703,10.6804,10.618,10.5704,10.4309,10.4086,10.4612,0.0,0.0,0.0,0.0,0.0,0.0,0.0,0.0,0.0,0.0,0.0,0.0,0.0,0.0,0.0,0.0,0.0,0.0,0.0,0.0,4.33,4.4135,4.3786,4.3602,4.3693,4.5062,4.6095,4.6737,4.9448,5.1499,5.2948,5.2948,5.2398,5.1413,5.0436,4.9821,4.9594,5.107,5.1801,5.2061,0.0,0.0,0.0,0.0,0.0,0.0,0.0,0.0,0.0,0.0,0.0,0.0,0.0,0.0,0.0,6.0022,6.0217,6.0378,6.0633,6.1087,6.3116,6.9741,6.835,6.7972,7.7846,7.3187,6.9417,7.8585,7.4864,7.209,7.9126,7.9769,8.186,8.9865,9.4689,9.7522,9.7539,9.6835,9.6751,9.8037,9.8206,9.8924,10.0721,10.2494,10.38,10.4406,10.4501,10.4781,10.5609,10.5808,10.6371,10.7294,10.697,10.6902,10.6803,10.6511,10.5293,10.3388,10.5678,10.5623,10.3476,10.6185,10.7281,10.7187,10.5618,10.5803,10.7076,10.5488,10.6121,10.7796,10.7213,10.6492,10.5592,10.43,10.4387,10.5175,0.0,0.0,0.0,0.0,0.0,0.0,0.0,0.0,0.0,0.0,0.0,0.0,0.0,0.0,0.0,0.0,0.0,0.0,0.0,0.0,4.3944,4.4622,4.5254,4.5433,4.5149,4.5885,4.7531,5.0167,5.1925,5.3591,5.5162,5.5162,5.4082,5.2139,5.2734,5.2268,5.1121,5.254,5.3544,5.4244,5.4956,0.0,0.0,0.0,0.0,0.0,0.0,0.0,0.0,0.0,0.0,0.0,0.0,0.0,5.976,6.0022,6.0109,6.0217,6.0591,6.1706,6.3703,6.7471,6.5185,6.5143,7.7042,7.3044,6.9553,7.9228,8.0141,8.0276,8.3659,8.5351,8.7543,9.1623,9.4341,9.7154,10.0596,10.1007,10.1183,10.1995,10.2096,10.2386,10.3218,10.3417,10.38,10.4406,10.4501,10.4781,10.5609,10.6505,10.729,10.7726,10.789,10.8592,10.9619,10.7387,10.598,10.5318,10.6422,10.6988,10.6889,10.7399,10.7104,10.6302,10.698,10.6882,10.6418,10.7094,10.759,10.7796,10.7213,10.6205,10.51,10.4108,10.4387,10.5175,0.0,0.0,0.0,0.0,0.0,0.0,0.0,0.0,0.0,0.0,0.0,0.0,0.0,0.0,0.0,0.0,0.0,0.0,0.0,4.3688,4.3815,4.4068,4.4338,4.444,4.4325,4.7248,4.9726,5.167,5.4193,5.5739,5.6316,5.509,5.3862,5.2675,5.221,5.1912,5.1879,5.2864,5.3738,5.447,5.513,5.5668,0.0,0.0,0.0,0.0,0.0,0.0,0.0,0.0,5.9694,5.9694,5.9694,5.9694,5.9716,5.9826,5.9979,6.0174,6.042,6.1697,6.4233,6.9826,6.7691,6.7356,7.9214,7.7566,7.6183,8.5561,8.3964,8.1359,8.2983,8.755,9.1677,9.3537,9.6886,9.9931,10.1792,10.2096,10.2198,10.2502,10.2502,10.2793,10.3391,10.3519,10.38,10.4406,10.4501,10.4781,10.5609,10.619,10.6904,10.7721,10.8014,10.8489,10.9116,10.8387,10.7777,10.7194,10.7116,10.68,10.6397,10.6587,10.6526,10.6198,10.6604,10.6905,10.7104,10.7588,10.7889,10.7979,10.7607,10.7102,10.649,10.5701,10.5889,10.6694,0.0,0.0,0.0,0.0,0.0,0.0,0.0,0.0,0.0,0.0,0.0,0.0,0.0,0.0,0.0,0.0,0.0,0.0,4.3657,4.391,4.3815,4.3404,4.4022,4.4464,4.4668,4.8282,5.0866,5.2263,5.5548,5.6827,5.621,5.4895,5.3769,5.2877,5.2333,5.2333,5.2799,5.3621,5.4256,5.4794,5.5474,5.6057,0.0,0.0,0.0,0.0,0.0,0.0,0.0,0.0,5.9694,5.9694,5.9694,5.9694,5.9694,5.9694,5.9826,6.0022,6.0227,6.1196,6.3539,6.9466,6.8453,6.9004,8.0386,8.0183,8.0199,8.9388,8.8023,8.5249,8.552,8.9748,9.3537,9.4552,9.807,10.1081,10.2299,10.2502,10.2502,10.2502,10.2502,10.2793,10.3391,10.3519,10.38,10.4406,10.4501,10.4677,10.5195,10.5896,10.6608,10.7274,10.7986,10.851,10.8716,10.8715,10.8414,10.7694,10.6974,10.6413,10.5885,10.6092,10.6007,10.5808,10.6381,10.679,10.7203,10.7702,10.8092,10.8195,10.7815,10.7595,10.752,10.6602,10.6903,10.7595,0.0,0.0,0.0,0.0,0.0,0.0,0.0,0.0,0.0,0.0,0.0,0.0,0.0,0.0,0.0,0.0,0.0,0.0,4.372,4.432,4.4117,4.2775,4.4685,4.6108,4.6771,4.8838,5.0607,5.2017,5.5734,5.6643,5.477,5.4781,5.4045,5.2733,5.364,5.401,5.4063,5.5028,5.5421,5.5454,5.6187,5.651,0.0,0.0,0.0,0.0,0.0,0.0,0.0,0.0,5.9716,5.9716,5.9694,5.9694,5.9694,5.9727,5.9727,5.976,6.0055,6.0293,6.136,6.5274,6.6403,6.9339,7.9902,7.9876,8.0266,8.945,9.2522,9.3334,9.2527,9.2426,9.2933,9.4485,9.7191,9.9897,10.2198,10.2502,10.2502,10.2502,10.2502,10.2793,10.3391,10.3519,10.38,10.4406,10.4501,10.4501,10.4501,10.5794,10.6572,10.6602,10.7999,10.868,10.872,10.8179,10.7507,10.6691,10.6108,10.5885,10.6192,10.6192,10.559,10.4785,10.6804,10.7121,10.6297,10.7399,10.809,10.8426,10.7811,10.7595,10.752,10.6602,10.6903,10.7595,0.0,0.0,0.0,0.0,0.0,0.0,0.0,0.0,0.0,0.0,0.0,0.0,0.0,0.0,0.0,0.0,0.0,0.0,4.4383,4.4573,4.451,4.4117,4.4717,4.5128,4.5317,4.8332,5.108,5.3471,5.4578,5.4855,5.4285,5.3426,5.3329,5.3955,5.5346,5.5536,5.49,5.6648,5.6613,5.5421,5.5636,5.6349,0.0,0.0,0.0,0.0,0.0,0.0,0.0,0.0,0.0,0.0,5.9881,6.0073,6.0785,6.2284,6.166,6.083,6.2571,6.2739,6.341,6.749,7.0072,7.3217,7.9296,8.0956,8.349,9.1286,9.3673,9.3808,9.1981,9.462,9.6751,9.5669,9.8409,10.1115,10.2299,10.2502,10.2502,10.2502,10.2502,10.2522,10.2606,10.3212,10.38,10.4406,10.4018,10.3914,10.4501,10.4787,10.5192,10.5812,10.7693,10.877,10.8799,10.9288,10.9274,10.8598,10.729,10.6181,10.5103,10.5103,10.5399,10.5793,10.6418,10.679,10.7185,10.7908,10.8325,10.8712,10.85,10.8405,10.8405,10.8179,10.8217,10.8405,0.0,0.0,0.0,0.0,0.0,0.0,0.0,0.0,0.0,0.0,0.0,0.0,0.0,0.0,0.0,0.0,0.0,0.0,0.0,4.4952,4.4889,4.432,4.4541,4.4952,4.5539,4.8932,5.127,5.2428,5.3281,5.3566,5.325,5.307,5.345,5.4359,5.594,5.6007,5.4928,5.6977,5.6855,5.536,5.6027,5.682,5.76,0.0,0.0,0.0,0.0,0.0,0.0,0.0,0.0,0.0,5.9892,6.0785,6.2145,6.2599,6.2437,6.2492,6.448,6.476,6.5852,7.139,7.3679,7.603,8.1397,8.4595,8.8265,9.4718,9.6254,9.621,9.5432,9.7394,9.8848,9.8138,10.0199,10.1995,10.2368,10.2502,10.2502,10.2502,10.2502,10.259,10.2777,10.3519,10.4211,10.4923,10.4194,10.3781,10.4018,10.42,10.4408,10.451,10.7289,10.8594,10.8283,10.9292,10.9276,10.8324,10.7101,10.6079,10.5296,10.5296,10.5604,10.6198,10.6706,10.7187,10.7889,10.8201,10.8504,10.8818,10.8818,10.8818,10.8818,10.8818,10.8818,10.8818,0.0,0.0,0.0,0.0,0.0,0.0,0.0,0.0,0.0,0.0,0.0,0.0,0.0,0.0,0.0,0.0,0.0,0.0,0.0,0.0,4.5097,4.3836,4.4601,4.5728,4.715,5.0279,5.127,5.0006,5.1891,5.2534,5.2049,5.3313,5.404,5.4377,5.6061,5.6024,5.473,5.6686,5.656,5.5178,5.6895,5.7498,5.7406,5.7535,0.0,0.0,0.0,0.0,0.0,0.0,0.0,0.0,5.9738,6.154,6.3376,6.1595,6.2566,6.4542,6.6064,6.6599,6.8405,7.5558,7.6915,7.8419,8.5762,9.0002,9.3736,9.8582,9.9339,9.9593,10.1183,10.0402,9.9863,10.1316,10.2096,10.2502,10.2502,10.2502,10.2502,10.2502,10.2368,10.2624,10.3189,10.3898,10.4591,10.5413,10.4712,10.3983,10.3401,10.3883,10.3895,10.3305,10.6808,10.8283,10.7616,10.85,10.819,10.6677,10.621,10.6102,10.6392,10.6292,10.6219,10.6381,10.7399,10.7981,10.8182,10.8416,10.8608,10.8818,10.8818,10.8818,10.8818,10.8818,10.8818,10.8818,0.0,0.0,0.0,0.0,0.0,0.0,0.0,0.0,0.0,0.0,0.0,0.0,0.0,0.0,0.0,0.0,0.0,0.0,0.0,0.0,4.4632,4.4335,4.6674,4.8655,5.0078,5.0836,5.1089,5.0773,5.0658,5.108,5.2017,5.2302,5.3629,5.5863,5.8375,5.8249,5.6254,5.8321,5.7282,5.4467,5.5961,5.6321,5.5992,5.7179,0.0,0.0,0.0,0.0,0.0,0.0,0.0,0.0,5.9903,6.0526,6.1724,6.2946,6.4412,6.6226,6.8784,6.9069,6.965,7.3773,7.7927,8.3272,9.1993,9.458,9.5844,9.8317,9.9001,9.9762,10.1893,10.1995,10.1893,10.2198,10.2401,10.2502,10.2502,10.2502,10.2502,10.2502,10.1995,10.1511,10.1309,10.1691,10.2611,10.4211,10.2799,10.25,10.419,10.3673,10.3907,10.5005,10.6884,10.7797,10.7602,10.7819,10.7612,10.7015,10.6822,10.7294,10.8299,10.682,10.6587,10.7281,10.7587,10.7889,10.8219,10.818,10.8486,10.8818,10.8818,10.8818,10.8818,10.8818,10.8818,10.8818,0.0,0.0,0.0,0.0,0.0,0.0,0.0,0.0,0.0,0.0,0.0,0.0,0.0,0.0,0.0,0.0,0.0,0.0,0.0,0.0,4.4835,4.5572,4.7731,4.9256,4.9983,5.0647,5.0678,4.9983,4.9299,4.9995,5.2017,5.2017,5.3313,5.5746,5.7548,5.7071,5.5076,5.7267,5.6567,5.4137,5.6034,5.6444,5.6025,0.0,0.0,0.0,0.0,0.0,0.0,0.0,0.0,0.0,0.0,0.0,6.234,6.246,6.4185,6.6647,6.9173,7.1083,7.3788,7.9719,8.4424,8.9046,9.4484,9.669,9.8,9.9605,10.0392,10.1115,10.2299,10.2502,10.2502,10.2502,10.2502,10.2502,10.2502,10.2198,10.1995,10.1995,10.1284,10.0802,10.0706,10.1801,10.2978,10.4199,10.358,10.3699,10.4899,10.4311,10.4302,10.5078,10.6793,10.7591,10.7613,10.762,10.7614,10.7589,10.7205,10.7403,10.82,10.7289,10.7107,10.7588,10.7683,10.7908,10.8182,10.8289,10.8484,10.8818,10.8818,10.8818,10.8818,10.8818,10.8818,10.8818,0.0,0.0,0.0,0.0,0.0,0.0,0.0,0.0,0.0,0.0,0.0,0.0,0.0,0.0,0.0,0.0,0.0,0.0,0.0,0.0,0.0,4.6862,4.8199,4.9066,4.9445,5.0457,5.0362,4.9078,4.8383,4.9615,5.2534,5.2534,5.3702,5.585,5.6473,5.5455,5.3396,5.5246,5.5013,5.3572,5.5934,0.0,0.0,0.0,0.0,0.0,0.0,0.0,0.0,0.0,0.0,0.0,0.0,0.0,6.2899,6.1141,6.3214,6.6485,6.8291,7.2411,7.8233,8.6552,9.0485,9.2873,9.5244,9.7126,9.8911,10.0985,10.1981,10.2502,10.2502,10.2502,10.2502,10.2502,10.2502,10.2502,10.2299,10.1893,10.1487,10.1183,10.0826,10.0601,10.0807,10.2582,10.4001,10.4471,10.4801,10.5113,10.5399,10.5008,10.4779,10.4887,10.6488,10.7398,10.74,10.7398,10.74,10.751,10.691,10.6901,10.7413,10.7183,10.7203,10.7376,10.7476,10.7702,10.7907,10.8289,10.8611,10.8691,10.8613,10.8592,10.8592,10.8592,10.8592,10.8592,0.0,0.0,0.0,0.0,0.0,0.0,0.0,0.0,0.0,0.0,0.0,0.0,0.0,0.0,0.0,0.0,0.0,0.0,0.0,0.0,0.0,4.7358,4.8412,4.9742,5.1543,5.1216,5.0583,4.9754,4.9078,5.0816,5.4682,5.4682,5.6135,5.8748,5.8843,5.7096,5.4023,5.3776,5.2929,5.1926,0.0,0.0,0.0,0.0,0.0,0.0,0.0,0.0,0.0,0.0,5.8605,0.0,0.0,0.0,6.0212,5.9921,6.2825,6.6161,6.6452,7.2379,7.9883,8.5735,8.7676,8.9791,9.5902,9.61,9.618,10.0517,10.1981,10.2502,10.2502,10.2502,10.2502,10.2502,10.2502,10.2299,10.1589,10.1995,10.1893,10.0474,10.1307,10.1794,10.1197,10.2175,10.34,10.4685,10.4018,10.3997,10.5302,10.5008,10.4996,10.5793,10.6306,10.6611,10.6612,10.6611,10.5999,10.4924,10.5022,10.5509,10.6397,10.5509,10.5597,10.6381,10.6422,10.6509,10.67,10.7815,10.8418,10.8499,10.8016,10.7783,10.7783,10.7783,10.7783,10.7896,0.0,0.0,0.0,0.0,0.0,0.0,0.0,0.0,0.0,0.0,0.0,0.0,0.0,0.0,0.0,0.0,0.0,0.0,0.0,0.0,0.0,4.7059,4.7926,4.8762,4.9679,4.9773,4.9287,4.8162,4.8288,5.1259,5.6915,5.8085,5.8875,5.9349,0.0,0.0,0.0,0.0,0.0,0.0,0.0,0.0,0.0,0.0,0.0,0.0,0.0,0.0,0.0,0.0,5.8605,5.8723,5.9468,0.0,0.0,0.0,6.1572,6.4833,7.0079,7.4225,7.9111,8.75,8.8046,8.8493,9.6191,9.5937,9.5358,9.9848,10.0908,10.1296,10.2301,10.2502,10.2502,10.2502,10.2502,10.2231,10.1487,10.1284,10.0923,10.0211,10.0676,10.1106,10.1108,10.2609,10.3912,10.4508,10.4825,10.5194,10.5896,10.5783,10.5809,10.621,10.631,10.6395,10.6401,10.6006,10.5307,10.4393,10.4289,10.4575,10.5326,10.4502,10.5206,10.7022,10.6386,10.6608,10.7285,10.7385,10.7579,10.7809,10.7098,10.6903,10.6903,10.7407,10.7595,10.7708,0.0,0.0,0.0,0.0,0.0,0.0,0.0,0.0,0.0,0.0,0.0,0.0,0.0,0.0,0.0,0.0,0.0,0.0,0.0,0.0,0.0,4.6734,4.734,4.7719,4.7909,4.8383,4.813,4.7087,4.7972,5.1701,5.8076,6.0732,6.1751,0.0,6.2484,6.0526,0.0,0.0,0.0,0.0,0.0,0.0,0.0,0.0,0.0,0.0,0.0,0.0,0.0,0.0,5.8464,5.8723,5.9468,5.9694,0.0,0.0,0.0,6.3061,7.131,7.3966,7.6589,8.5851,8.6426,8.6575,9.3826,9.3992,9.3907,9.8311,9.9269,9.9828,10.1594,10.1895,10.1895,10.1895,10.1895,10.1816,10.1411,10.0997,10.0592,10.0307,10.1002,10.1504,10.1492,10.3496,10.469,10.4508,10.5502,10.6082,10.6082,10.6082,10.6192,10.6376,10.5972,10.592,10.6082,10.51,10.4291,10.3721,10.3409,10.37,10.4291,10.3597,10.4697,10.6899,10.5998,10.6005,10.6807,10.6677,10.6686,10.6879,10.6205,10.6006,10.6114,10.6994,10.7295,10.7391,0.0,0.0,0.0,0.0,0.0,0.0,0.0,0.0,0.0,0.0,0.0,0.0,0.0,0.0,0.0,4.2202,4.1275,4.1464,4.3101,4.4001,4.5178,4.6734,4.6834,0.0,4.7877,4.794,4.7909,4.7846,4.9153,5.2344,5.7335,6.1466,6.4721,6.7091,6.5227,6.39,6.2724,0.0,0.0,0.0,0.0,0.0,0.0,0.0,0.0,0.0,0.0,0.0,0.0,5.7406,5.8065,5.8723,5.9468,5.9694,5.9694,0.0,0.0,0.0,6.6226,6.914,7.1958,7.7204,8.0126,8.2824,8.7014,8.8634,9.0577,9.5172,9.7233,9.863,10.0109,10.0305,10.0305,10.0305,10.0305,10.0499,10.1109,10.1797,10.1893,10.0985,10.3412,10.4612,10.3097,10.4998,10.5924,10.5096,10.5123,10.5201,10.5201,10.5201,10.5474,10.6397,10.4908,10.4394,10.5201,10.3693,10.2583,10.1795,10.1895,10.2487,10.3425,10.2592,10.3415,10.5303,10.4283,10.39,10.4007,10.5098,10.5686,10.5789,10.5082,10.5005,10.5304,10.6114,10.6414,10.6602,0.0,0.0,0.0,0.0,0.0,0.0,0.0,0.0,0.0,0.0,0.0,0.0,0.0,4.4548,4.3905,4.3613,4.3319,4.3378,4.3982,4.4843,4.5575,4.6121,4.7024,4.7403,4.7214,4.8067,4.832,4.7909,4.8383,5.108,5.5914,5.8812,6.2098,6.5732,6.8577,6.7218,6.2793,6.2407,0.0,0.0,0.0,0.0,0.0,0.0,0.0,0.0,0.0,5.7226,5.9684,5.8119,5.8356,0.0,0.0,5.9694,5.9694,5.9694,6.004,6.1303,6.5384,6.642,6.8039,7.5358,7.609,7.6832,8.3712,8.5984,8.7461,9.0363,9.3987,9.6551,9.6055,9.8307,10.0204,10.0204,10.0786,10.1098,10.0517,10.129,10.1584,10.0791,10.2201,10.3094,10.2912,10.4017,10.4384,10.338,10.2485,10.2605,10.4094,10.3295,10.388,10.6302,10.4818,10.3599,10.2897,10.18,10.1402,10.1604,10.1413,10.1713,10.2378,10.2488,10.2903,10.3498,10.3215,10.3681,10.4701,10.4708,10.4684,10.4698,10.419,10.4097,10.4314,10.5801,10.6302,10.6473,0.0,0.0,0.0,0.0,0.0,0.0,0.0,0.0,0.0,0.0,0.0,0.0,0.0,0.0,4.4377,4.4078,4.4339,4.4491,4.4491,4.5321,4.5805,4.5805,4.6708,4.6961,4.6487,4.7372,4.7751,4.753,4.7927,5.0022,5.368,5.6739,6.0043,6.3546,6.7512,6.7818,0.0,0.0,6.3678,5.9064,5.9949,0.0,5.6569,0.0,0.0,5.9758,5.9209,6.0451,6.2225,6.1184,6.0785,0.0,0.0,0.0,0.0,5.9403,5.9856,6.0947,6.3311,6.3635,6.4866,7.1537,7.1763,7.2155,7.912,8.2556,8.4777,8.6796,9.1422,9.5069,9.4696,9.7281,9.9645,9.9976,10.1002,10.1495,10.0995,10.1593,10.1892,10.1397,10.2104,10.2593,10.2697,10.3403,10.3484,10.2593,10.1607,10.1705,10.3212,10.2689,10.3093,10.4687,10.3917,10.2485,10.0398,10.0415,10.0594,10.1184,10.1183,10.1487,10.1982,10.2413,10.261,10.2593,10.2704,10.3297,10.4282,10.3889,10.3719,10.3809,10.3495,10.3479,10.3801,10.5605,10.6214,10.6473,0.0,0.0,0.0,0.0,0.0,0.0,0.0,0.0,0.0,0.0,0.0,0.0,0.0,0.0,0.0,4.3328,4.4021,4.4491,4.446,4.5284,4.5769,4.5787,4.5837,4.5837,4.5837,4.5837,4.6202,4.6834,4.7982,4.9236,5.0742,5.5467,5.8798,6.089,6.1905,6.5385,7.0406,6.9114,6.8513,6.7976,6.273,6.1308,6.213,6.0471,6.0217,6.1273,6.524,6.543,6.4111,6.6387,6.5319,6.3084,0.0,0.0,0.0,0.0,0.0,5.9662,0.0,0.0,0.0,6.5254,6.7035,6.9054,7.2906,7.793,8.2387,8.4502,8.948,9.4082,9.6052,9.7428,9.8566,9.9538,10.0502,10.1479,10.2514,10.2694,10.2713,10.2688,10.3403,10.3513,10.2705,10.3403,10.3513,10.2701,10.2611,10.2611,10.2701,10.3382,10.3109,10.151,10.2208,10.1095,9.8057,9.9521,10.029,10.0405,10.1393,10.191,10.2123,10.2276,10.2482,10.2721,10.2721,10.2721,10.2721,10.2721,10.2793,10.2991,10.2991,10.3182,10.3805,10.5395,10.6096,10.651,0.0,0.0,0.0,0.0,0.0,0.0,0.0,0.0,0.0,0.0,0.0,0.0,0.0,0.0,0.0,4.4351,4.4421,4.4276,4.3814,4.4471,4.5098,4.5613,4.6222,4.6771,4.7308,4.734,4.7403,4.7593,4.741,4.7946,4.9213,5.119,5.3175,5.526,5.9128,6.1466,6.2635,6.5258,6.4658,6.2256,6.627,6.4784,6.055,6.407,6.4095,6.2634,6.5217,6.6671,6.7372,6.6978,6.6095,6.4704,0.0,0.0,0.0,0.0,0.0,0.0,5.9565,0.0,0.0,0.0,0.0,0.0,6.7924,7.1487,7.5095,7.8186,8.3838,8.9062,9.1971,9.6166,9.9417,9.9992,10.0906,10.1487,10.1785,10.2013,10.2091,10.189,10.2008,10.2101,10.1918,10.2008,10.1799,10.0797,9.9773,9.9948,10.1488,10.2501,10.2008,9.9822,10.0503,10.0313,9.8793,9.9779,10.0606,10.1193,10.1614,10.191,10.2123,10.2276,10.2482,10.2721,10.2721,10.2721,10.2721,10.2721,10.2702,10.2812,10.29,10.3099,10.3296,10.4581,10.5504,10.6321,0.0,0.0,0.0,0.0,0.0,0.0,4.3733,0.0,0.0,0.0,0.0,0.0,0.0,0.0,0.0,4.4155,4.3999,4.3791,4.3396,4.3271,4.3777,4.5083,4.5341,4.5952,4.7005,4.7024,4.7024,4.7024,4.6792,4.69,4.734,4.8726,0.0,0.0,5.4616,5.6545,5.7714,6.0455,6.2067,6.311,6.7055,6.7339,6.5701,6.864,6.8622,6.7383,7.0163,7.1333,7.1597,7.1617,6.995,6.7262,6.3538,0.0,0.0,0.0,0.0,0.0,0.0,0.0,0.0,6.1821,0.0,0.0,6.5664,6.9124,7.2613,7.5852,8.1606,8.6713,8.8965,9.2858,9.6117,9.7158,9.8274,9.9605,10.1308,10.1785,10.18,10.1405,10.1417,10.1514,10.1514,10.1514,10.1291,10.0697,9.9855,9.9972,10.1281,10.1596,10.109,9.9659,10.0099,10.0099,9.9622,9.9765,10.0208,10.1012,10.1209,10.1299,10.1484,10.1992,10.2407,10.2593,10.2722,10.2721,10.2721,10.2721,10.2721,10.2684,10.2793,10.29,10.3101,10.4205,10.52,10.6086,0.0,0.0,4.4397,4.4312,4.3413,4.2984,4.3827,0.0,0.0,0.0,0.0,0.0,0.0,0.0,0.0,0.0,4.3121,4.3021,4.2942,4.2043,4.2383,4.44,4.4123,4.4569,4.59,4.6058,4.6044,4.5805,4.627,4.6209,4.5638,4.7603,0.0,0.0,0.0,5.1775,5.4808,5.5715,6.0202,6.6744,6.617,6.8952,7.3412,7.3222,7.2906,7.3093,7.7031,7.712,7.568,7.754,7.4789,7.0028,6.6946,6.37,6.1206,0.0,6.1077,0.0,0.0,0.0,0.0,0.0,6.1821,0.0,6.4866,6.8511,7.215,7.5101,8.0231,8.4585,8.6074,8.8157,9.0235,9.191,9.372,9.6381,10.0502,10.1386,10.1392,10.0907,10.1087,10.1299,10.1494,10.1514,10.1514,10.1514,10.1404,10.1274,10.12,10.0503,9.9986,9.9886,9.9959,9.9992,9.9985,9.9441,9.9585,10.0398,10.0398,10.0476,10.0887,10.1697,10.22,10.2389,10.2612,10.2703,10.2721,10.2721,10.2721,10.2721,10.2721,10.2775,10.3085,10.3903,10.4916,10.6093,0.0,0.0,4.4256,4.375,4.3469,4.369,4.4752,0.0,0.0,0.0,0.0,0.0,0.0,0.0,0.0,0.0,4.258,4.1989,4.1374,4.1784,4.2719,4.4258,4.5525,4.6307,4.6613,4.7719,4.7466,4.5805,4.645,4.661,4.6316,4.7492,0.0,0.0,0.0,5.1448,5.2723,5.4524,5.7777,6.2098,6.6365,6.9051,7.088,7.4139,7.3633,7.1797,7.6443,7.6939,7.5518,7.6387,7.4461,7.0935,6.6581,6.3959,6.2081,6.0051,5.9144,0.0,0.0,0.0,0.0,6.0526,6.1863,0.0,6.2081,6.316,6.5423,6.8968,7.1311,7.442,7.9908,8.3202,8.5269,8.579,8.9228,9.3185,9.6969,9.836,9.8824,9.8367,9.9232,10.0296,10.1376,10.1514,10.1514,10.1514,10.0907,10.0283,9.9622,9.8814,9.7984,9.7174,9.777,9.8165,9.8204,9.8715,9.943,10.0398,10.0398,10.0803,10.1578,10.1793,10.2102,10.2426,10.2408,10.2612,10.2721,10.2721,10.2721,10.2721,10.2721,10.2702,10.2794,10.3104,10.4217,10.5722,0.0,0.0,4.4228,4.361,4.3245,4.3379,4.4342,4.423,0.0,0.0,0.0,0.0,0.0,0.0,0.0,0.0,0.0,0.0,0.0,4.1254,4.2231,4.3269,4.4529,4.5708,4.6771,4.715,4.7024,4.6297,4.6297,4.6431,4.6654,4.7524,0.0,0.0,0.0,5.0848,5.1575,5.2976,5.5945,6.0329,6.6301,6.9714,7.1705,7.594,7.6446,7.5245,7.7678,7.8083,7.7274,7.5783,7.479,7.3532,7.0117,6.7203,6.4671,6.2867,6.1087,5.9694,5.9694,6.0235,6.0753,6.0753,6.1313,0.0,0.0,6.2386,6.3878,6.7305,6.8899,7.0907,7.4777,7.686,7.8518,8.0213,8.3095,8.6012,8.8698,9.4019,9.8055,9.9083,9.939,9.9999,10.1413,10.0892,10.0808,10.138,10.0393,9.9548,9.9125,9.7466,9.6691,9.7007,9.6911,9.7047,9.7502,9.8063,9.8574,9.9087,9.9609,10.0311,10.1095,10.1614,10.191,10.2086,10.2295,10.2519,10.2612,10.2722,10.2721,10.2721,10.2721,10.2721,10.2796,10.3313,10.4297,10.5596,0.0,0.0,4.4172,4.3441,4.3042,4.2968,4.3531,4.3776,0.0,0.0,0.0,0.0,0.0,0.0,0.0,0.0,0.0,0.0,0.0,4.1971,4.2839,4.2932,4.3886,4.5173,4.6753,4.655,4.6518,4.6803,4.6266,4.636,4.7024,4.7624,4.8035,4.832,0.0,5.0627,5.2227,5.2618,5.5873,6.1213,6.6965,7.022,7.2116,7.6888,7.8468,7.8215,7.8879,7.9257,7.9029,7.5785,7.5368,7.5796,7.3463,7.0195,6.7035,6.6161,6.357,6.085,6.0267,6.0407,6.086,6.1465,6.1271,6.1174,0.0,0.0,0.0,6.6045,6.7423,6.8606,6.9921,7.051,7.1693,7.4333,7.6487,7.8444,8.0326,8.829,9.4811,9.7207,9.7222,9.7618,9.9068,9.8629,9.9047,10.0996,9.9505,9.8546,9.8655,9.6593,9.6003,9.7183,9.6616,9.6637,9.7266,9.7772,9.8086,9.8202,9.9104,9.9879,10.0597,10.1397,10.181,10.1812,10.2105,10.2295,10.2389,10.2593,10.2685,10.2721,10.2721,10.2721,10.2796,10.3687,10.4615,10.558,4.4397,4.4401,0.0,4.2902,4.3076,4.3307,4.3033,4.345,4.4284,0.0,0.0,0.0,0.0,0.0,0.0,0.0,0.0,0.0,4.348,4.6195,0.0,4.5295,4.6622,4.7233,4.6803,4.794,4.7972,4.6803,4.6708,4.7056,4.7782,4.7846,4.8522,4.9659,4.9205,5.1796,5.6451,5.5936,5.9602,6.6112,6.9936,6.9778,6.8039,7.4676,7.6098,7.4897,7.7994,7.91,7.8846,7.6869,7.602,7.5317,7.2195,6.9362,6.6938,6.5522,6.3482,6.1692,6.1595,6.2932,6.3838,6.1498,6.3149,6.4445,6.0882,0.0,6.212,6.1415,0.0,6.2659,6.4525,0.0,0.0,6.6893,7.0432,7.4048,7.655,8.0374,8.356,8.5358,8.7033,8.8873,9.0851,9.272,9.549,9.9415,9.7623,9.6565,9.7052,9.6534,9.6159,9.591,9.6682,9.7134,9.7285,9.8288,9.9219,10.0101,10.0195,10.0691,10.1393,10.1494,10.1597,10.1793,10.1795,10.2085,10.2426,10.2408,10.2519,10.2721,10.2721,10.2721,10.2796,10.3687,10.4523,10.5378,4.4401,4.4116,0.0,0.0,4.2486,4.2479,4.2706,4.4152,4.5438,4.5978,0.0,0.0,0.0,0.0,0.0,0.0,0.0,5.0804,4.6995,4.8419,0.0,4.7503,4.7319,4.7308,4.7435,4.7593,4.7372,4.6803,4.6424,4.6582,4.7277,4.7688,4.8636,4.9912,5.0469,5.3123,5.7209,5.7381,6.0289,6.5006,6.7281,6.7787,6.7976,7.5403,7.7678,7.6951,7.7204,7.8089,7.8468,7.4475,7.5428,7.7499,7.2866,7.0903,7.0079,6.9018,6.574,6.2631,6.3417,6.4324,6.4809,6.4056,6.438,6.4486,6.3094,6.1381,6.0282,6.0902,0.0,0.0,0.0,0.0,0.0,0.0,6.7286,6.9206,7.1131,7.298,7.6996,8.4771,8.4724,8.5053,8.7632,8.9101,9.1309,9.4869,9.3954,9.3765,9.5046,9.5836,9.6597,9.7454,9.7349,9.7278,9.7286,9.8337,9.9131,9.9557,10.01,10.0818,10.1514,10.1514,10.1517,10.1597,10.1697,10.1891,10.2085,10.2313,10.2389,10.2519,10.2704,10.2721,10.2907,10.4207,10.4913,10.5396,4.4944,0.0,0.0,4.2705,4.2205,4.2093,4.2761,4.4959,4.6729,4.726,4.7937,4.9446,5.2305,5.2198,5.2168,0.0,5.5343,5.5083,5.0751,5.1395,5.1486,5.059,4.8333,4.7688,4.9015,4.7561,4.6803,4.6803,4.6329,4.6518,4.7372,4.7909,4.9015,5.0512,5.1523,5.4239,5.8148,5.9444,6.2344,6.6207,6.8003,6.9552,7.1294,7.613,7.8437,7.8911,7.7394,7.7836,7.8405,7.3759,7.534,7.8491,7.42,7.2663,7.2443,7.212,6.8655,6.5125,6.5967,6.646,6.659,6.5942,6.5189,6.4388,6.3709,6.1443,5.9902,6.1382,6.1219,0.0,0.0,0.0,6.3441,6.5044,0.0,6.6089,6.7151,6.7793,7.1584,8.0819,8.1226,8.1897,8.4828,8.5694,8.7185,8.9717,8.9914,9.0672,9.2438,9.4747,9.6681,9.8229,9.8114,9.8044,9.8044,9.9091,9.9598,9.9632,10.0415,10.1007,10.1514,10.1514,10.1514,10.1514,10.1691,10.1697,10.1776,10.2086,10.2276,10.2295,10.2313,10.2408,10.2797,10.43,10.5025,10.5396,4.6339,4.4955,0.0,4.2705,4.2593,4.2789,4.3385,4.5577,4.7825,4.9621,4.937,5.1005,5.63,5.2328,5.1541,5.7255,5.8634,5.7864,5.4715,5.6034,5.6356,5.4954,5.0385,4.911,5.1828,4.8541,4.6803,4.6803,4.6771,4.7466,4.8845,4.8876,4.9963,0.0,5.1965,5.5051,6.036,6.3141,6.7444,7.2748,7.5498,7.7488,7.8468,7.5972,7.673,7.91,7.9037,7.9037,7.8784,7.6572,7.6359,7.6862,7.6027,7.4272,7.2638,7.3345,7.1925,7.0015,6.936,7.0144,7.0183,6.6072,6.5522,6.4963,6.0795,6.0795,6.1792,6.2105,6.343,6.4698,6.5214,6.5668,0.0,0.0,6.5078,0.0,0.0,6.5784,6.6482,6.8294,7.3569,7.8177,8.0984,8.2031,8.3141,8.455,8.5894,8.7348,8.8993,9.3285,9.612,9.6934,9.8869,9.9918,9.9918,10.0892,10.1417,10.14,10.14,10.1494,10.1514,10.1514,10.1514,10.1514,10.1514,10.1578,10.1793,10.1812,10.1893,10.1972,10.1307,10.1603,10.2482,10.3613,10.4505,10.5322,0.0,0.0,0.0,4.4401,4.3385,4.2818,4.3413,4.4565,4.6616,5.0127,5.114,5.3637,5.9219,6.0128,6.041,6.0558,6.4026,6.4057,5.8985,5.9906,6.0431,5.9957,5.7462,5.5241,5.3439,5.266,5.0733,4.753,4.753,4.8004,4.8908,4.8908,5.0279,5.2744,5.3186,5.5967,6.055,6.431,6.7787,7.101,7.4326,7.6446,7.771,7.7678,7.8279,7.91,7.91,7.91,7.8784,7.6698,7.7344,7.8747,7.7081,7.601,7.5649,7.7362,7.4937,7.1925,7.2605,7.3512,7.355,7.0695,6.9076,6.7586,6.5189,6.3182,6.189,6.2148,6.3146,6.4248,6.5225,6.538,0.0,0.0,0.0,0.0,0.0,6.3517,6.4262,6.6224,6.9992,7.3209,7.5162,7.5168,7.6059,7.8453,7.9292,8.0736,8.3077,8.9138,9.3321,9.5131,9.8301,10.0304,10.0991,10.1279,10.1514,10.1514,10.1514,10.1514,10.1514,10.1514,10.1514,10.1514,10.1514,10.1497,10.1614,10.1697,10.1795,10.1891,10.1795,10.2398,10.3314,10.3707,10.4421,10.5396,4.747,4.6164,4.53,4.53,4.3975,4.3413,4.4902,4.5968,4.8361,5.3258,5.4563,5.7027,6.2229,6.3916,6.4351,6.362,6.6195,6.642,6.3017,6.1608,6.1821,6.3811,6.0645,5.8401,5.7453,5.6157,5.4229,5.1606,5.0089,5.0089,5.1469,5.0236,5.0879,5.3155,5.4071,5.6094,5.9222,6.5195,6.8482,6.9999,7.3475,7.6035,7.7741,7.7646,7.8373,7.9448,7.9195,7.91,7.8911,7.7552,7.8425,7.9867,7.8459,7.7973,7.8143,7.9273,7.7301,7.4905,7.5552,7.6297,7.6265,7.3836,7.2184,7.0624,6.8453,6.6517,6.5246,6.5446,6.6309,6.7221,6.7711,6.7343,0.0,0.0,0.0,0.0,0.0,6.2212,6.3024,6.4715,6.8267,7.077,7.1176,7.1751,7.2326,7.2868,7.4102,7.58,7.795,8.595,9.1298,9.3176,9.7966,10.0808,10.1514,10.1514,10.1514,10.1514,10.1514,10.1514,10.1514,10.1514,10.1514,10.1514,10.1514,10.1514,10.1514,10.1597,10.1694,10.1694,10.1501,10.2311,10.3511,10.3699,10.4604,10.5786,4.8112,4.6541,4.5384,4.5356,4.4458,4.4786,4.776,4.9603,5.2739,5.8519,5.9296,6.0902,6.5215,6.3726,6.3541,6.6254,6.5385,6.5138,6.6365,6.1617,6.1143,6.6523,6.0455,5.9056,6.3514,5.9119,5.7317,5.8392,5.4261,5.3597,5.6116,5.2638,5.1753,5.3123,5.4461,5.544,5.6748,6.577,6.9718,7.0192,7.3412,7.6382,7.8626,7.5877,7.6983,7.9922,7.929,7.91,7.9069,7.9069,7.9505,8.0091,8.0091,8.0097,7.9921,7.9212,7.8985,7.8823,7.8111,7.8435,7.8337,7.552,7.471,7.3739,7.0364,7.0533,7.1446,7.1446,7.2437,7.3089,7.2382,7.1256,6.9476,0.0,0.0,0.0,6.1603,6.1941,6.2651,6.3342,6.7907,7.041,6.9079,7.1447,7.1616,6.8064,7.0466,7.2632,7.3867,8.3569,8.972,9.1114,9.7434,10.0986,10.1299,10.1213,10.1307,10.1397,10.1494,10.1514,10.1514,10.1514,10.1514,10.1514,10.1514,10.1514,10.1514,10.1514,10.1514,10.1397,10.0791,10.1576,10.3178,10.3607,10.4911,10.6603,4.756,4.6866,4.6564,4.6139,4.6897,4.801,4.9342,5.0646,5.3294,5.8413,6.0448,6.2498,6.5397,6.7392,6.7607,6.5233,6.6112,6.608,6.4405,6.4848,6.6301,6.8798,6.8197,6.6933,6.5095,6.481,6.3046,5.9815,5.7168,5.5999,5.6116,5.2638,5.1469,5.2344,5.3755,5.4735,5.5945,6.45,6.9967,7.278,7.2116,7.3507,7.5845,7.4613,7.5972,7.8531,7.8342,7.8658,7.9037,7.8468,7.9092,8.0091,8.0091,8.0388,8.0734,8.051,8.0445,8.0313,7.96,7.9924,8.0024,7.824,7.6589,7.5034,7.3577,7.2703,7.2217,7.2217,7.2769,7.3259,7.3037,7.1068,6.8715,0.0,0.0,0.0,6.14,6.1941,6.2468,6.2651,6.485,6.6406,6.6542,6.7273,6.7307,6.6339,6.7489,6.9662,7.2858,7.7961,8.3381,8.9096,9.0589,9.3891,9.9216,9.7751,9.8126,10.0405,10.1115,10.1514,10.1514,10.1514,10.1514,10.1514,10.1514,10.1514,10.1514,10.1514,10.1514,10.1494,10.1877,10.3199,10.4892,10.5309,10.6206,10.7117,4.7213,4.6961,4.6926,4.6026,4.9686,5.2682,5.2457,5.3693,5.6481,6.1715,6.3672,6.53,6.7221,6.9451,6.9841,6.7471,6.6649,6.6365,6.6675,6.5543,6.6459,7.0026,7.003,6.8861,6.6549,6.6933,6.5954,6.3489,5.9286,5.7642,5.8338,5.3334,5.1216,5.1638,5.3344,5.4324,5.5219,6.3931,7.003,7.3759,7.2274,7.3317,0.0,7.4044,7.515,7.752,7.7236,7.7773,7.8563,7.8307,7.9056,8.009,7.9889,8.038,8.0931,8.0669,8.0769,8.0898,8.054,8.0734,8.0801,8.0021,7.8891,7.7823,7.7107,7.633,7.5682,7.5358,7.5391,7.5227,7.4353,7.1843,6.8663,6.4971,6.2651,6.1197,6.0825,6.255,6.3362,6.2076,6.4681,6.5967,6.4431,6.4546,6.4749,6.4749,6.5121,6.6482,6.9015,7.5845,8.0986,8.3921,8.9108,9.2885,9.5027,9.4954,9.6146,9.8563,9.9126,10.0099,10.1514,10.1514,10.1514,10.1514,10.1514,10.1514,10.1514,10.1514,10.1677,10.2081,10.3293,10.4403,10.5392,10.6106,10.6692,10.7218,4.6893,4.6784,4.6789,4.5946,5.1906,5.6731,5.6489,5.8097,6.1162,6.6231,6.7402,6.8224,6.943,7.0311,7.069,7.0406,6.7028,6.6459,7.0153,6.5227,6.4784,7.0564,6.8988,6.8008,6.8008,6.7439,6.7344,6.7723,6.1024,5.8812,6.0708,5.3998,5.0868,5.0931,5.2934,5.4419,5.5967,6.3552,6.9367,7.3443,7.2811,7.4044,7.6066,7.3823,7.4518,7.6666,7.5972,7.6698,7.8025,7.8268,7.9145,8.0056,7.9747,8.024,8.0866,8.0213,8.0475,8.0963,8.0898,8.0931,8.0995,8.0995,8.0995,8.0801,8.0148,7.9986,7.9792,7.905,7.8596,7.7795,7.6052,7.2962,6.8956,6.3532,6.1858,6.1056,6.0472,6.3531,6.4749,6.1806,6.6138,0.0,6.284,6.3159,6.3545,6.3376,6.3443,6.3951,6.4986,7.4782,7.981,7.853,8.9206,9.374,9.1189,9.2908,9.4974,9.7281,9.6884,9.8374,10.1514,10.1514,10.1514,10.1514,10.1514,10.1514,10.1514,10.1604,10.2191,10.3219,10.4614,10.5201,10.5406,10.6291,10.6792,10.6995,4.6127,4.6039,4.6869,4.8137,5.0746,5.455,6.016,6.3525,6.5876,6.7281,6.8143,6.8652,6.8846,7.0058,7.009,6.8292,6.7471,6.7376,6.8103,6.7123,6.7787,7.069,7.0437,7.0248,7.0248,7.0094,6.9525,6.8513,6.3236,5.9728,5.7809,5.2534,5.007,5.0164,5.1701,5.622,6.2674,6.2541,6.589,7.1354,7.1228,7.1768,7.278,7.3443,7.436,7.5182,7.4518,7.5877,7.7962,7.7759,7.8761,8.0152,8.0296,8.0659,8.0866,8.0213,8.0475,8.0866,8.0313,8.0572,8.0995,8.0995,8.0995,8.0801,8.0148,7.9986,7.9792,7.905,7.8596,7.8149,7.7654,7.3209,6.8791,6.6073,6.3052,6.1257,6.1917,6.4647,6.5527,6.255,6.7414,6.872,6.2967,6.3599,6.3903,6.2685,6.3159,6.4613,6.7184,6.9497,7.3766,8.0387,8.2524,8.6961,9.3998,9.2192,9.433,10.0406,9.7891,9.8374,10.1514,10.1514,10.1514,10.1514,10.1514,10.1514,10.1587,10.2191,10.3403,10.4703,10.4997,10.5474,10.6213,10.6402,10.6497,10.6601,4.8047,4.6954,4.6673,4.7856,5.231,5.6858,6.0238,6.6004,6.9785,6.9324,7.0186,7.0605,6.988,7.0694,7.0757,6.9367,6.8229,6.8071,6.9205,6.8197,6.8545,7.0722,7.0817,7.0279,6.9146,6.9521,6.8857,6.7086,6.2186,5.8906,5.7082,5.1807,4.9394,4.9521,5.2344,5.683,6.2414,6.3584,6.6459,7.0343,7.1389,7.2274,7.2969,7.3633,7.4328,7.4866,7.4518,7.5498,7.7043,7.7588,7.8817,8.0055,7.9766,8.0262,8.0801,7.973,8.0183,8.0931,8.0604,8.0736,8.0898,8.0572,8.0475,8.028,7.9597,7.9435,7.9241,7.8467,7.8752,7.883,7.8102,7.4951,7.1896,7.0211,6.6921,6.4746,6.5189,6.6846,6.732,6.5459,6.9863,7.0868,6.523,6.6068,6.5527,6.2076,6.2888,6.3951,6.4986,6.8815,7.3117,7.7789,8.1285,8.5379,9.0199,9.0257,9.2709,9.7448,9.6515,9.799,10.1514,10.1514,10.1514,10.1514,10.1514,10.1514,10.1624,10.2815,10.4027,10.5107,10.5605,10.6009,10.6376,10.6376,10.6376,10.6381,5.083,4.9312,4.8387,4.9398,5.5019,5.9828,6.1012,6.7429,7.1926,7.1323,7.2021,7.2243,7.1294,7.1452,7.12,7.0216,6.8988,6.8608,6.9398,6.8703,6.8829,7.009,7.0564,7.0026,6.8324,6.8545,6.766,6.5569,6.1143,5.8053,5.623,5.167,4.9552,4.9742,5.4208,5.7967,6.1213,6.5006,6.7976,7.0283,7.1926,7.3033,7.3665,7.3665,7.4075,7.4676,7.4676,7.5245,7.6187,7.7353,7.8713,7.9797,7.9295,7.9989,8.0736,7.9503,8.0021,8.0931,8.0639,8.0672,8.0604,7.973,7.9662,7.9532,7.8629,7.8632,7.8665,7.8111,7.9154,7.9901,7.9058,7.7453,7.5707,7.3976,7.0818,6.8381,6.7703,6.8759,6.9214,6.8267,7.1728,7.209,6.6846,6.7421,6.6173,6.1419,6.2279,6.3193,6.3531,6.839,7.2224,7.4508,8.0352,8.4437,8.652,8.8699,9.1764,9.5676,9.5562,9.7696,10.1677,10.1587,10.1698,10.1991,10.1788,10.1898,10.2395,10.3403,10.4504,10.5401,10.6119,10.6376,10.6376,10.6376,10.6376,10.6397,5.3585,5.3613,5.454,5.6873,5.8285,6.0941,6.6282,6.8778,7.0599,7.2369,7.2211,7.2085,7.2559,7.1579,7.009,6.8071,6.9462,6.8956,6.5353,6.8482,6.9714,6.7976,6.9774,7.0722,7.0501,6.9304,6.766,6.5511,6.2541,5.8496,5.3471,5.227,5.1701,5.1954,5.739,6.1055,6.3356,6.5638,6.8545,7.1642,7.1832,7.2306,7.2906,7.2906,7.3349,7.3981,7.3981,7.4866,7.6123,7.6781,7.7945,7.9188,7.9715,8.041,8.0834,8.0116,8.041,8.0704,7.9438,7.9568,7.9759,7.837,7.8499,7.8629,7.7301,7.7851,7.8611,7.8631,8.0058,8.1511,8.205,8.0702,7.8551,7.574,7.2781,6.9847,6.7107,6.9254,7.0545,6.9147,7.1174,7.0612,6.5338,6.4996,6.3764,6.0442,6.1028,6.3226,6.7184,6.4884,6.646,7.3066,7.595,8.0929,8.8284,8.8843,9.3157,10.1108,9.7325,9.8007,10.2595,10.1788,10.2322,10.3586,10.2889,10.3403,10.4703,10.41,10.4798,10.6302,10.6397,10.6376,10.6376,10.6376,10.6376,10.6397,5.7097,5.5693,5.5131,5.6873,5.9246,6.2168,6.5682,6.8931,7.1579,7.3254,7.3222,7.3001,7.2811,7.1958,7.0884,6.9647,7.0311,7.0062,6.8387,6.9841,7.0437,6.9556,7.0343,7.0596,7.0153,6.9177,6.766,6.5569,6.1522,5.7981,5.4893,5.2523,5.2523,5.4703,5.9033,6.2351,6.4848,6.6965,6.9146,7.12,7.12,7.161,7.2211,7.2211,7.2906,7.3917,7.3917,7.4518,7.5459,7.6047,7.7179,7.8357,7.8587,7.9471,8.0183,7.9017,7.9503,8.0183,7.9179,7.9115,7.9014,7.756,7.7431,7.7463,7.6783,7.7384,7.8278,7.9002,8.0772,8.2632,8.4235,8.3517,8.2013,7.9813,7.8205,7.6136,7.2994,7.3343,7.4086,7.439,7.2462,7.0816,7.0002,6.7138,6.5137,6.481,6.3869,6.3869,6.5189,6.6406,6.9733,7.5504,7.7454,8.2361,9.0547,9.0921,9.4081,10.0105,9.894,10.0209,10.3403,10.2081,10.1918,10.2505,10.3109,10.3806,10.4394,10.4614,10.5311,10.6376,10.6376,10.6376,10.6376,10.6376,10.5997,10.5405,6.0297,5.8531,5.7378,5.8418,6.1348,6.3942,6.5113,6.8994,7.1993,7.259,7.3033,7.3159,7.2843,7.2021,7.1073,6.9936,7.0437,7.0279,6.9019,7.0094,7.0532,6.99,7.0469,7.0564,7.0026,6.9146,6.7755,6.5917,6.2249,5.9309,5.7096,5.501,5.5484,5.818,6.1877,6.45,6.627,6.8419,6.9872,7.0817,7.0817,7.1073,7.1547,7.1708,7.2432,7.3317,7.3507,7.3886,7.4385,7.5217,7.6187,7.7075,7.7618,7.8791,7.9759,7.8499,7.8985,7.9792,7.8823,7.8435,7.7949,7.6491,7.6386,7.6551,7.6255,7.733,7.8822,8.0305,8.1993,8.3801,8.5748,8.568,8.4563,8.2367,8.1988,8.0755,7.7242,7.6338,7.6352,7.7198,7.2881,7.0355,7.1768,6.8558,6.6731,6.759,6.6834,6.6194,6.5797,6.7377,7.0786,7.628,7.706,8.151,9.0179,9.1001,9.4081,9.9403,9.9984,10.1604,10.388,10.2999,10.2615,10.2595,10.3806,10.4394,10.4687,10.5018,10.5605,10.6376,10.6376,10.6376,10.6376,10.6376,10.5685,10.4706,6.2965,6.2825,6.2965,6.3588,6.5391,6.6489,6.58,6.9156,7.1298,6.9939,7.095,7.2085,7.2748,7.161,6.9963,6.7818,6.9584,6.9019,6.4854,6.8482,6.9841,6.7723,6.9651,7.0817,7.0785,6.9398,6.8008,6.6586,6.5885,6.3387,5.9286,6.0645,6.1656,6.2516,6.6744,6.8229,6.7723,6.9841,7.0785,7.0817,7.0817,7.0817,7.0852,7.1547,7.1803,7.1898,7.259,7.2811,7.3024,7.4384,7.4808,7.5178,7.7166,7.8791,7.9856,7.9082,7.9435,7.9694,7.8208,7.7333,7.6459,7.4969,7.5421,7.6085,7.5537,7.7764,8.0614,8.2877,8.4018,8.5053,8.6608,8.6894,8.5757,8.2374,8.2783,8.2095,7.7859,7.7043,7.6589,7.5811,7.1628,6.865,6.8192,6.8049,6.7724,6.7059,6.9138,7.0677,7.1187,6.6475,6.699,7.4017,7.282,7.6624,8.6077,8.8093,9.2941,10.0607,10.0391,10.1604,10.388,10.4724,10.5091,10.5091,10.5107,10.5605,10.6302,10.5495,10.5605,10.6376,10.6376,10.6376,10.6376,10.6376,10.5685,10.4706,6.0048,6.1449,6.2544,6.1449,6.4345,6.6878,6.7148,6.9431,7.1294,7.1768,7.1421,7.1358,7.2053,7.1326,7.0532,6.9837,6.9051,6.8671,6.8766,6.8671,6.8983,6.9774,6.9019,6.8387,6.7945,6.7055,6.6112,6.5169,6.45,6.3204,6.1442,6.2832,6.4405,6.6048,6.7881,6.9082,6.9837,7.0532,7.0817,7.0817,7.0817,7.0817,7.0817,7.1042,7.1389,7.1803,7.2053,7.2432,7.2929,7.3781,7.4392,7.4986,7.6036,7.7366,7.837,7.7657,7.7949,7.8305,7.7366,7.6621,7.5978,7.5757,7.5575,7.5722,7.6745,7.9304,8.1854,8.3137,8.4467,8.5716,8.6715,8.677,8.5719,8.294,8.361,8.315,7.9272,7.7891,7.7251,7.7069,7.2728,7.0664,7.2914,7.2478,7.1846,7.1454,7.1852,7.1858,7.134,7.2493,7.5516,8.0663,8.256,8.6675,9.327,9.3404,9.6054,10.1215,10.1112,10.1788,10.3109,10.5091,10.5091,10.3586,10.5311,10.5495,10.4818,10.5605,10.6119,10.6376,10.6376,10.6376,10.6312,10.548,10.4508,10.3599,6.0301,6.1561,6.26,6.1645,6.4432,6.6759,6.6669,6.9029,7.0789,7.0852,7.082,7.0947,7.1389,7.1042,7.0817,7.0817,6.9584,6.9394,7.0722,6.9552,6.9426,7.0754,6.9521,6.8608,6.8197,6.7497,6.6928,6.6459,6.5764,6.5353,6.5138,6.6048,6.7281,6.8798,6.9272,6.9995,7.0817,7.0817,7.0817,7.0817,7.0817,7.0817,7.0817,7.0817,7.1042,7.1421,7.1421,7.1705,7.2199,7.3047,7.3628,7.4156,7.5002,7.6103,7.6977,7.6848,7.7269,7.7593,7.6653,7.5844,7.5264,7.5245,7.4962,7.5313,7.7609,8.0273,8.2504,8.3611,8.4895,8.6109,8.7143,8.6882,8.5962,8.4295,8.43,8.3689,8.1389,7.8748,7.7386,7.8139,7.4412,7.3025,7.6158,7.6889,7.7022,7.667,7.6124,7.5931,7.6187,7.6619,7.9054,8.3814,8.673,9.0623,9.5768,9.5584,9.753,10.1514,10.2081,10.2705,10.3219,10.4818,10.4614,10.3293,10.5091,10.5311,10.4504,10.5789,10.6376,10.6376,10.6376,10.6376,10.6312,10.5582,10.4404,10.3101,6.2656,6.2712,6.3021,6.3476,6.5333,6.634,6.4964,6.8199,7.009,6.8071,6.9556,7.0817,7.0817,7.0817,7.0817,7.0817,7.0659,7.0659,7.0785,7.0659,7.0659,7.0817,7.0659,7.0596,7.0596,6.9868,6.9584,6.971,6.9114,6.9146,6.9774,6.9774,7.0153,7.0817,7.0817,7.0817,7.0817,7.0817,7.0817,7.0817,7.0817,7.0817,7.0817,7.0817,7.0817,7.0817,7.0817,7.0817,7.0996,7.2217,7.2668,7.2907,7.4157,7.5034,7.5751,7.6524,7.7204,7.7463,7.6107,7.5196,7.4479,7.3912,7.3973,7.4968,7.8172,8.0563,8.2567,8.4268,8.5288,8.6323,8.7821,8.7134,8.6276,8.6064,8.4643,8.349,8.3281,7.9319,7.7019,7.8566,7.6422,7.5744,7.8142,8.1204,8.2727,8.2081,8.1529,8.2215,8.4529,7.9624,7.9234,8.4569,8.6666,8.9987,9.4666,9.5474,9.775,10.1514,10.3109,10.388,10.388,10.4011,10.399,10.399,10.4724,10.4997,10.5201,10.6009,10.6302,10.6376,10.6376,10.6376,10.6413,10.6312,10.4903,10.3177,5.9093,6.0975,6.2488,6.1196,6.4199,6.6699,6.634,6.8845,7.0627,7.0121,7.0501,7.0817,7.0817,7.0817,7.0817,7.0817,6.9299,6.9051,7.069,6.9272,6.9082,7.0754,6.9209,6.8355,6.8355,6.7692,6.8103,6.971,7.0121,7.0406,7.0564,7.0564,7.0627,7.0817,7.0817,7.0817,7.0817,7.0817,7.0817,7.0817,7.0817,7.0817,7.0817,7.0817,7.0817,7.0817,7.0817,7.0817,7.0901,7.1615,7.2252,7.2843,7.3608,7.4289,7.5002,7.5747,7.6491,7.6977,7.6621,7.5585,7.4767,7.5431,7.5548,7.6064,7.8373,7.9896,8.155,8.4068,8.568,8.6929,8.7893,8.644,8.5116,8.524,8.2938,8.03,7.794,7.7226,7.6514,7.5401,7.737,7.9458,8.1077,8.4773,8.6051,8.3474,8.4548,8.5817,8.7005,8.7281,8.857,9.1124,9.373,9.6311,9.8851,9.9071,9.9952,10.1514,10.3109,10.388,10.388,10.4504,10.4777,10.4798,10.4394,10.4504,10.5107,10.529,10.5789,10.6376,10.6376,10.6376,10.6312,10.5391,10.4286,10.3183,6.0638,6.1931,6.2881,6.1617,6.4403,6.6789,6.6789,6.9091,7.0817,7.0817,7.0817,7.0817,7.0817,7.0817,7.0817,7.0817,6.9742,6.9556,7.0722,6.9683,6.9584,7.0754,6.9683,6.9051,6.9051,6.8703,6.9051,7.0216,7.0627,7.0817,7.0817,7.0817,7.0817,7.0817,7.0817,7.0817,7.0817,7.0817,7.0817,7.0817,7.0817,7.0817,7.0817,7.0817,7.0817,7.0817,7.0817,7.0817,7.0901,7.1424,7.1872,7.2302,7.2929,7.3604,7.4225,7.4613,7.5488,7.6297,7.6297,7.5714,7.5075,7.504,7.532,7.6139,7.7835,7.9892,8.212,8.4631,8.6394,8.7508,8.7657,8.6016,8.4476,8.4088,8.052,7.7305,7.5887,7.5055,7.5014,7.611,7.9255,8.2395,8.519,8.8163,8.9414,8.8153,8.8449,8.9415,9.1068,9.1632,9.2711,9.4404,9.6732,9.8493,9.9593,10.0389,10.1604,10.3182,10.3696,10.41,10.4504,10.4887,10.4887,10.4504,10.41,10.4394,10.5107,10.5107,10.5605,10.6376,10.6376,10.6376,10.6276,10.5707,10.451,10.3208,6.4066,6.3869,6.3645,6.3106,6.5057,6.6693,6.6788,6.8977,7.0686,7.0789,7.0817,7.0817,7.0817,7.0817,7.0817,7.0817,7.0817,7.0817,7.0817,7.0817,7.0817,7.0817,7.0817,7.0817,7.0817,7.0817,7.0817,7.0817,7.0817,7.0817,7.0817,7.0817,7.0817,7.0817,7.0817,7.0817,7.0817,7.0817,7.0817,7.0817,7.0817,7.0817,7.0817,7.0817,7.0817,7.0817,7.0817,7.0817,7.0901,7.1424,7.1616,7.1726,7.2321,7.2929,7.3474,7.3572,7.4451,7.5427,7.5622,7.5686,7.539,7.4063,7.4649,7.594,7.7397,8.0248,8.3234,8.5486,8.6945,8.7684,8.727,8.5476,8.3603,8.2255,7.7839,7.4643,7.4947,7.3623,7.4287,7.878,8.185,8.5195,8.9255,9.0833,9.205,9.3037,9.218,9.2611,9.4965,9.4175,9.439,9.5918,9.7512,9.8598,9.9176,10.0823,10.2591,10.4614,10.421,10.4394,10.4887,10.4997,10.4798,10.4284,10.399,10.4394,10.529,10.5201,10.5605,10.6376,10.6376,10.6376,10.6376,10.6376,10.5022,10.3412,6.4775,6.4212,6.3757,6.3673,6.4913,6.6131,6.6725,6.8544,7.0091,7.074,7.0817,7.0817,7.0817,7.0817,7.0817,7.0817,7.0817,7.0817,7.0817,7.0817,7.0817,7.0817,7.0817,7.0817,7.0817,7.0817,7.0817,7.0817,7.0817,7.0817,7.0817,7.0817,7.0817,7.0817,7.0817,7.0817,7.0817,7.0817,7.0817,7.0817,7.0817,7.0817,7.0817,7.0817,7.0817,7.0817,7.0817,7.0817,7.0901,7.1424,7.1616,7.1726,7.2321,7.2573,7.28,7.3442,7.3766,7.4192,7.539,7.5686,7.552,7.4646,7.5298,7.6699,7.8769,8.0916,8.3241,8.614,8.6555,8.6557,8.7105,8.4121,8.0773,7.8387,7.5489,7.3107,7.1911,7.4946,7.8442,8.1348,8.557,8.9033,9.1047,9.1461,9.1948,9.2814,9.3502,9.4338,9.5365,9.6255,9.6842,9.7116,9.78,9.9021,10.0802,10.1795,10.2191,10.2081,10.399,10.4614,10.41,10.4798,10.5401,10.5899,10.4504,10.4798,10.6119,10.5422,10.5605,10.6376,10.6376,10.6376,10.6376,10.6376,10.5306,10.3782,6.5393,6.5056,6.46,6.3897,6.5178,6.6519,6.7262,6.9032,7.0661,7.1724,7.1547,7.1326,7.1326,7.101,7.0817,7.0817,7.0817,7.0817,7.0817,7.0817,7.0817,7.0817,7.0817,7.0817,7.0817,7.0817,7.0817,7.0817,7.0817,7.0817,7.0817,7.0817,7.0817,7.0817,7.0817,7.0817,7.0817,7.0817,7.0817,7.0817,7.0817,7.0817,7.0817,7.0817,7.0817,7.0817,7.0817,7.0817,7.0901,7.1424,7.1616,7.1726,7.2321,7.2508,7.2573,7.2897,7.3836,7.4872,7.5492,7.5686,7.5622,7.5293,7.6031,7.7448,7.9746,8.1963,8.4146,8.6066,8.6579,8.6338,8.5173,8.2809,8.0526,7.9116,7.5753,7.3287,7.3221,7.62,7.9188,8.1344,8.6538,9.0569,9.2104,9.2639,9.321,9.4031,9.4651,9.5145,9.5467,9.6594,9.7294,9.7426,9.8259,9.9617,10.149,10.1523,10.191,10.2614,10.329,10.3682,10.388,10.4703,10.529,10.5715,10.4908,10.5311,10.6302,10.5495,10.5605,10.6376,10.6376,10.6376,10.6312,10.5502,10.46,10.3779,6.6012,6.5815,6.5393,6.4403,6.5483,6.673,6.7508,6.9021,7.0496,7.1667,7.1545,7.1311,7.1311,7.0998,7.0817,7.0817,7.0817,7.0817,7.0817,7.0817,7.0817,7.0817,7.0817,7.0817,7.0817,7.0817,7.0817,7.0817,7.0817,7.0817,7.0817,7.0817,7.0817,7.0817,7.0817,7.0817,7.0817,7.0817,7.0817,7.0817,7.0817,7.0817,7.0817,7.0817,7.0817,7.0817,7.0817,7.0817,7.0901,7.1424,7.1616,7.1726,7.2321,7.2508,7.2508,7.2508,7.3804,7.5261,7.5423,7.5557,7.5686,7.5686,7.6975,7.8623,8.0215,8.2745,8.4992,8.5733,8.622,8.5882,8.3747,8.2056,8.0502,7.9052,7.6049,7.427,7.5277,7.7629,8.0307,8.2962,8.7854,9.1568,9.2924,9.3661,9.4268,9.4887,9.5071,9.522,9.5435,9.645,9.7273,9.7857,9.8933,10.0195,10.1713,10.121,10.1788,10.3205,10.2803,10.2893,10.3598,10.4384,10.4882,10.5107,10.5107,10.5605,10.6302,10.5715,10.5789,10.6391,10.6004,10.5918,10.5692,10.4285,10.3701,10.3392,6.6539,6.6061,6.5674,6.559,6.5687,6.6009,6.6664,6.7396,6.8125,6.8884,6.9489,6.9841,6.9841,7.0423,7.0817,7.0817,7.0817,7.0817,7.0817,7.0817,7.0817,7.0817,7.0817,7.0817,7.0817,7.0817,7.0817,7.0817,7.0817,7.0817,7.0817,7.0817,7.0817,7.0817,7.0817,7.0817,7.0817,7.0817,7.0817,7.0817,7.0817,7.0817,7.0817,7.0817,7.0817,7.0817,7.0817,7.0817,7.0901,7.1424,7.1616,7.1726,7.2321,7.2508,7.2508,7.2508,7.3091,7.3896,7.4516,7.5196,7.5686,7.5686,7.8318,8.073,8.0027,8.27,8.5318,8.5198,8.4743,8.4356,8.4165,8.2403,7.949,7.483,7.5021,7.5882,7.6336,7.9586,8.3901,8.9203,9.1475,9.296,9.3839,9.3982,9.4018,9.4089,9.4112,9.4433,9.5196,9.62,9.7527,9.9193,9.9848,10.0579,10.1728,10.1677,10.1807,10.211,10.2919,10.2989,10.2506,10.3311,10.4206,10.5107,10.5107,10.5605,10.6376,10.6302,10.6302,10.6291,10.5008,10.451,10.4297,10.2873,10.2416,10.2399,6.6595,6.6398,6.643,6.6929,6.6599,6.6771,6.8386,6.843,6.8714,6.9856,7.0218,7.0368,7.0368,7.0647,7.0817,7.0817,7.0817,7.0817,7.0817,7.0817,7.0817,7.0817,7.0817,7.0817,7.0817,7.0817,7.0817,7.0817,7.0817,7.0817,7.0817,7.0817,7.0817,7.0817,7.0817,7.0817,7.0817,7.0817,7.0817,7.0817,7.0817,7.0817,7.0817,7.0817,7.0817,7.0817,7.0817,7.0817,7.0901,7.1424,7.1616,7.1726,7.2321,7.2508,7.2508,7.2508,7.2703,7.2962,7.3221,7.4484,7.5686,7.5686,7.7932,8.0155,8.0488,8.2491,8.4216,8.3907,8.406,8.3792,8.2447,8.1931,8.1192,7.9737,8.0181,8.0944,8.1609,8.4411,8.7256,8.9497,9.1568,9.3103,9.3911,9.4018,9.4018,9.4018,9.4459,9.4887,9.5173,9.6619,9.7985,9.919,9.9513,9.9953,10.0489,10.0716,10.0914,10.1094,10.1385,10.1514,10.1398,10.2296,10.319,10.4185,10.4719,10.5479,10.6376,10.6376,10.5896,10.4981,10.4485,10.3784,10.2894,10.1878,10.1909,10.2217,6.7157,6.7185,6.7487,6.8378,6.7616,6.7494,6.9329,6.8727,6.8373,6.9353,6.9504,6.9667,7.0098,7.016,7.0331,7.0761,7.0817,7.0817,7.0817,7.0817,7.0817,7.0817,7.0817,7.0817,7.0817,7.0817,7.0817,7.0817,7.0817,7.0817,7.0817,7.0817,7.0817,7.0817,7.0817,7.0817,7.0817,7.0817,7.0817,7.0817,7.0817,7.0817,7.0817,7.0817,7.0817,7.0817,7.0817,7.0817,7.0901,7.1424,7.1616,7.1726,7.2321,7.2508,7.2541,7.2767,7.2832,7.2832,7.2832,7.4257,7.5622,7.5423,7.7577,7.988,8.0267,8.1884,8.3215,8.2855,8.3194,8.3107,8.1626,8.2127,8.2702,8.2494,8.3517,8.4617,8.5251,8.7712,8.9697,9.0338,9.2032,9.3388,9.3946,9.4018,9.4089,9.4375,9.4887,9.5422,9.5886,9.7335,9.8395,9.8967,9.9167,9.9398,9.9559,9.9912,10.0288,10.0819,10.0493,10.0492,10.0691,10.1296,10.2189,10.3184,10.3598,10.432,10.5195,10.5103,10.4485,10.3614,10.322,10.2414,10.1492,10.0794,10.0972,10.1613,6.8337,6.8514,6.8833,6.9899,6.8669,6.7904,6.9039,6.7725,6.6595,6.6595,6.67,6.7253,6.8572,6.8789,6.9352,7.0705,7.0817,7.0817,7.0817,7.0817,7.0817,7.0817,7.0817,7.0817,7.0817,7.0817,7.0817,7.0817,7.0817,7.0817,7.0817,7.0817,7.0817,7.0817,7.0817,7.0817,7.0817,7.0817,7.0817,7.0817,7.0817,7.0817,7.0817,7.0817,7.0817,7.0817,7.0817,7.0817,7.0901,7.1424,7.1584,7.1726,7.2321,7.2508,7.2638,7.3377,7.3604,7.3604,7.3604,7.4646,7.5492,7.4775,7.7632,8.0294,7.9177,8.0849,8.258,8.2172,8.2094,8.2094,8.2094,8.3271,8.3532,8.1382,8.3912,8.6161,8.6301,8.8728,9.1069,9.2603,9.3518,9.3982,9.3982,9.4018,9.4339,9.5137,9.5208,9.5886,9.7421,9.8265,9.8694,9.8694,9.8967,9.9121,9.9121,9.9536,10.0296,10.141,10.0614,10.0289,10.0492,10.0492,10.1094,10.2104,10.1708,10.1891,10.2706,10.2289,10.2181,10.1989,10.0593,10.01,10.0004,9.9363,9.9559,10.0305,6.7747,6.8169,6.8761,6.9591,6.8494,6.794,6.9282,6.8174,6.741,6.7859,6.9253,7.0159,7.004,7.0952,7.1557,7.1519,7.1073,7.0817,7.0817,7.0817,7.0817,7.0817,7.0817,7.0817,7.0817,7.0817,7.0817,7.0817,7.0817,7.0817,7.0817,7.0817,7.0817,7.0817,7.0817,7.0817,7.0817,7.0817,7.0817,7.0817,7.0817,7.0817,7.0817,7.1009,7.1064,7.1092,7.1286,7.1369,7.1424,7.1835,7.197,7.2025,7.2401,7.2508,7.2638,7.3377,7.3604,7.3701,7.416,7.5002,7.5622,7.5455,7.7422,7.9447,7.9652,8.064,8.144,8.1344,8.2534,8.3421,8.2888,8.4762,8.6136,8.548,8.7099,8.8451,8.8419,9.005,9.1247,9.1176,9.2354,9.3139,9.3139,9.4173,9.4923,9.5173,9.6208,9.7242,9.8277,9.8587,9.8694,9.8694,9.8801,9.892,9.9121,9.9375,9.9758,10.0296,10.0007,10.001,10.0325,10.0325,10.0408,10.0708,10.0622,10.0601,10.08,10.1289,10.0783,9.9979,10.0125,9.9508,9.8743,9.9546,10.0001,10.0305,6.7831,6.8197,6.8761,6.9625,6.8529,6.7947,6.9229,6.8123,6.7637,6.898,7.0117,7.1147,7.2191,7.2856,7.3237,7.3238,7.274,7.2179,7.161,7.1579,7.1326,7.0817,7.0817,7.0817,7.0817,7.0817,7.0817,7.0817,7.0817,7.0817,7.0817,7.0817,7.0817,7.0817,7.0817,7.0873,7.0953,7.0953,7.1009,7.112,7.112,7.112,7.112,7.1286,7.1369,7.1397,7.1561,7.1616,7.1671,7.1998,7.2187,7.2294,7.2455,7.2703,7.3059,7.3798,7.4025,7.4127,7.484,7.5358,7.5751,7.607,7.7301,7.8708,7.9619,8.0411,8.114,8.1883,8.3143,8.4089,8.3975,8.576,8.7254,8.7218,8.8463,8.9502,8.9746,9.0605,9.1105,9.0962,9.2032,9.2924,9.3233,9.4423,9.5458,9.6065,9.7278,9.817,9.8694,9.8694,9.8694,9.8694,9.8694,9.8801,9.8944,9.9049,9.9306,9.965,9.965,9.9786,9.9988,9.9569,9.9416,9.9456,9.8852,9.8749,9.8989,9.9301,9.9108,9.8626,9.9073,9.8753,9.8138,9.9356,9.9762,9.9897,6.8289,6.8429,6.8705,6.9693,6.8564,6.7904,6.9098,6.7948,6.7763,7.0165,7.0186,7.1256,7.4625,7.4555,7.4601,7.5433,7.5195,7.4448,7.3122,7.303,7.2489,7.1256,7.1193,7.1189,7.1091,7.0908,7.0817,7.0817,7.0845,7.0845,7.0845,7.0873,7.0873,7.0873,7.0873,7.1009,7.1231,7.1231,7.1397,7.1616,7.1616,7.1616,7.1616,7.1612,7.1644,7.1671,7.1671,7.1698,7.1753,7.2052,7.2294,7.2508,7.2508,7.2994,7.3734,7.4387,7.4646,7.4872,7.5617,7.5867,7.608,7.6664,7.743,7.8289,7.9353,8.0312,8.1478,8.3173,8.3765,8.4284,8.5147,8.6384,8.7316,8.7386,8.8471,8.9548,9.0284,9.0462,9.0748,9.1426,9.2282,9.3103,9.3911,9.4851,9.6029,9.7492,9.8277,9.8694,9.8694,9.8694,9.8694,9.8694,9.8694,9.8694,9.8694,9.8694,9.8932,9.9375,9.9375,9.949,9.9614,9.8575,9.8129,9.8141,9.6758,9.6591,9.715,9.6895,9.7225,9.7901,9.7969,9.8003,9.8104,9.8815,9.9085,9.9187,6.7494,6.7719,6.7805,6.8025,6.7743,6.8046,6.9647,6.9579,7.016,7.246,7.4188,7.5271,7.5558,7.651,7.6977,7.6611,7.6039,7.5446,7.4866,7.4866,7.4707,7.4421,7.4389,7.4027,7.3171,7.1608,7.0817,7.0817,7.1009,7.1092,7.112,7.1341,7.1424,7.1424,7.1424,7.1479,7.1534,7.1534,7.1561,7.1616,7.1616,7.1616,7.1644,7.1889,7.1998,7.2025,7.224,7.2289,7.2321,7.2401,7.2455,7.2508,7.2508,7.2994,7.3734,7.4387,7.5002,7.5617,7.6362,7.716,7.7705,7.7223,7.8312,7.9645,8.0176,8.1103,8.2004,8.2606,8.3625,8.4695,8.5733,8.6984,8.813,8.8748,8.911,8.937,8.9548,9.0105,9.0569,9.0712,9.1961,9.3103,9.3911,9.5815,9.7385,9.8373,9.8622,9.8694,9.8694,9.8694,9.8694,9.8694,9.8694,9.8694,9.8694,9.8694,9.8873,9.9156,9.9156,9.8919,9.8479,9.8202,9.73,9.5893,9.5585,9.5383,9.5344,9.5823,9.6447,9.7191,9.7766,9.8003,9.8104,9.8815,9.9085,9.9119,6.696,6.7718,6.8251,6.8315,6.8977,6.9826,7.0727,7.0858,7.1688,7.4059,7.5371,7.6522,7.7666,7.8485,7.8844,7.8634,7.8194,7.7534,7.6715,7.6621,7.6334,7.5664,7.5632,7.5368,7.4804,7.3756,7.2567,7.1175,7.1314,7.1397,7.1397,7.1534,7.1616,7.1616,7.1968,7.2179,7.2316,7.2669,7.2719,7.2534,7.2534,7.2341,7.2052,7.224,7.2294,7.2321,7.2455,7.2508,7.2508,7.2508,7.2508,7.2573,7.2897,7.3512,7.4219,7.4905,7.5423,7.5784,7.6168,7.6796,7.7325,7.7258,7.8766,8.0297,8.0445,8.129,8.2384,8.3512,8.4355,8.5355,8.6787,8.7625,8.8357,8.9178,8.9299,8.9441,8.9798,9.0248,9.0641,9.0997,9.2068,9.3388,9.4959,9.6886,9.8265,9.8694,9.8694,9.8694,9.8694,9.8694,9.8694,9.8694,9.8694,9.8694,9.8694,9.8694,9.8777,9.8896,9.8501,9.8163,9.792,9.6943,9.6027,9.5199,9.5024,9.504,9.5296,9.6007,9.6751,9.7461,9.7867,9.8003,9.807,9.8442,9.8578,9.8578,6.6426,6.7711,6.8835,6.8986,7.0401,7.1645,7.2082,7.2114,7.2953,7.5257,7.5657,7.6768,7.9515,8.0051,8.0289,8.0541,8.0396,7.9731,7.8515,7.8419,7.7906,7.6749,7.6685,7.6618,7.6419,7.6419,7.5082,7.232,7.2151,7.2051,7.2051,7.1849,7.1753,7.1812,7.2518,7.2972,7.3223,7.3836,7.3909,7.3604,7.3474,7.3026,7.2508,7.2508,7.2508,7.2508,7.2508,7.2508,7.2508,7.2638,7.2605,7.2638,7.348,7.4127,7.4743,7.5488,7.5784,7.5936,7.6099,7.6476,7.6949,7.7307,7.9038,8.0556,8.0151,8.1146,8.2684,8.4304,8.5009,8.5863,8.7565,8.8,8.8357,8.9178,8.9299,8.9513,9.0212,9.0534,9.0926,9.1533,9.2675,9.4173,9.61,9.7742,9.8694,9.8694,9.8694,9.8694,9.8694,9.8694,9.8694,9.8694,9.8694,9.8694,9.8694,9.8694,9.8694,9.867,9.7667,9.7279,9.7456,9.5638,9.4872,9.49,9.4758,9.5127,9.5838,9.6612,9.7326,9.8003,9.8003,9.8003,9.8003,9.8003,9.8003,9.8003,6.573,6.6701,6.7666,6.8225,6.9684,7.1442,7.3532,7.3869,7.4501,7.6335,7.7084,7.788,7.8953,8.0151,8.0898,8.0936,8.0906,8.0659,8.0195,8.0165,8.0069,7.9876,7.9876,7.9446,7.8513,7.8481,7.7442,7.5317,7.4325,7.3858,7.3826,7.2848,7.2375,7.2434,7.3145,7.3496,7.355,7.362,7.3647,7.3539,7.2897,7.2573,7.2508,7.2508,7.2508,7.2508,7.2508,7.2508,7.2605,7.3248,7.3026,7.2735,7.403,7.4516,7.4743,7.5488,7.6168,7.6846,7.7768,7.8753,7.9205,7.8049,7.961,8.085,7.8686,8.0697,8.2951,8.2726,8.3983,8.5528,8.6809,8.7607,8.8357,8.9178,8.9299,8.9334,8.9441,9.0605,9.1497,9.1604,9.4102,9.5958,9.6279,9.7742,9.8694,9.8694,9.8694,9.8694,9.8694,9.8694,9.8694,9.8694,9.8694,9.8694,9.8694,9.8694,9.8694,9.867,9.7048,9.6282,9.6317,9.5289,9.4426,9.3869,9.4442,9.5127,9.5838,9.6612,9.7326,9.8003,9.8003,9.8003,9.8003,9.8003,9.8003,9.8003,6.573,6.753,6.9236,6.9598,7.1751,7.4073,7.5919,7.6228,7.665,7.783,7.7884,7.8078,7.8823,7.9827,8.0604,8.0963,8.0995,8.0936,8.0786,8.0786,8.0786,8.0786,8.0786,8.0555,8.0057,8.0057,7.9615,7.8766,7.6657,7.5648,7.5648,7.5141,7.4905,7.4905,7.5229,7.539,7.5358,7.4937,7.4516,7.4122,7.3383,7.2864,7.2508,7.2508,7.2508,7.2508,7.2508,7.2508,7.2541,7.2864,7.3026,7.3285,7.4289,7.4872,7.5293,7.5589,7.6232,7.6636,7.5919,7.7047,7.8188,7.7228,7.8511,7.9692,7.8437,7.9831,8.1493,8.174,8.2455,8.3717,8.6034,8.7082,8.7979,8.9118,9.0012,9.0583,9.0583,9.1568,9.2425,9.2889,9.4566,9.5708,9.5708,9.71,9.7849,9.7385,9.7778,9.8027,9.8027,9.8027,9.8242,9.8694,9.8694,9.8694,9.8694,9.8694,9.8694,9.867,9.7441,9.6581,9.6078,9.4738,9.4185,9.4277,9.5521,9.6472,9.7188,9.7972,9.8484,9.8731,9.8218,9.8003,9.8003,9.8003,9.8003,9.8003]}]]